[[{"header":{"parameterUnit":"m.s-1","parameterCategory":1,"la1":31.0,"la2":29.5877,"lo1":-88.7671,"lo2":-86.6584,"dy":0.0162,"dx":0.0185,"nx":115,"ny":88,"refTime":"2023-04-21T00:00:00:Z","depth":0,"parameterNumber":2,"parameterNumberName":"U-component_of_WINDS"},"data":[0.0,0.0,0.0,0.0,0.0,0.0,0.0,0.0,0.0,0.0,0.0,0.0,0.0,0.0,0.0,0.0,0.0,0.0,0.0,0.0,0.0,0.0,0.0,0.0,0.0,0.0,0.0,0.0,0.0,0.0,0.0,0.0,0.0,0.0,0.0,0.0,0.0,0.0,0.0,0.0,0.0,0.0,0.0,0.0,0.0,0.0,0.0,0.0,0.0,0.0,0.0,0.0,0.0,0.0,0.0,0.0,0.0,0.0,0.0,0.0,0.0,0.0,0.0,0.0,0.0,0.0,0.0,0.0,0.0,0.0,0.0,0.0,0.0,0.0,0.0,0.0,0.0,0.0,0.0,0.0,0.0,0.0,0.0,0.0,0.0,0.0,0.0,0.0,0.0,0.0,0.0,0.0,0.0,0.0,0.0,0.0,0.0,0.0,0.0,0.0,0.0,0.0,0.0,0.0,0.0,0.0,0.0,0.0,0.0,0.0,0.0,0.0,0.0,0.0,0.0,0.0,0.0,0.0,0.0,0.0,0.0,0.0,0.0,0.0,0.0,0.0,0.0,0.0,0.0,0.0,0.0,0.0,0.0,0.0,0.0,0.0,0.0,0.0,0.0,0.0,0.0,0.0,0.0,0.0,0.0,0.0,0.0,0.0,0.0,0.0,0.0,0.0,0.0,0.0,0.0,0.0,0.0,0.0,0.0,0.0,0.0,0.0,0.0,0.0,0.0,0.0,0.0,0.0,0.0,0.0,0.0,0.0,0.0,0.0,0.0,0.0,0.0,0.0,0.0,0.0,0.0,0.0,0.0,0.0,0.0,0.0,0.0,0.0,0.0,0.0,0.0,0.0,0.0,0.0,0.0,0.0,0.0,0.0,0.0,0.0,0.0,0.0,0.0,0.0,0.0,0.0,0.0,0.0,0.0,0.0,0.0,0.0,0.0,0.0,0.0,0.0,0.0,0.0,0.0,0.0,0.0,0.0,0.0,0.0,0.0,0.0,0.0,0.0,0.0,0.0,0.0,0.0,0.0,0.0,0.0,0.0,0.0,0.0,0.0,0.0,0.0,0.0,0.0,0.0,0.0,0.0,0.0,0.0,0.0,0.0,0.0,0.0,0.0,0.0,0.0,0.0,0.0,0.0,0.0,0.0,0.0,0.0,0.0,0.0,0.0,0.0,0.0,0.0,0.0,0.0,0.0,0.0,0.0,0.0,0.0,0.0,0.0,0.0,0.0,0.0,0.0,0.0,0.0,0.0,0.0,0.0,0.0,0.0,0.0,0.0,0.0,0.0,0.0,0.0,0.0,0.0,0.0,0.0,0.0,0.0,0.0,0.0,0.0,0.0,0.0,0.0,0.0,0.0,0.0,0.0,0.0,0.0,0.0,0.0,0.0,0.0,0.0,0.0,0.0,0.0,0.0,0.0,0.0,0.0,0.0,0.0,0.0,0.0,0.0,0.0,0.0,0.0,0.0,0.0,0.0,0.0,0.0,0.0,0.0,0.0,0.0,0.0,0.0,0.0,0.0,0.0,0.0,0.0,0.0,0.0,0.0,0.0,0.0,0.0,0.0,0.0,0.0,0.0,0.0,0.0,0.0,0.0,0.0,0.0,0.0,0.0,0.0,0.0,0.0,0.0,0.0,0.0,0.0,0.0,0.0,0.0,0.0,0.0,0.0,0.0,0.0,0.0,0.0,0.0,0.0,0.0,0.0,0.0,0.0,0.0,0.0,0.0,0.0,0.0,0.0,0.0,0.0,0.0,0.0,0.0,0.0,0.0,0.0,0.0,0.0,0.0,0.0,0.0,0.0,0.0,0.0,0.0,0.0,0.0,0.0,0.0,0.0,0.0,0.0,0.0,0.0,0.0,0.0,0.0,0.0,0.0,0.0,0.0,0.0,0.0,0.0,0.0,0.0,0.0,0.0,0.0,0.0,0.0,0.0,0.0,0.0,0.0,0.0,0.0,0.0,0.0,0.0,0.0,0.0,0.0,0.0,0.0,0.0,0.0,0.0,0.0,0.0,0.0,0.0,0.0,0.0,0.0,0.0,0.0,0.0,0.0,0.0,0.0,0.0,0.0,0.0,0.0,0.0,0.0,0.0,0.0,0.0,0.0,0.0,0.0,0.0,0.0,0.0,0.0,0.0,0.0,0.0,0.0,0.0,0.0,0.0,0.0,0.0,0.0,0.0,0.0,0.0,0.0,0.0,0.0,0.0,0.0,0.0,0.0,0.0,0.0,0.0,0.0,0.0,0.0,0.0,0.0,0.0,0.0,0.0,0.0,0.0,0.0,0.0,0.0,0.0,0.0,0.0,0.0,0.0,0.0,0.0,0.0,0.0,0.0,0.0,0.0,0.0,0.0,0.0,0.0,0.0,0.0,0.0,0.0,0.0,0.0,0.0,0.0,0.0,0.0,0.0,0.0,0.0,0.0,0.0,0.0,0.0,0.0,0.0,0.0,0.0,0.0,0.0,0.0,0.0,0.0,0.0,0.0,0.0,0.0,0.0,0.0,0.0,0.0,0.0,0.0,0.0,0.0,0.0,0.0,0.0,0.0,0.0,0.0,0.0,0.0,0.0,0.0,0.0,0.0,0.0,0.0,0.0,0.0,0.0,0.0,0.0,0.0,0.0,0.0,0.0,0.0,0.0,0.0,0.0,0.0,0.0,0.0,0.0,0.0,0.0,0.0,0.0,0.0,0.0,0.0,0.0,0.0,0.0,0.0,0.0,0.0,0.0,0.0,0.0,0.0,0.0,0.0,0.0,0.0,0.0,0.0,0.0,0.0,0.0,0.0,0.0,0.0,0.0,0.0,0.0,0.0,0.0,0.0,0.0,0.0,0.0,0.0,0.0,0.0,0.0,0.0,0.0,0.0,0.0,0.0,0.0,0.0,0.0,0.0,0.0,0.0,0.0,0.0,0.0,0.0,0.0,0.0,0.0,0.0,0.0,0.0,0.0,0.0,0.0,0.0,0.0,0.0,0.0,0.0,0.0,0.0,0.0,0.0,0.0,0.0,0.0,0.0,0.0,0.0,0.0,0.0,0.0,0.0,0.0,0.0,0.0,0.0,0.0,0.0,0.0,0.0,0.0,0.0,0.0,0.0,0.0,0.0,0.0,0.0,0.0,0.0,0.0,0.0,0.0,0.0,0.0,0.0,0.0,0.0,0.0,0.0,0.0,0.0,0.0,0.0,0.0,0.0,0.0,0.0,0.0,0.0,0.0,0.0,0.0,0.0,0.0,0.0,0.0,0.0,0.0,0.0,0.0,0.0,0.0,0.0,0.0,0.0,0.0,0.0,0.0,0.0,0.0,0.0,0.0,0.0,0.0,0.0,0.0,0.0,0.0,0.0,0.0,0.0,0.0,0.0,0.0,0.0,0.0,0.0,0.0,0.0,0.0,0.0,0.0,0.0,0.0,0.0,0.0,0.0,0.0,0.0,0.0,0.0,0.0,0.0,0.0,0.0,0.0,0.0,0.0,0.0,0.0,0.0,0.0,0.0,0.0,0.0,0.0,0.0,0.0,0.0,0.0,0.0,0.0,0.0,0.0,0.0,0.0,0.0,0.0,0.0,0.0,0.0,0.0,0.0,0.0,0.0,0.0,0.0,0.0,0.0,0.0,0.0,0.0,0.0,0.0,0.0,0.0,0.0,0.0,0.0,0.0,0.0,0.0,0.0,0.0,0.0,0.0,0.0,0.0,0.0,0.0,0.0,0.0,0.0,0.0,0.0,0.0,0.0,0.0,0.0,0.0,0.0,0.0,0.0,0.0,0.0,0.0,0.0,0.0,0.0,0.0,0.0,0.0,0.0,0.0,0.0,0.0,0.0,0.0,0.0,0.0,0.0,0.0,0.0,0.0,0.0,0.0,0.0,0.0,0.0,0.0,0.0,0.0,0.0,0.0,0.0,0.0,0.0,0.0,0.0,0.0,0.0,0.0,0.0,0.0,0.0,0.0,0.0,0.0,0.0,0.0,0.0,0.0,0.0,0.0,0.0,0.0,0.0,0.0,0.0,0.0,0.0,0.0,0.0,0.0,0.0,0.0,0.0,0.0,0.0,0.0,0.0,0.0,0.0,0.0,0.0,0.0,0.0,0.0,0.0,0.0,0.0,0.0,0.0,0.0,0.0,0.0,0.0,0.0,0.0,0.0,0.0,0.0,0.0,0.0,0.0,0.0,0.0,0.0,0.0,0.0,0.0,0.0,0.0,0.0,0.0,0.0,0.0,0.0,0.0,0.0,0.0,0.0,0.0,0.0,0.0,0.0,0.0,3.4216,0.0,0.0,0.0,0.0,0.0,0.0,0.0,0.0,0.0,0.0,0.0,0.0,0.0,0.0,0.0,0.0,0.0,0.0,0.0,0.0,0.0,0.0,0.0,0.0,0.0,0.0,0.0,0.0,0.0,0.0,0.0,0.0,0.0,0.0,0.0,0.0,0.0,0.0,0.0,0.0,0.0,0.0,0.0,0.0,0.0,0.0,0.0,0.0,0.0,0.0,0.0,0.0,0.0,0.0,0.0,0.0,0.0,0.0,0.0,0.0,0.0,0.0,0.0,0.0,0.0,0.0,0.0,0.0,0.0,0.0,0.0,0.0,0.0,0.0,0.0,0.0,0.0,0.0,0.0,0.0,0.0,0.0,0.0,0.0,0.0,0.0,0.0,0.0,0.0,0.0,0.0,0.0,0.0,0.0,0.0,0.0,0.0,0.0,0.0,0.0,0.0,0.0,0.0,0.0,0.0,0.0,0.0,0.0,0.0,0.0,3.4216,3.4216,3.4216,3.4216,3.4216,0.0,0.0,0.0,0.0,0.0,0.0,0.0,0.0,0.0,0.0,0.0,0.0,0.0,0.0,0.0,0.0,0.0,0.0,0.0,0.0,0.0,0.0,0.0,0.0,0.0,0.0,0.0,0.0,0.0,0.0,0.0,0.0,0.0,0.0,0.0,0.0,0.0,0.0,0.0,0.0,0.0,0.0,0.0,0.0,0.0,0.0,0.0,0.0,0.0,0.0,0.0,0.0,0.0,0.0,0.0,0.0,0.0,0.0,0.0,0.0,0.0,0.0,0.0,0.0,0.0,0.0,0.0,0.0,0.0,0.0,0.0,0.0,0.0,0.0,0.0,0.0,0.0,0.0,0.0,0.0,0.0,0.0,0.0,0.0,0.0,0.0,0.0,0.0,0.0,0.0,0.0,0.0,0.0,0.0,0.0,0.0,0.0,0.0,0.0,0.0,0.0,0.0,0.0,0.0,0.0,0.0,0.0,0.0,0.0,0.0,0.0,0.0,3.4154,3.4161,3.4154,0.0,0.0,0.0,0.0,0.0,0.0,0.0,0.0,0.0,0.0,0.0,0.0,0.0,0.0,0.0,0.0,0.0,0.0,0.0,0.0,0.0,0.0,0.0,0.0,0.0,0.0,0.0,0.0,0.0,0.0,0.0,0.0,0.0,0.0,0.0,0.0,0.0,0.0,0.0,0.0,0.0,0.0,0.0,0.0,0.0,0.0,0.0,0.0,0.0,0.0,0.0,0.0,0.0,0.0,0.0,0.0,0.0,0.0,0.0,0.0,0.0,0.0,0.0,0.0,0.0,0.0,0.0,0.0,0.0,0.0,0.0,0.0,0.0,0.0,0.0,0.0,0.0,0.0,0.0,0.0,0.0,0.0,0.0,0.0,0.0,0.0,0.0,0.0,0.0,0.0,0.0,0.0,0.0,0.0,0.0,0.0,0.0,0.0,0.0,0.0,0.0,0.0,0.0,0.0,0.0,0.0,0.0,0.0,0.0,0.0,3.4023,3.4017,3.4017,0.0,3.4017,0.0,0.0,0.0,0.0,0.0,0.0,0.0,0.0,0.0,0.0,0.0,0.0,0.0,0.0,0.0,0.0,0.0,0.0,0.0,0.0,0.0,0.0,0.0,0.0,0.0,0.0,0.0,0.0,0.0,0.0,0.0,0.0,0.0,0.0,0.0,0.0,0.0,0.0,0.0,0.0,0.0,0.0,0.0,0.0,0.0,0.0,0.0,0.0,0.0,0.0,0.0,0.0,0.0,0.0,0.0,0.0,0.0,0.0,0.0,0.0,0.0,0.0,0.0,0.0,0.0,0.0,0.0,0.0,0.0,0.0,0.0,0.0,0.0,0.0,0.0,0.0,0.0,0.0,0.0,0.0,0.0,0.0,0.0,0.0,0.0,0.0,0.0,0.0,0.0,0.0,0.0,0.0,0.0,0.0,0.0,0.0,0.0,0.0,0.0,0.0,0.0,0.0,0.0,0.0,0.0,0.0,0.0,0.0,0.0,0.0,3.4004,3.4004,3.3959,3.3725,0.0,0.0,0.0,0.0,0.0,0.0,0.0,0.0,0.0,0.0,0.0,0.0,0.0,0.0,0.0,0.0,0.0,0.0,0.0,0.0,0.0,0.0,0.0,0.0,0.0,0.0,0.0,0.0,0.0,0.0,0.0,0.0,0.0,0.0,0.0,0.0,0.0,0.0,0.0,0.0,0.0,0.0,0.0,0.0,0.0,0.0,0.0,0.0,0.0,0.0,0.0,0.0,0.0,0.0,0.0,0.0,0.0,0.0,0.0,0.0,0.0,0.0,0.0,0.0,0.0,0.0,0.0,0.0,0.0,0.0,0.0,0.0,0.0,0.0,0.0,0.0,0.0,0.0,0.0,0.0,0.0,0.0,0.0,0.0,0.0,0.0,0.0,0.0,0.0,0.0,0.0,0.0,0.0,0.0,0.0,0.0,0.0,0.0,0.0,0.0,0.0,0.0,0.0,0.0,0.0,0.0,0.0,0.0,0.0,0.0,3.3835,3.39,3.3863,3.3621,3.3203,3.2608,0.0,0.0,0.0,0.0,0.0,0.0,0.0,0.0,0.0,0.0,0.0,0.0,0.0,0.0,0.0,0.0,0.0,0.0,0.0,0.0,0.0,0.0,0.0,0.0,0.0,0.0,0.0,0.0,0.0,0.0,0.0,0.0,0.0,0.0,0.0,0.0,0.0,0.0,0.0,0.0,0.0,0.0,0.0,0.0,0.0,0.0,0.0,0.0,0.0,0.0,0.0,0.0,0.0,0.0,0.0,0.0,0.0,0.0,0.0,0.0,0.0,0.0,0.0,0.0,0.0,0.0,0.0,0.0,0.0,0.0,0.0,0.0,0.0,0.0,0.0,0.0,0.0,0.0,0.0,0.0,0.0,0.0,0.0,0.0,0.0,0.0,0.0,0.0,0.0,0.0,0.0,0.0,0.0,0.0,0.0,0.0,0.0,0.0,0.0,0.0,0.0,0.0,0.0,0.0,0.0,0.0,0.0,0.0,3.3612,3.3626,3.3626,3.3597,3.2878,3.2413,0.0,0.0,0.0,0.0,0.0,0.0,0.0,0.0,0.0,0.0,0.0,0.0,0.0,0.0,0.0,0.0,0.0,0.0,0.0,0.0,0.0,0.0,0.0,0.0,0.0,0.0,0.0,0.0,0.0,0.0,0.0,0.0,0.0,0.0,0.0,0.0,0.0,0.0,0.0,0.0,0.0,0.0,0.0,0.0,0.0,0.0,0.0,0.0,0.0,0.0,0.0,0.0,0.0,0.0,0.0,0.0,0.0,0.0,0.0,0.0,0.0,0.0,0.0,0.0,0.0,0.0,0.0,0.0,0.0,0.0,0.0,0.0,0.0,0.0,0.0,0.0,0.0,0.0,0.0,0.0,0.0,0.0,0.0,0.0,0.0,0.0,0.0,0.0,0.0,0.0,0.0,0.0,0.0,0.0,0.0,0.0,0.0,0.0,0.0,0.0,0.0,0.0,0.0,0.0,0.0,0.0,0.0,0.0,0.0,3.3418,3.3477,3.3574,3.358,3.2738,3.2021,0.0,0.0,0.0,0.0,0.0,0.0,0.0,0.0,0.0,0.0,0.0,0.0,0.0,0.0,0.0,0.0,0.0,0.0,0.0,0.0,0.0,0.0,0.0,0.0,0.0,0.0,0.0,0.0,0.0,0.0,0.0,0.0,0.0,0.0,0.0,0.0,0.0,0.0,0.0,0.0,0.0,0.0,0.0,0.0,0.0,0.0,0.0,0.0,0.0,0.0,0.0,0.0,0.0,0.0,0.0,0.0,0.0,0.0,0.0,0.0,0.0,0.0,0.0,0.0,0.0,0.0,0.0,0.0,0.0,0.0,0.0,0.0,0.0,0.0,0.0,0.0,0.0,0.0,0.0,0.0,0.0,0.0,0.0,0.0,0.0,0.0,0.0,0.0,0.0,0.0,0.0,0.0,0.0,0.0,0.0,0.0,0.0,0.0,0.0,0.0,0.0,0.0,0.0,0.0,0.0,0.0,0.0,0.0,0.0,3.3209,0.0,3.3397,0.0,3.2321,3.1473,0.0,0.0,0.0,0.0,0.0,0.0,0.0,0.0,0.0,0.0,0.0,0.0,0.0,0.0,0.0,0.0,0.0,0.0,0.0,0.0,0.0,0.0,0.0,0.0,0.0,0.0,0.0,0.0,0.0,0.0,0.0,0.0,0.0,0.0,0.0,0.0,0.0,0.0,0.0,0.0,0.0,0.0,0.0,0.0,0.0,0.0,0.0,0.0,0.0,0.0,0.0,0.0,0.0,0.0,0.0,0.0,0.0,0.0,0.0,0.0,0.0,0.0,0.0,0.0,0.0,0.0,0.0,0.0,0.0,0.0,0.0,0.0,0.0,0.0,0.0,0.0,0.0,0.0,0.0,0.0,0.0,0.0,0.0,0.0,0.0,0.0,0.0,0.0,0.0,0.0,0.0,0.0,0.0,0.0,0.0,0.0,0.0,0.0,0.0,0.0,0.0,0.0,0.0,0.0,0.0,0.0,0.0,0.0,3.296,3.3031,3.3127,3.3209,3.3076,3.1699,3.0797,0.0,0.0,0.0,0.0,0.0,0.0,0.0,0.0,0.0,0.0,0.0,0.0,0.0,0.0,0.0,0.0,0.0,0.0,0.0,0.0,0.0,0.0,0.0,0.0,0.0,0.0,0.0,0.0,0.0,0.0,0.0,0.0,0.0,0.0,0.0,0.0,0.0,0.0,0.0,0.0,0.0,0.0,0.0,0.0,0.0,0.0,0.0,0.0,0.0,0.0,0.0,0.0,0.0,0.0,0.0,0.0,0.0,0.0,0.0,0.0,0.0,0.0,0.0,0.0,0.0,0.0,0.0,0.0,0.0,0.0,0.0,0.0,0.0,0.0,0.0,0.0,0.0,0.0,0.0,0.0,0.0,0.0,0.0,0.0,0.0,0.0,0.0,0.0,0.0,0.0,0.0,0.0,0.0,0.0,0.0,0.0,0.0,0.0,0.0,0.0,0.0,0.0,0.0,0.0,0.0,0.0,0.0,0.0,0.0,3.3648,3.4182,3.4223,3.3708,3.268,3.1581,0.0,0.0,0.0,0.0,0.0,0.0,0.0,0.0,0.0,0.0,0.0,0.0,0.0,0.0,0.0,0.0,0.0,0.0,0.0,0.0,0.0,0.0,0.0,0.0,0.0,0.0,0.0,0.0,0.0,0.0,0.0,0.0,0.0,0.0,0.0,0.0,0.0,0.0,0.0,0.0,0.0,0.0,0.0,0.0,0.0,0.0,0.0,0.0,0.0,0.0,0.0,0.0,0.0,0.0,0.0,0.0,0.0,0.0,0.0,0.0,0.0,0.0,0.0,0.0,0.0,0.0,0.0,0.0,0.0,0.0,0.0,0.0,0.0,0.0,0.0,0.0,0.0,0.0,0.0,0.0,0.0,0.0,0.0,0.0,0.0,0.0,0.0,0.0,0.0,0.0,0.0,0.0,0.0,0.0,0.0,0.0,0.0,0.0,0.0,0.0,0.0,0.0,0.0,0.0,0.0,0.0,0.0,0.0,0.0,3.6207,3.6504,3.6314,3.558,3.4482,3.2899,3.0792,0.0,0.0,0.0,0.0,0.0,0.0,0.0,0.0,0.0,0.0,0.0,0.0,0.0,0.0,0.0,0.0,0.0,0.0,0.0,0.0,0.0,0.0,0.0,0.0,0.0,0.0,0.0,0.0,0.0,0.0,0.0,0.0,0.0,0.0,0.0,0.0,0.0,0.0,0.0,0.0,0.0,0.0,0.0,0.0,0.0,0.0,0.0,0.0,0.0,0.0,0.0,0.0,0.0,0.0,0.0,0.0,0.0,0.0,0.0,0.0,0.0,0.0,0.0,0.0,0.0,0.0,0.0,0.0,0.0,0.0,0.0,0.0,0.0,0.0,0.0,0.0,0.0,0.0,0.0,0.0,0.0,0.0,0.0,0.0,0.0,0.0,0.0,0.0,0.0,0.0,0.0,0.0,0.0,0.0,0.0,0.0,0.0,0.0,0.0,0.0,0.0,0.0,0.0,0.0,0.0,0.0,0.0,0.0,4.0433,4.0099,3.9484,3.8518,3.6972,3.4662,0.0,0.0,0.0,0.0,0.0,0.0,0.0,0.0,0.0,0.0,0.0,0.0,0.0,0.0,0.0,0.0,0.0,0.0,0.0,0.0,0.0,0.0,0.0,0.0,0.0,0.0,0.0,0.0,0.0,0.0,0.0,0.0,0.0,0.0,0.0,0.0,0.0,0.0,0.0,0.0,0.0,0.0,0.0,0.0,0.0,0.0,0.0,0.0,0.0,0.0,0.0,0.0,0.0,0.0,0.0,0.0,0.0,0.0,0.0,0.0,0.0,0.0,0.0,0.0,0.0,0.0,0.0,0.0,0.0,0.0,0.0,0.0,0.0,0.0,0.0,0.0,0.0,0.0,0.0,0.0,0.0,0.0,0.0,0.0,0.0,0.0,0.0,0.0,0.0,0.0,0.0,0.0,0.0,0.0,0.0,0.0,0.0,0.0,0.0,0.0,0.0,0.0,0.0,0.0,0.0,0.0,0.0,0.0,0.0,4.4768,4.6438,4.563,4.2213,4.0046,3.7502,0.0,0.0,0.0,0.0,0.0,0.0,0.0,0.0,0.0,0.0,0.0,0.0,0.0,0.0,0.0,0.0,0.0,0.0,0.0,0.0,0.0,0.0,0.0,0.0,0.0,0.0,0.0,0.0,0.0,0.0,0.0,0.0,0.0,0.0,0.0,0.0,0.0,0.0,0.0,0.0,0.0,0.0,0.0,0.0,0.0,0.0,0.0,0.0,0.0,0.0,0.0,0.0,0.0,0.0,0.0,0.0,0.0,0.0,0.0,0.0,0.0,0.0,0.0,0.0,0.0,0.0,0.0,0.0,0.0,0.0,0.0,0.0,0.0,0.0,0.0,0.0,0.0,0.0,0.0,0.0,0.0,0.0,0.0,0.0,0.0,0.0,0.0,0.0,0.0,0.0,0.0,0.0,0.0,0.0,0.0,0.0,0.0,0.0,0.0,0.0,0.0,0.0,0.0,0.0,0.0,0.0,0.0,0.0,4.2748,4.6531,4.9792,5.0089,4.7234,4.3393,3.9521,0.0,0.0,0.0,0.0,0.0,0.0,0.0,0.0,0.0,0.0,0.0,0.0,0.0,0.0,0.0,0.0,0.0,0.0,0.0,0.0,0.0,0.0,0.0,0.0,0.0,0.0,0.0,0.0,0.0,0.0,0.0,0.0,0.0,0.0,0.0,0.0,0.0,0.0,0.0,0.0,0.0,0.0,0.0,0.0,0.0,0.0,0.0,0.0,0.0,0.0,0.0,0.0,0.0,0.0,0.0,0.0,0.0,0.0,0.0,0.0,0.0,0.0,0.0,0.0,0.0,0.0,0.0,0.0,0.0,0.0,0.0,0.0,0.0,0.0,0.0,0.0,0.0,0.0,0.0,0.0,0.0,0.0,0.0,0.0,0.0,0.0,0.0,0.0,0.0,0.0,0.0,0.0,0.0,0.0,0.0,0.0,0.0,0.0,0.0,0.0,0.0,0.0,0.0,0.0,0.0,0.0,0.0,0.0,4.3768,4.691,5.1166,5.2996,5.2082,4.6646,4.1225,0.0,0.0,0.0,0.0,0.0,0.0,0.0,0.0,0.0,0.0,0.0,0.0,0.0,0.0,0.0,0.0,0.0,0.0,0.0,0.0,0.0,0.0,0.0,0.0,0.0,0.0,0.0,0.0,0.0,0.0,0.0,0.0,0.0,0.0,0.0,0.0,0.0,0.0,0.0,0.0,0.0,0.0,0.0,0.0,0.0,0.0,0.0,0.0,0.0,0.0,0.0,0.0,0.0,0.0,0.0,0.0,0.0,0.0,0.0,0.0,0.0,0.0,0.0,0.0,0.0,0.0,0.0,0.0,0.0,0.0,0.0,0.0,0.0,0.0,0.0,0.0,0.0,0.0,0.0,0.0,0.0,0.0,0.0,0.0,0.0,0.0,0.0,0.0,0.0,0.0,0.0,0.0,0.0,0.0,0.0,0.0,0.0,0.0,0.0,0.0,0.0,0.0,0.0,0.0,0.0,0.0,0.0,0.0,4.5575,4.9217,5.1977,5.3013,5.2203,4.8096,4.3961,0.0,0.0,0.0,0.0,0.0,0.0,0.0,0.0,0.0,0.0,0.0,0.0,0.0,0.0,0.0,0.0,0.0,0.0,0.0,0.0,0.0,0.0,0.0,0.0,0.0,0.0,0.0,0.0,0.0,0.0,0.0,0.0,0.0,0.0,0.0,0.0,0.0,0.0,0.0,0.0,0.0,0.0,0.0,0.0,0.0,0.0,0.0,0.0,3.5448,0.0,0.0,0.0,0.0,0.0,0.0,0.0,0.0,0.0,0.0,0.0,0.0,0.0,0.0,0.0,0.0,0.0,0.0,0.0,0.0,0.0,0.0,0.0,0.0,0.0,0.0,0.0,0.0,0.0,0.0,0.0,0.0,0.0,0.0,0.0,0.0,0.0,0.0,0.0,0.0,0.0,0.0,0.0,0.0,0.0,0.0,0.0,0.0,0.0,0.0,0.0,0.0,0.0,0.0,0.0,0.0,0.0,0.0,0.0,4.6144,4.9907,5.2218,5.3028,5.2134,4.8893,4.5165,0.0,0.0,0.0,0.0,0.0,0.0,0.0,0.0,0.0,0.0,0.0,0.0,0.0,0.0,0.0,0.0,0.0,0.0,0.0,0.0,0.0,0.0,0.0,0.0,0.0,0.0,0.0,0.0,0.0,0.0,0.0,0.0,0.0,0.0,0.0,0.0,0.0,0.0,0.0,0.0,0.0,0.0,0.0,0.0,0.0,0.0,0.0,0.0,0.0,0.0,0.0,0.0,0.0,0.0,0.0,0.0,0.0,0.0,0.0,0.0,0.0,0.0,0.0,0.0,0.0,0.0,0.0,0.0,0.0,0.0,0.0,0.0,0.0,0.0,0.0,0.0,0.0,0.0,0.0,0.0,0.0,0.0,0.0,0.0,0.0,0.0,0.0,0.0,0.0,0.0,0.0,0.0,0.0,0.0,0.0,0.0,0.0,0.0,0.0,0.0,0.0,0.0,0.0,0.0,0.0,0.0,0.0,4.2573,4.6303,4.9703,5.2046,5.2787,5.1858,4.9048,4.5427,4.1032,0.0,0.0,0.0,0.0,0.0,0.0,0.0,0.0,0.0,0.0,0.0,0.0,0.0,0.0,0.0,0.0,0.0,0.0,0.0,0.0,0.0,0.0,0.0,0.0,0.0,0.0,0.0,0.0,0.0,0.0,0.0,0.0,0.0,0.0,0.0,0.0,0.0,0.0,3.2195,3.4215,0.0,0.0,0.0,0.0,0.0,0.0,0.0,0.0,3.7052,0.0,0.0,0.0,0.0,0.0,0.0,0.0,0.0,0.0,0.0,0.0,0.0,0.0,0.0,0.0,0.0,0.0,0.0,0.0,0.0,0.0,0.0,0.0,0.0,0.0,0.0,0.0,0.0,0.0,0.0,0.0,0.0,0.0,0.0,0.0,0.0,0.0,0.0,0.0,0.0,0.0,0.0,0.0,0.0,0.0,0.0,0.0,0.0,0.0,0.0,0.0,0.0,0.0,0.0,0.0,0.0,3.8571,4.3613,4.7134,4.8979,5.122,5.1755,5.0373,4.8045,4.4941,4.1032,0.0,0.0,0.0,0.0,0.0,0.0,0.0,0.0,0.0,0.0,0.0,0.0,0.0,0.0,0.0,0.0,0.0,0.0,0.0,0.0,0.0,0.0,0.0,0.0,0.0,0.0,0.0,0.0,0.0,0.0,0.0,0.0,0.0,0.0,0.0,0.0,0.0,0.0,0.0,3.5237,3.6321,0.0,0.0,0.0,0.0,0.0,0.0,0.0,0.0,3.8017,0.0,0.0,0.0,0.0,0.0,0.0,0.0,0.0,0.0,0.0,0.0,0.0,0.0,0.0,0.0,0.0,0.0,0.0,0.0,0.0,0.0,0.0,0.0,0.0,0.0,0.0,0.0,0.0,0.0,0.0,0.0,0.0,0.0,0.0,0.0,0.0,0.0,0.0,0.0,0.0,0.0,0.0,0.0,0.0,0.0,0.0,0.0,0.0,0.0,0.0,0.0,0.0,0.0,0.0,0.0,3.9813,4.4665,4.8082,4.9962,5.1444,5.1496,5.0011,4.7393,4.4169,0.0,0.0,0.0,0.0,0.0,0.0,0.0,0.0,0.0,0.0,0.0,0.0,0.0,0.0,0.0,0.0,0.0,0.0,0.0,0.0,0.0,0.0,0.0,0.0,0.0,0.0,0.0,0.0,0.0,0.0,0.0,0.0,0.0,0.0,0.0,0.0,0.0,0.0,0.0,0.0,3.6925,3.83,4.073,0.0,0.0,0.0,0.0,0.0,0.0,4.0149,3.9769,0.0,0.0,0.0,0.0,0.0,0.0,0.0,0.0,0.0,0.0,0.0,0.0,0.0,0.0,0.0,0.0,0.0,0.0,0.0,0.0,0.0,0.0,0.0,0.0,0.0,0.0,0.0,0.0,0.0,0.0,0.0,0.0,0.0,0.0,0.0,0.0,0.0,0.0,0.0,0.0,0.0,0.0,0.0,0.0,0.0,0.0,0.0,0.0,0.0,0.0,0.0,0.0,0.0,0.0,0.0,4.0641,4.532,4.8582,5.0358,5.1306,5.1048,4.9545,4.6548,4.3233,0.0,0.0,0.0,0.0,0.0,0.0,0.0,0.0,0.0,0.0,0.0,0.0,0.0,0.0,0.0,0.0,0.0,0.0,0.0,0.0,0.0,0.0,0.0,0.0,0.0,0.0,0.0,0.0,0.0,0.0,0.0,0.0,0.0,0.0,0.0,0.0,0.0,0.0,0.0,0.0,0.0,4.0165,4.2746,4.1708,0.0,0.0,0.0,0.0,4.1096,4.1872,0.0,0.0,0.0,0.0,0.0,0.0,0.0,0.0,0.0,0.0,0.0,0.0,0.0,0.0,0.0,0.0,0.0,0.0,0.0,0.0,0.0,0.0,0.0,0.0,0.0,0.0,0.0,0.0,0.0,0.0,0.0,0.0,0.0,0.0,0.0,0.0,0.0,0.0,0.0,0.0,0.0,0.0,0.0,0.0,0.0,0.0,0.0,0.0,0.0,0.0,0.0,0.0,0.0,0.0,0.0,0.0,3.9899,4.5044,4.7841,4.8151,4.951,4.9545,4.7979,4.504,4.1969,0.0,0.0,0.0,0.0,0.0,0.0,0.0,0.0,0.0,0.0,0.0,0.0,0.0,0.0,0.0,0.0,0.0,0.0,0.0,0.0,0.0,0.0,0.0,0.0,0.0,0.0,0.0,0.0,0.0,0.0,0.0,0.0,0.0,0.0,0.0,0.0,0.0,0.0,0.0,0.0,0.0,4.037,4.3528,4.2527,4.1672,0.0,0.0,0.0,4.3485,4.4357,0.0,0.0,0.0,0.0,0.0,0.0,0.0,0.0,0.0,0.0,0.0,0.0,0.0,0.0,0.0,0.0,0.0,0.0,0.0,0.0,0.0,0.0,0.0,0.0,0.0,0.0,0.0,0.0,0.0,0.0,0.0,0.0,0.0,0.0,0.0,0.0,0.0,0.0,0.0,0.0,0.0,0.0,0.0,0.0,0.0,0.0,0.0,0.0,0.0,0.0,0.0,0.0,0.0,0.0,0.0,3.7335,4.0434,4.5203,4.7703,4.772,4.8772,4.86,4.71,4.4096,4.1291,0.0,0.0,0.0,0.0,0.0,0.0,0.0,0.0,0.0,0.0,0.0,0.0,0.0,0.0,0.0,0.0,0.0,0.0,0.0,0.0,0.0,0.0,0.0,0.0,0.0,0.0,0.0,0.0,0.0,0.0,0.0,0.0,0.0,0.0,0.0,0.0,0.0,0.0,0.0,0.0,0.0,0.0,4.383,4.3877,0.0,0.0,0.0,4.4153,4.4023,0.0,0.0,0.0,0.0,0.0,0.0,0.0,0.0,0.0,0.0,0.0,0.0,0.0,0.0,0.0,0.0,0.0,0.0,0.0,0.0,0.0,0.0,0.0,0.0,0.0,0.0,0.0,0.0,0.0,0.0,0.0,0.0,0.0,0.0,0.0,0.0,0.0,0.0,0.0,0.0,0.0,0.0,0.0,0.0,0.0,0.0,0.0,0.0,0.0,0.0,0.0,0.0,0.0,0.0,0.0,0.0,0.0,4.0912,4.5199,4.741,4.7445,4.7962,4.772,4.6583,4.3815,0.0,0.0,0.0,0.0,0.0,0.0,0.0,0.0,0.0,0.0,0.0,0.0,0.0,0.0,0.0,0.0,0.0,0.0,0.0,0.0,0.0,0.0,0.0,0.0,0.0,0.0,0.0,2.9594,0.0,0.0,0.0,0.0,0.0,0.0,0.0,0.0,0.0,0.0,0.0,0.0,0.0,0.0,4.2456,4.4281,4.5129,4.5685,0.0,0.0,4.5443,4.4989,4.6182,4.6097,0.0,0.0,0.0,0.0,0.0,0.0,0.0,0.0,0.0,0.0,0.0,0.0,0.0,0.0,0.0,0.0,0.0,0.0,0.0,0.0,0.0,0.0,0.0,0.0,0.0,0.0,0.0,0.0,0.0,0.0,0.0,0.0,0.0,0.0,0.0,0.0,0.0,0.0,0.0,0.0,0.0,0.0,0.0,0.0,0.0,0.0,0.0,0.0,0.0,0.0,0.0,0.0,0.0,0.0,0.0,4.09,4.4699,4.6669,4.6686,4.672,4.6703,4.6565,4.4333,4.1705,0.0,0.0,0.0,0.0,0.0,0.0,0.0,0.0,0.0,0.0,0.0,0.0,0.0,0.0,0.0,0.0,0.0,0.0,0.0,0.0,0.0,0.0,0.0,0.0,0.0,0.0,0.0,0.0,0.0,0.0,0.0,0.0,0.0,0.0,0.0,0.0,0.0,0.0,0.0,0.0,0.0,4.268,4.5084,4.6004,4.668,0.0,0.0,4.6669,4.733,4.8147,4.7677,4.4532,0.0,0.0,0.0,0.0,0.0,0.0,0.0,0.0,0.0,0.0,0.0,0.0,0.0,0.0,0.0,0.0,0.0,0.0,0.0,0.0,0.0,0.0,0.0,0.0,0.0,0.0,0.0,0.0,0.0,0.0,0.0,0.0,0.0,0.0,0.0,0.0,0.0,0.0,0.0,0.0,0.0,0.0,0.0,0.0,0.0,0.0,0.0,0.0,0.0,0.0,0.0,0.0,0.0,3.7697,4.0764,4.3958,4.5657,4.5734,4.5734,4.5778,4.5862,4.4126,4.2189,0.0,0.0,0.0,0.0,0.0,0.0,0.0,0.0,0.0,0.0,0.0,0.0,0.0,0.0,0.0,0.0,0.0,0.0,0.0,0.0,0.0,0.0,0.0,0.0,0.0,0.0,0.0,0.0,3.6774,3.719,3.6682,0.0,0.0,0.0,0.0,0.0,0.0,0.0,0.0,0.0,0.0,4.3431,4.5847,4.6783,0.0,0.0,4.7441,4.7179,4.7051,4.7684,4.7164,4.4034,4.259,0.0,0.0,0.0,0.0,0.0,0.0,0.0,0.0,0.0,0.0,0.0,0.0,0.0,0.0,0.0,0.0,0.0,0.0,0.0,0.0,0.0,0.0,0.0,0.0,0.0,0.0,0.0,0.0,0.0,0.0,0.0,0.0,0.0,0.0,0.0,0.0,0.0,0.0,0.0,0.0,0.0,0.0,0.0,0.0,0.0,0.0,0.0,0.0,0.0,0.0,0.0,0.0,3.7848,4.068,4.3536,4.5046,4.514,4.5136,4.5224,4.5292,4.4337,4.2967,0.0,0.0,0.0,0.0,0.0,0.0,0.0,0.0,0.0,0.0,0.0,0.0,0.0,0.0,0.0,0.0,0.0,0.0,0.0,0.0,0.0,0.0,0.0,0.0,0.0,0.0,0.0,0.0,3.8196,3.8169,3.6898,0.0,0.0,0.0,0.0,0.0,0.0,0.0,0.0,0.0,0.0,4.4393,4.6329,4.7018,4.7357,4.7363,4.7167,4.6857,4.636,4.6741,4.6277,4.3832,0.0,0.0,0.0,0.0,0.0,0.0,0.0,0.0,0.0,0.0,0.0,0.0,0.0,0.0,0.0,0.0,0.0,0.0,0.0,0.0,0.0,0.0,0.0,0.0,0.0,0.0,0.0,0.0,0.0,0.0,0.0,0.0,0.0,0.0,0.0,0.0,0.0,0.0,0.0,0.0,0.0,0.0,0.0,0.0,0.0,0.0,0.0,0.0,0.0,0.0,0.0,0.0,0.0,0.0,4.0697,4.3523,4.4991,4.4991,4.5005,4.5042,4.5207,4.5169,4.4139,4.2009,0.0,0.0,0.0,0.0,0.0,0.0,0.0,0.0,0.0,0.0,0.0,0.0,0.0,0.0,0.0,0.0,0.0,0.0,0.0,0.0,0.0,0.0,0.0,0.0,0.0,0.0,3.5849,3.8046,3.855,0.0,0.0,0.0,0.0,0.0,0.0,0.0,0.0,0.0,0.0,4.3733,4.5576,4.6448,4.6551,4.6537,4.6637,4.5991,4.5474,4.5536,4.557,4.5234,0.0,0.0,0.0,0.0,0.0,0.0,0.0,0.0,0.0,0.0,0.0,0.0,0.0,0.0,0.0,0.0,0.0,0.0,0.0,0.0,0.0,0.0,0.0,0.0,0.0,0.0,0.0,0.0,3.0153,0.0,0.0,0.0,0.0,0.0,0.0,0.0,0.0,0.0,0.0,0.0,3.4086,3.4263,0.0,0.0,0.0,0.0,0.0,0.0,0.0,0.0,0.0,0.0,0.0,0.0,3.819,4.0458,4.3276,4.4762,4.4872,4.4872,4.494,4.5073,4.5154,4.4191,4.2073,0.0,0.0,0.0,0.0,0.0,0.0,0.0,0.0,0.0,0.0,0.0,0.0,0.0,0.0,0.0,0.0,0.0,0.0,0.0,0.0,0.0,0.0,0.0,0.0,0.0,3.7003,0.0,0.0,0.0,0.0,0.0,0.0,0.0,0.0,0.0,0.0,0.0,4.0866,4.2554,4.3684,4.4663,4.5479,4.5574,4.5805,0.0,0.0,0.0,0.0,0.0,0.0,0.0,0.0,0.0,0.0,0.0,0.0,0.0,0.0,3.787,3.7091,3.7349,3.777,3.804,0.0,0.0,0.0,0.0,0.0,0.0,0.0,0.0,0.0,0.0,0.0,0.0,0.0,0.0,0.0,0.0,3.1583,0.0,0.0,0.0,0.0,0.0,0.0,0.0,0.0,3.5747,3.6457,3.6146,3.6326,3.6578,0.0,3.6388,3.5136,0.0,0.0,0.0,0.0,0.0,0.0,0.0,0.0,3.8573,4.0339,4.3129,4.464,4.4737,4.4737,4.4806,4.4927,4.5113,4.4586,4.3221,4.2228,4.0464,0.0,0.0,0.0,0.0,0.0,0.0,0.0,0.0,0.0,0.0,0.0,0.0,0.0,0.0,0.0,0.0,0.0,0.0,0.0,0.0,0.0,0.0,0.0,3.7949,0.0,0.0,0.0,0.0,0.0,0.0,0.0,0.0,0.0,3.9093,4.0841,4.2384,4.32,4.399,4.4428,4.4196,0.0,0.0,0.0,0.0,0.0,0.0,0.0,4.4132,4.3306,4.3952,4.4423,4.3927,4.3421,4.2989,4.2693,0.0,0.0,4.0143,4.0013,4.0229,4.0506,4.0562,4.0657,4.0964,4.1021,4.1109,0.0,0.0,0.0,0.0,0.0,0.0,0.0,0.0,3.3873,3.3834,0.0,3.4,0.0,0.0,0.0,0.0,0.0,0.0,0.0,0.0,3.8874,3.9554,3.8222,3.8755,3.8754,3.8197,3.8188,3.786,3.7201,3.6211,0.0,0.0,0.0,0.0,0.0,0.0,3.9549,4.0445,4.3179,4.4584,4.4598,4.4598,4.4685,4.4803,4.5059,4.5243,4.5328,4.3992,4.2933,4.2177,3.8665,0.0,0.0,0.0,0.0,0.0,0.0,0.0,0.0,0.0,0.0,0.0,0.0,0.0,0.0,0.0,0.0,0.0,0.0,0.0,0.0,3.7678,0.0,0.0,0.0,0.0,0.0,0.0,0.0,0.0,0.0,0.0,4.0024,4.2046,4.3472,4.3412,0.0,0.0,0.0,0.0,4.5053,4.3237,4.362,4.3931,4.3285,4.3869,4.4643,4.5269,0.0,0.0,4.7058,4.5798,4.4564,4.3836,4.4222,4.4166,4.2687,4.1807,4.1486,4.2115,4.2316,4.2611,4.3315,4.3453,4.3699,3.5034,0.0,0.0,0.0,0.0,3.3598,3.4706,3.6109,3.6441,3.6429,3.6186,3.5772,0.0,0.0,0.0,0.0,0.0,0.0,3.6569,3.7372,3.8726,3.9238,3.9036,3.9231,3.9477,3.9791,3.9305,3.9495,4.0325,3.9614,3.7944,3.5464,0.0,0.0,0.0,0.0,4.0298,4.1747,4.3616,4.4584,4.4584,4.4584,4.4668,4.4789,4.4968,4.5113,4.523,4.4944,4.4195,4.2938,4.1332,0.0,0.0,0.0,0.0,0.0,0.0,0.0,0.0,0.0,0.0,0.0,0.0,0.0,0.0,0.0,0.0,0.0,0.0,0.0,3.837,3.8697,3.8466,0.0,0.0,0.0,0.0,0.0,0.0,0.0,0.0,0.0,4.2859,4.3096,4.336,0.0,0.0,4.3488,4.2357,4.3358,4.4277,4.4371,0.0,0.0,0.0,4.514,4.4957,4.5533,4.6696,4.7511,4.7274,4.6884,4.6731,4.702,4.6525,4.6034,4.6127,4.5183,4.4281,4.398,4.4281,4.4739,4.5009,4.5066,4.5303,3.8158,3.6678,3.4993,3.4541,3.5049,3.5861,3.6632,3.7393,3.8069,3.7941,3.7246,3.7131,3.6441,3.5414,3.5269,0.0,0.0,0.0,3.791,3.8402,3.9407,3.9848,3.9798,3.9795,4.0019,4.0436,4.0092,4.022,4.0775,4.0595,3.9452,3.7431,0.0,0.0,3.7511,3.9415,4.0893,4.1936,4.3681,4.4584,4.4584,4.4584,4.4668,4.4789,4.4869,4.4978,4.5113,4.5247,4.4901,4.4031,4.3026,4.132,0.0,0.0,0.0,0.0,0.0,0.0,0.0,0.0,0.0,0.0,0.0,3.1958,0.0,0.0,0.0,0.0,3.7898,3.9252,4.0268,4.0051,0.0,0.0,0.0,0.0,0.0,0.0,0.0,3.9694,4.1405,4.3005,4.4039,4.3793,4.3735,4.4377,4.413,4.353,4.2622,0.0,4.4738,4.4806,4.4605,4.4947,4.6312,4.6136,4.604,4.6733,4.7483,4.7971,4.7857,4.7678,4.7583,4.7513,4.7046,4.6613,4.6765,4.6612,4.6151,4.5103,4.5458,4.6008,4.6053,4.6308,4.6828,4.075,4.1047,3.7872,3.6711,3.7043,3.7957,3.8347,3.8405,3.9015,3.867,3.7766,3.8099,3.7777,3.6943,3.7118,0.0,0.0,3.8785,3.9339,3.9279,4.0685,4.1036,4.0468,4.0453,4.0453,4.0494,4.0664,4.0338,3.9649,4.0083,3.9977,3.9398,3.988,3.9366,3.8031,4.0143,4.1352,4.1468,4.3456,4.4494,4.4514,4.457,4.4637,4.4762,4.4806,4.4858,4.4995,4.5113,4.5177,4.5142,4.4019,4.2945,4.2014,0.0,0.0,0.0,0.0,0.0,0.0,0.0,0.0,0.0,0.0,0.0,0.0,0.0,0.0,0.0,4.0664,0.0,4.2016,4.1542,0.0,0.0,0.0,3.9423,4.0093,4.0507,4.1007,4.1693,0.0,0.0,0.0,0.0,4.4594,4.5381,4.5163,4.4529,4.342,4.506,4.6015,4.493,4.5471,4.6122,4.6579,4.6972,4.7481,4.82,4.8449,4.8365,4.8375,4.7993,4.7275,4.6577,4.6424,4.6405,4.5659,4.6921,4.7382,4.5752,4.6071,4.6624,4.6731,4.7201,4.7915,4.1315,4.1287,3.961,3.9324,4.0003,3.976,3.9654,3.9654,3.9813,3.9731,3.9446,3.9088,3.8654,3.8099,3.8154,3.8543,3.9191,3.9542,3.9923,4.0338,4.0687,4.0895,4.0933,4.0948,4.1028,4.1149,4.1208,4.1133,4.0943,4.1041,4.1039,4.0907,4.1161,4.0775,3.9803,4.0817,4.1863,4.2809,4.3282,4.3618,4.3768,4.431,4.4629,4.4654,4.4751,4.4817,4.4845,4.4978,4.5046,4.5046,4.473,4.3991,4.2726,4.02,0.0,0.0,0.0,0.0,0.0,0.0,0.0,0.0,0.0,3.4541,3.538,0.0,3.9128,0.0,4.1714,4.2495,4.2111,4.2324,0.0,0.0,4.1537,4.1411,4.165,4.2938,4.3692,4.3314,4.4522,4.5528,4.5919,4.5935,4.6222,4.6993,4.6018,4.5096,4.4849,4.5858,4.6612,4.637,4.6756,4.7354,4.7748,4.8089,4.8237,4.8223,4.8192,4.8114,4.7931,4.7306,4.6906,4.7201,4.7016,4.6957,4.7288,4.8131,4.8097,4.6937,4.7038,4.7491,4.7518,4.7473,4.7696,4.2596,4.2707,4.1475,4.1425,4.2038,4.0791,4.0186,4.0118,4.0423,4.0365,4.006,3.9755,3.945,3.9226,3.9197,3.9478,3.9958,4.0333,4.0529,4.0597,4.1268,4.1666,4.1799,4.1503,4.171,4.2347,4.1631,4.1415,4.1635,4.1496,4.1403,4.1403,4.1513,4.1334,4.0901,4.1644,4.2578,4.3635,4.3347,4.3281,4.3413,4.3871,4.4054,4.3979,4.3738,4.3396,4.3037,4.2887,4.2976,4.3282,4.3418,4.3331,4.2928,4.1109,3.8912,0.0,0.0,0.0,0.0,0.0,0.0,0.0,0.0,0.0,0.0,0.0,4.0324,0.0,4.2253,0.0,4.3062,4.3335,4.3509,4.3505,4.3534,4.364,4.3965,4.4963,4.5529,4.5262,4.6176,4.6896,4.7008,4.7019,4.7182,4.7634,4.6939,4.6377,4.6406,4.6888,4.7195,4.7213,4.7456,4.7728,4.8053,4.8259,4.8269,4.7994,4.7913,4.786,4.7702,4.7142,4.6793,4.7081,4.7039,4.7035,4.7511,4.8125,4.8338,4.7951,4.7804,4.7801,4.7486,4.7555,4.7868,4.3939,4.429,4.2986,4.2782,4.3159,4.1354,4.0472,4.0336,4.0828,4.0703,4.0141,4.0214,4.0176,4.0104,4.0104,4.0147,4.0283,4.1122,4.1182,4.0709,4.2153,4.2828,4.2754,4.2186,4.251,4.3517,4.2144,4.1719,4.2184,4.1929,4.1791,4.1739,4.1739,4.1752,4.1832,4.2579,4.3261,4.3897,4.3437,4.3169,4.3095,4.3221,4.3194,4.2937,4.2337,4.1658,4.0943,4.0533,4.0624,4.1284,4.1537,4.2087,4.2997,4.1626,3.997,0.0,3.6681,0.0,0.0,0.0,0.0,0.0,0.0,0.0,0.0,4.0421,4.1277,4.2016,4.2756,4.353,4.4327,4.4486,4.4787,4.5347,4.5423,4.5639,4.6133,4.6435,4.6696,4.6975,4.7194,4.7396,4.7639,4.7689,4.7689,4.7689,4.7634,4.7544,4.7663,4.7645,4.7655,4.7689,4.7689,4.771,4.7762,4.7911,4.7974,4.7772,4.772,4.7689,4.7699,4.7333,4.6933,4.6767,4.6924,4.7029,4.7013,4.7618,4.8165,4.8328,4.8186,4.7888,4.7376,4.7592,4.8107,4.3833,4.3819,4.2596,4.2377,4.2754,4.1885,4.1445,4.129,4.0944,4.0609,4.0361,4.0741,4.0612,4.0118,4.0104,4.0394,4.0945,4.1639,4.1892,4.182,4.3141,4.3553,4.3182,4.3056,4.3233,4.364,4.3378,4.326,4.3378,4.3788,4.3838,4.3511,4.3496,4.3638,0.0,0.0,0.0,0.0,4.3086,4.2766,4.19,4.2125,4.2058,4.1607,4.1601,0.0,4.1535,4.1443,4.1546,4.191,4.198,0.0,0.0,0.0,0.0,0.0,0.0,0.0,0.0,0.0,0.0,0.0,4.1052,4.1271,4.107,4.2487,4.3428,4.3523,4.4331,4.4865,4.4941,4.5479,4.5889,4.6017,4.6023,4.6081,4.6191,4.6423,4.6714,4.6975,4.7165,4.7396,4.7636,4.7689,4.7689,4.7689,4.7689,4.7689,4.7689,4.7689,4.7689,4.7689,4.7689,4.7689,4.7689,4.7752,4.7785,4.7699,4.7689,4.7689,4.7681,4.764,4.7529,4.7446,4.7524,4.7539,4.7549,4.787,4.8063,4.7909,4.7994,4.8049,4.7903,4.7814,4.7804,4.4947,0.0,4.3715,4.3304,0.0,4.2588,4.2139,4.1786,4.1647,4.138,4.1015,4.1248,4.116,4.0853,4.0779,4.125,4.2127,4.2133,4.2252,4.2571,4.3195,4.3549,4.3649,4.3649,4.4034,4.4747,4.4239,4.4135,4.4443,4.4534,4.4499,4.4279,4.4418,4.4405,4.4231,4.3618,4.3054,4.2511,4.2476,4.2176,4.1626,4.1628,4.1462,4.107,0.0,0.0,0.0,0.0,0.0,0.0,0.0,0.0,0.0,0.0,0.0,4.1705,4.1104,4.0925,4.1359,4.153,4.2121,4.3187,4.3717,4.3562,4.2614,4.3752,4.4489,4.4483,4.4929,4.5328,4.5624,4.5968,4.6202,4.6202,4.6202,4.6202,4.6226,4.6319,4.6512,4.6772,4.7007,4.7249,4.7479,4.7625,4.7689,4.7689,4.7689,4.7689,4.7689,4.7689,4.7689,4.7689,4.7689,4.7689,4.7689,4.7689,4.7689,4.7689,4.7689,4.7689,4.7689,4.7689,4.7689,4.7689,4.7689,4.7689,4.7699,4.7816,4.785,4.7752,4.7806,4.7911,4.7883,4.7495,4.7102,4.5917,4.5455,4.4873,4.4356,4.3916,4.3332,4.2711,4.2161,0.0,0.0,0.0,4.1725,4.1747,4.1763,4.1639,4.213,4.3027,4.256,4.2578,4.3039,4.327,4.3646,4.4153,4.4139,4.4727,4.5656,4.4829,4.4668,4.5128,4.4914,4.4793,4.4732,4.4938,4.4673,4.3994,4.3592,4.312,4.2502,4.2099,4.1817,4.1716,4.1344,4.0997,4.069,4.0208,3.9617,3.8938,3.9103,3.9522,4.0181,4.0933,4.1758,4.2589,4.267,4.2515,4.2211,4.2274,4.262,4.3216,4.3438,4.4083,4.5328,4.5485,4.5129,4.4091,4.4693,4.5133,4.5242,4.5267,4.5542,4.6144,4.6214,4.6202,4.6202,4.6202,4.6202,4.6214,4.6202,4.6319,4.6548,4.6789,4.7025,4.7269,4.749,4.7657,4.7689,4.7689,4.7689,4.7689,4.7689,4.7689,4.7689,4.7689,4.7689,4.7689,4.7689,4.7689,4.7689,4.7689,4.7689,4.7689,4.7689,4.7689,4.7689,4.7689,4.7689,4.7689,4.771,4.7689,4.7689,4.7591,4.7489,4.7417,4.6739,4.6196,4.5058,4.5118,4.4514,4.4371,4.4515,4.3929,4.3332,4.2718,4.214,4.1863,4.178,4.22,4.2379,4.2365,4.2362,4.244,4.2623,4.3029,4.3182,0.0,4.4291,4.4796,4.4777,4.4763,4.4872,4.5017,4.4879,4.4872,4.4989,4.5484,4.5521,4.5171,4.5156,4.4714,4.3835,4.3849,4.3586,4.2907,4.2599,4.2274,4.1869,4.0997,4.0322,3.9877,3.9547,3.933,3.9329,4.0058,4.0602,4.0926,4.1607,4.2368,4.3217,4.3281,4.3586,4.4276,4.4368,4.4487,4.468,4.4828,4.5064,4.5367,4.5427,4.5399,4.5364,4.5632,4.5853,4.5895,4.5942,4.6074,4.6196,4.6202,4.6202,4.6202,4.6202,4.6202,4.6202,4.6214,4.6277,4.6542,4.6625,4.6836,4.722,4.7331,4.7439,4.7646,4.7689,4.7689,4.7689,4.7689,4.7689,4.7689,4.7689,4.7689,4.7689,4.7707,4.7657,4.7689,4.7686,4.7636,4.7636,4.7636,4.7636,4.7678,4.7646,4.7675,4.7657,4.7689,4.7631,4.7577,4.7153,4.6765,4.6667,4.558,4.4965,4.6302,4.5849,4.5568,4.5152,4.4638,4.3901,4.3307,4.2884,4.2542,4.2223,4.1922,4.2145,4.2223,4.2219,4.2162,4.2485,4.3097,4.2982,4.3068,4.3347,4.3907,4.4294,4.4552,4.4862,4.517,4.5416,4.5453,4.5453,4.5459,4.5772,4.5803,4.5572,4.5339,4.5053,4.4745,4.4453,4.4027,4.3397,4.2787,4.238,4.2156,4.1482,4.0844,4.0265,4.019,4.0089,3.9902,4.0976,4.1658,4.1853,4.2886,4.3652,4.4012,4.4062,4.4239,4.4648,4.4748,4.4831,4.4882,4.5086,4.5217,4.5287,4.5357,4.5423,4.5472,4.5684,4.5851,4.5985,4.606,4.6122,4.6202,4.6202,4.6202,4.6202,4.6202,4.6202,4.6202,4.6202,4.6246,4.6362,4.6518,4.6743,4.7086,4.7149,4.7294,4.7615,4.7707,4.7689,4.7678,4.7565,4.7533,4.7675,4.7575,4.7572,4.7665,4.7464,4.7381,4.7457,4.7399,4.7327,4.7334,4.7334,4.7334,4.7323,4.7316,4.7323,4.7327,4.7414,4.7306,4.6851,4.6739,4.6393,4.5852,4.4874,4.4418,4.7147,4.6378,4.6259,4.5608,4.465,4.3975,4.3464,4.3098,4.3047,4.276,4.2354,4.2239,4.2209,4.2188,4.2101,4.2567,4.3288,4.2856,4.2906,4.3417,4.3445,4.3735,4.4248,4.4726,4.5161,4.5541,4.5654,4.5722,4.5745,4.5835,4.5903,4.5859,4.5528,4.5383,4.5448,4.4977,4.4446,4.3834,4.3213,4.2782,4.2527,4.2222,4.1746,4.1136,4.0973,4.0773,4.0468,4.1439,4.2078,4.2284,4.3545,4.4327,4.4352,4.4511,4.4584,4.4598,4.4696,4.4779,4.4803,4.4978,4.5123,4.519,4.5287,4.5371,4.5393,4.5502,4.5641,4.5889,4.5977,4.6065,4.6152,4.6189,4.6202,4.6202,4.6202,4.6202,4.6202,4.6202,4.6202,4.6221,4.6392,4.6602,4.6842,4.6911,4.707,4.7403,4.754,4.754,4.7518,4.7359,4.7331,4.7425,4.7352,4.7309,4.7486,4.7249,4.7104,4.722,4.7127,4.7048,4.7043,4.702,4.7009,4.7043,4.7032,4.6929,4.6811,4.6834,4.6603,4.5997,4.569,4.5454,4.465,4.4055,4.3697,4.5935,4.5958,4.555,4.509,4.469,4.4596,4.4209,4.3687,4.3458,4.3327,4.3125,4.2952,4.2778,4.2806,4.2769,4.2848,4.3008,4.2885,4.3119,4.3513,4.3588,4.3862,4.435,4.4443,4.4495,4.4649,4.5034,4.527,4.525,4.5654,4.588,4.5903,4.5867,4.5533,4.5054,4.5077,4.4849,4.4278,4.4343,4.3924,4.3021,4.3081,4.2855,4.225,4.1238,4.0716,4.068,4.0974,4.1226,4.1492,4.2693,4.3486,4.3616,4.4207,4.4584,4.457,4.4598,4.4668,4.4793,4.4834,4.4937,4.5167,4.5203,4.5257,4.5397,4.541,4.5476,4.5628,4.5859,4.6002,4.6023,4.6127,4.6184,4.6202,4.6202,4.6202,4.6202,4.6202,4.6202,4.6202,4.6251,4.6343,4.6602,4.6684,4.6778,4.7048,4.7156,4.7156,4.7145,4.7088,4.7025,4.7077,4.7043,4.7037,4.707,4.7048,4.6957,4.7002,4.7002,4.6934,4.6899,4.6922,4.6986,4.6842,4.6922,4.6697,4.6161,4.5911,4.5704,4.4957,4.4346,4.3605,4.2834,4.2632,4.2697,4.5801,4.6235,4.5671,4.5059,4.452,4.4441,4.4029,4.3344,4.323,4.2973,4.2636,4.248,4.2582,4.29,4.2925,4.2925,4.2925,4.2925,4.2994,4.3187,4.3187,4.3654,4.4393,4.4445,4.4793,4.5431,4.566,4.5581,4.5307,4.5356,4.5435,4.5458,4.5745,4.5758,4.5525,4.5563,4.5302,4.4698,4.5252,4.4802,4.3408,4.3529,4.328,4.2466,4.1948,4.1562,4.1338,4.1361,4.1498,4.1723,4.235,4.2739,4.28,4.3529,4.3943,4.3972,4.4384,4.4626,4.4682,4.4765,4.4886,4.5056,4.515,4.5261,4.5384,4.5414,4.5423,4.5489,4.5641,4.5821,4.599,4.6048,4.6127,4.6189,4.6202,4.6202,4.6202,4.6202,4.6202,4.6202,4.6214,4.6307,4.6554,4.6731,4.6789,4.683,4.6888,4.6975,4.6998,4.6876,4.6766,4.6749,4.6643,4.669,4.6865,4.6702,4.6643,4.6684,4.6631,4.6536,4.6548,4.6536,4.6524,4.6536,4.6519,4.6218,4.5517,4.5431,4.5244,4.4201,4.3315,4.2654,4.2351,4.2297,4.2409,4.5467,4.6089,4.5596,4.4986,4.44,4.4243,4.3913,4.3473,4.3218,4.2938,4.2684,4.2453,4.2567,4.2884,4.2847,4.2895,4.309,4.2968,4.2925,4.2925,4.2925,4.3298,4.401,4.4062,4.4573,4.5414,4.564,4.566,4.5511,4.5449,4.539,4.541,4.574,4.5904,4.5895,4.5903,4.5685,4.5264,4.5827,4.5361,4.406,4.3988,4.3608,4.2648,4.2388,4.2152,4.1896,4.152,4.1425,4.1654,4.179,4.1981,4.2221,4.2837,4.3181,4.3272,4.39,4.4293,4.431,4.4581,4.4803,4.494,4.5046,4.5167,4.5318,4.5344,4.5353,4.541,4.5502,4.5641,4.5833,4.5947,4.6053,4.6135,4.6189,4.6202,4.6202,4.6202,4.6202,4.6202,4.6202,4.6258,4.6447,4.6631,4.6667,4.6542,4.6655,4.679,4.676,4.6602,4.6483,4.6483,4.6319,4.638,4.6678,4.65,4.6343,4.638,4.6343,4.6263,4.6202,4.6214,4.6196,4.6355,4.6093,4.5572,4.4835,4.4723,4.4375,4.316,4.2402,4.2146,4.2065,4.2225,4.2327,4.4536,4.5433,4.4968,4.4667,4.4603,4.4147,4.42,4.4384,4.3743,4.3663,4.3887,4.3257,4.297,4.302,4.2735,4.2954,4.3565,4.3118,4.2914,4.2965,4.2965,4.2938,4.2976,4.2976,4.3381,4.4343,4.4768,4.5271,4.6073,4.6086,4.6099,4.5916,4.5877,4.5913,4.5863,4.5835,4.588,4.5793,4.5882,4.5615,4.5055,4.4528,4.3843,4.3,4.2377,4.2177,4.2211,4.1141,4.0611,4.0782,4.0891,4.1202,4.1905,4.2219,4.2411,4.2614,4.3181,4.3573,4.363,4.4133,4.4581,4.4748,4.4745,4.4927,4.518,4.522,4.5261,4.5384,4.5397,4.5476,4.5632,4.5838,4.599,4.601,4.614,4.6189,4.6202,4.6184,4.6202,4.6202,4.6202,4.6209,4.6221,4.6209,4.6282,4.6258,4.6246,4.6282,4.6324,4.6258,4.6246,4.6263,4.6239,4.6226,4.6251,4.6263,4.6221,4.6246,4.627,4.6202,4.6202,4.6202,4.6202,4.6039,4.563,4.5027,4.4179,4.3435,4.2826,4.2145,4.1928,4.1736,4.1812,4.235,4.2405,4.1881,4.279,4.3306,4.3549,4.3619,4.4135,4.4343,4.4174,4.3887,4.3625,4.3363,4.277,4.299,4.3804,4.2953,4.2709,4.2943,4.2752,4.2944,4.3416,4.3481,4.3889,4.4608,4.4649,4.4961,4.5475,4.5711,4.578,4.5708,4.5345,4.509,4.5029,4.5011,4.5107,4.535,4.5375,4.5526,4.5858,4.5903,4.5606,4.5018,4.4429,4.382,4.3228,4.2714,4.2554,4.2758,4.1909,4.1543,4.1787,4.1516,4.1279,4.1199,4.1485,4.1901,4.2332,4.2692,4.2862,4.2892,4.3107,4.3529,4.4088,4.4162,4.4432,4.4937,4.5073,4.514,4.5247,4.5274,4.5327,4.5476,4.5628,4.577,4.5889,4.5985,4.6073,4.6085,4.6135,4.6202,4.6202,4.6202,4.6202,4.6202,4.6202,4.6202,4.6202,4.6202,4.6202,4.6202,4.6202,4.6202,4.6202,4.6202,4.6202,4.6214,4.6214,4.6214,4.6214,4.6202,4.6202,4.6202,4.6202,4.6202,4.5647,4.5185,4.4483,4.3605,4.2693,4.1979,4.1839,4.1604,4.1604,4.1604,4.212,4.2094,4.0651,4.1182,4.1959,4.2326,4.2441,4.3426,4.3777,4.3599,4.3804,4.3755,4.3441,4.2997,4.3297,4.3927,4.3138,4.2749,4.2791,4.2891,4.3291,4.3877,4.3929,4.4426,4.518,4.5302,4.564,4.6156,4.6427,4.6278,4.5896,4.5399,4.5131,4.5095,4.5021,4.5047,4.5161,4.5146,4.5281,4.5391,4.5539,4.539,4.4886,4.4298,4.3855,4.348,4.2872,4.2642,4.286,4.2253,4.203,4.217,4.1782,4.1269,4.0797,4.0957,4.1226,4.154,4.1901,4.2109,4.2157,4.2331,4.2769,4.3303,4.341,4.3735,4.4488,4.4614,4.4783,4.5015,4.5177,4.5247,4.5327,4.5463,4.5594,4.5718,4.5859,4.5922,4.5935,4.6048,4.6135,4.6202,4.6202,4.6202,4.6202,4.6202,4.6202,4.6202,4.6202,4.6202,4.6202,4.6202,4.6202,4.6202,4.6202,4.6202,4.6202,4.6202,4.6202,4.6202,4.6202,4.6202,4.6202,4.6202,4.5898,4.5296,4.4589,4.3869,4.3015,4.2085,4.1734,4.1622,4.1604,4.1604,4.171,4.1874,4.1872,4.0968,4.0899,4.11,4.1088,4.12,4.2047,4.2502,4.3015,4.3652,4.4186,4.4368,4.4043,4.3807,4.3847,4.335,4.3166,4.3438,4.3684,4.394,4.4196,4.4208,4.4441,4.4898,4.4939,4.5222,4.5777,4.6251,4.6495,4.64,4.6248,4.6168,4.6197,4.5972,4.566,4.5276,4.5272,4.4959,4.4667,4.4915,4.5029,4.4842,4.4226,4.3885,4.3812,4.2773,4.2325,4.2668,4.2093,4.1898,4.1991,4.1559,4.1036,4.0907,4.0849,4.0586,4.0445,4.0901,4.1274,4.136,4.1949,4.2284,4.252,4.2505,4.2877,4.3603,4.3854,4.4174,4.4755,4.5059,4.5177,4.5203,4.5314,4.545,4.5594,4.5736,4.5812,4.5838,4.5909,4.6035,4.6165,4.6172,4.6202,4.6202,4.6202,4.6202,4.6202,4.6202,4.6202,4.6202,4.6202,4.6202,4.6202,4.6202,4.6202,4.6202,4.6202,4.6202,4.6202,4.6202,4.6202,4.6202,4.6179,4.567,4.5045,4.3851,4.3096,4.25,4.1681,4.1674,4.1604,4.1604,4.1604,4.1698,4.1804,4.1892,3.8551,3.8659,3.9463,3.9803,4.0042,4.1831,4.2748,4.3013,4.3972,4.4538,4.4577,4.4121,4.4108,4.4264,4.3872,4.3873,4.428,4.44,4.4468,4.4529,4.4541,4.4897,4.5466,4.5586,4.5812,4.6197,4.64,4.6509,4.6427,4.6089,4.5839,4.5777,4.5434,4.5276,4.5374,4.5368,4.5208,4.4974,4.4719,4.4748,4.4854,4.3609,4.3214,4.3783,4.2774,4.2175,4.2269,4.2222,4.2287,4.2464,4.2426,4.2241,4.188,4.1535,4.1105,4.0607,4.086,4.0918,4.0674,4.0885,4.1308,4.1673,4.1836,4.2157,4.2831,4.3368,4.3756,4.4222,4.4617,4.4978,4.5167,4.5234,4.5365,4.545,4.5581,4.5706,4.5818,4.5852,4.5909,4.6023,4.606,4.6097,4.6207,4.6237,4.6247,4.6242,4.6207,4.6172,4.6202,4.6189,4.6202,4.6202,4.6202,4.6202,4.6202,4.6202,4.6202,4.6189,4.6189,4.6202,4.6202,4.5951,4.5437,4.4501,4.3307,4.2464,4.185,4.1604,4.1604,4.1639,4.1646,4.1646,4.1628,4.1769,4.1979,3.7112,3.7283,3.8044,3.841,3.8725,4.0719,4.1537,4.1708,4.2815,4.3617,4.387,4.3669,4.3978,4.451,4.4343,4.4395,4.4695,4.4708,4.4701,4.4719,4.4838,4.5249,4.5821,4.5967,4.6099,4.6297,4.6442,4.6509,4.6481,4.6142,4.5912,4.5831,4.5546,4.5401,4.5445,4.5223,4.5018,4.4676,4.4273,4.4224,4.4217,4.3507,4.322,4.3524,4.2872,4.2368,4.2156,4.2216,4.2372,4.2522,4.2628,4.249,4.223,4.1805,4.1306,4.0787,4.0752,4.0767,4.0495,4.0659,4.0995,4.164,4.1856,4.2229,4.2813,4.3362,4.3646,4.4112,4.4795,4.5172,4.512,4.5692,4.584,4.5731,4.5898,4.6095,4.6316,4.6274,4.6426,4.6651,4.662,4.6588,4.6792,4.6607,4.6507,4.6485,4.624,4.6067,4.6085,4.6055,4.6097,4.6122,4.6135,4.6147,4.6202,4.6202,4.6172,4.6159,4.6147,4.6189,4.6202,4.5752,4.5238,4.3869,4.2622,4.2166,4.1604,4.1604,4.1622,4.1657,4.1769,4.1856,4.1944,4.2137,4.2278,3.6606,3.6861,3.6891,3.7154,3.7585,3.8814,3.944,3.9539,4.0702,4.1915,4.265,4.2934,4.3511,4.4383,4.4508,4.4656,4.4708,4.4708,4.4695,4.4778,4.4966,4.5275,4.5569,4.5808,4.5967,4.606,4.6297,4.6469,4.6495,4.6441,4.6509,4.6414,4.6346,4.6196,4.5705,4.5097,4.4559,4.4022,4.368,4.354,4.3532,4.367,4.3712,4.3272,4.307,4.2705,4.2206,4.2129,4.2216,4.2339,4.2242,4.2174,4.202,4.1673,4.1205,4.0625,4.0675,4.0755,4.0785,4.1034,4.1512,4.2082,4.234,4.2839,4.3226,4.3444,4.3768,4.4316,4.5203,4.5581,4.5345,4.6143,4.6737,4.6553,4.6618,4.6982,4.7657,4.7203,4.7166,4.762,4.7486,4.7256,4.7787,4.7348,4.7017,4.6808,4.6321,4.5984,4.5935,4.5947,4.596,4.5985,4.601,4.6023,4.6065,4.6048,4.6035,4.6023,4.6023,4.6048,4.59,4.5416,4.4892,4.3489,4.2337,4.1863,4.1604,4.1622,4.178,4.1962,4.2067,4.2155,4.2225,4.2313,4.2506,3.6453,3.6514,3.6545,3.6728,3.7173,3.8309,3.8969,3.9334,4.0471,4.1093,4.1716,4.2522,4.2969,4.3466,4.4328,4.4708,4.4708,4.4708,4.4708,4.4695,4.4749,4.5005,4.5301,4.5569,4.5808,4.5967,4.6073,4.6245,4.6495,4.6469,4.6509,4.6509,4.6495,4.6427,4.6183,4.56,4.5041,4.435,4.3486,4.3249,4.3396,4.2819,4.2768,4.3342,4.3199,4.2862,4.2288,4.2137,4.2181,4.2372,4.2347,4.2438,4.2579,4.2133,4.1575,4.1186,4.1111,4.1028,4.089,4.1224,4.1698,4.1964,4.2303,4.2444,4.2643,4.3255,4.3624,4.4088,4.4968,4.5713,4.5747,4.6501,4.7191,4.7734,4.7605,4.7551,4.7745,4.762,4.7606,4.785,4.7821,4.7866,4.7954,4.7612,4.7139,4.6999,4.646,4.5869,4.5982,4.5825,4.5825,4.5851,4.5876,4.5889,4.5889,4.5884,4.5871,4.5859,4.5859,4.5841,4.5469,4.4914,4.4339,4.3471,4.2432,4.1807,4.1659,4.1611,4.1874,4.2098,4.1917,4.1818,4.2038,4.2201,4.2594,3.6055,3.6208,3.6208,3.6392,3.6737,3.7243,3.7643,3.8104,3.8716,3.9482,4.0151,4.0949,4.1935,4.2914,4.3632,4.4274,4.4654,4.4708,4.4708,4.4708,4.4708,4.4829,4.5045,4.5274,4.5515,4.5662,4.5782,4.5994,4.6218,4.6297,4.635,4.6469,4.6509,4.6509,4.6414,4.5614,4.5071,4.4529,4.3549,4.3043,4.3211,4.2857,4.2736,4.3143,4.3175,4.298,4.2374,4.2161,4.2175,4.2263,4.2351,4.2514,4.267,4.2293,4.1772,4.133,4.1107,4.083,4.0713,4.1046,4.1591,4.2126,4.245,4.2767,4.3167,4.3644,4.3917,4.4183,4.5106,4.5618,4.5974,4.6784,4.7774,4.8496,4.8562,4.8464,4.8518,4.8316,4.8404,4.856,4.8519,4.8463,4.8785,4.821,4.7864,4.759,4.6866,4.6456,4.6235,4.5927,4.5684,4.5736,4.5749,4.5744,4.5782,4.5795,4.5744,4.5718,4.5667,4.5662,4.5248,4.4627,4.3979,4.3347,4.248,4.1827,4.1622,4.1552,4.1758,4.1805,4.1588,4.1674,4.1953,4.2455,4.2835,3.5572,3.586,3.586,3.6044,3.6267,3.5926,3.615,3.6301,3.6464,3.7191,3.8315,3.8907,4.0382,4.251,4.2522,4.3343,4.4423,4.4341,4.4586,4.4654,4.4708,4.4735,4.4789,4.5005,4.5167,4.5287,4.5475,4.5715,4.5914,4.5994,4.6152,4.635,4.6442,4.6509,4.6278,4.5356,4.4773,4.4501,4.3497,4.2938,4.3032,4.3105,4.3076,4.2877,4.3044,4.2986,4.2524,4.2241,4.2092,4.2092,4.2263,4.2351,4.2351,4.2099,4.163,4.1148,4.0729,4.0405,4.0464,4.0746,4.129,4.2183,4.261,4.3164,4.3529,4.3757,4.4012,4.417,4.5159,4.5735,4.6321,4.7366,4.8299,4.8959,4.9263,4.9481,4.9531,4.918,4.916,4.9809,4.9261,4.9361,4.9513,4.9358,4.8738,4.8246,4.7472,4.6859,4.6506,4.6164,4.5888,4.5671,4.5641,4.5615,4.5667,4.5718,4.5654,4.5589,4.5528,4.5442,4.519,4.459,4.3857,4.3141,4.2538,4.1917,4.1365,4.1411,4.1597,4.1621,4.1486,4.1771,4.216,4.2841,4.3342,3.5418,3.5521,3.5521,3.5695,3.5962,3.5908,3.583,3.5829,3.5813,3.6161,3.6874,3.7855,3.8913,4.0064,4.1008,4.2141,4.3166,4.3358,4.3755,4.4681,4.4708,4.4708,4.4708,4.4816,4.4964,4.5126,4.5234,4.5408,4.5649,4.5861,4.602,4.6099,4.6337,4.6495,4.6252,4.5316,4.4705,4.4488,4.3497,4.2952,4.2925,4.3008,4.3023,4.2849,4.2777,4.2848,4.2859,4.2435,4.2115,4.2113,4.2125,4.2155,4.2108,4.136,4.0929,4.0836,4.0445,4.0185,4.0423,4.0778,4.131,4.1603,4.1878,4.2055,4.2229,4.3005,4.3354,4.3748,4.4709,4.5844,4.7044,4.8166,4.8751,4.9043,4.9201,4.929,4.9318,4.9317,4.948,4.962,4.9615,4.9624,4.9881,4.9315,4.8899,4.8706,4.8086,4.732,4.6807,4.6397,4.592,4.5519,4.5459,4.5419,4.5498,4.5567,4.5541,4.5502,4.5437,4.5367,4.5101,4.4845,4.4207,4.3489,4.2745,4.2119,4.1528,4.1163,4.1319,4.1343,4.1371,4.1505,4.1864,4.2816,4.3584,3.5397,3.5366,3.52,3.5323,3.555,3.5257,3.5139,3.5247,3.5197,3.5272,3.5599,3.6392,3.7215,3.8128,3.8989,4.0075,4.1491,4.2535,4.3232,4.3892,4.4328,4.4708,4.4708,4.4708,4.4816,4.4951,4.4951,4.5113,4.5381,4.5555,4.5689,4.5835,4.6099,4.6042,4.5824,4.5063,4.4556,4.416,4.3427,4.2925,4.2925,4.2925,4.2925,4.2849,4.2657,4.264,4.2749,4.2387,4.2131,4.2034,4.1831,4.1703,4.1665,4.0908,4.0456,4.0222,3.9827,3.9617,3.9869,4.0103,4.0453,4.0905,4.1033,4.134,4.1716,4.2436,4.2898,4.3312,4.4185,4.5408,4.7053,4.8322,4.8783,4.9001,4.9048,4.9092,4.9138,4.932,4.9518,4.959,4.9587,4.9632,4.9522,4.9254,4.919,4.911,4.798,4.7205,4.6797,4.632,4.5644,4.5276,4.5224,4.5234,4.5318,4.5371,4.541,4.5397,4.5384,4.5331,4.5198,4.4967,4.4686,4.3937,4.3185,4.2485,4.1936,4.1538,4.118,4.1111,4.1145,4.1123,4.1539,4.2605,4.3261,3.5356,3.5293,3.4951,3.4972,3.5066,3.4444,3.4318,3.4514,3.4472,3.4471,3.456,3.4805,3.5696,3.654,3.689,3.7982,3.9758,4.1536,4.2498,4.2947,4.3659,4.4162,4.4378,4.4486,4.4604,4.4682,4.4735,4.4897,4.5059,4.518,4.5395,4.5555,4.5661,4.5564,4.5132,4.4665,4.4261,4.3823,4.3264,4.2925,4.2925,4.2925,4.2925,4.2876,4.2698,4.2547,4.2544,4.231,4.2133,4.2057,4.1555,4.1192,4.086,4.0474,4.0042,3.9534,3.9127,3.8999,3.915,3.9253,3.9553,4.0162,4.0247,4.0546,4.1204,4.1757,4.2168,4.277,4.3501,4.4794,4.6295,4.7389,4.837,4.8783,4.8893,4.8861,4.9032,4.9262,4.935,4.9426,4.9441,4.9488,4.9532,4.9423,4.9464,4.9266,4.8106,4.7201,4.6794,4.6276,4.56,4.5162,4.5121,4.5117,4.5184,4.5211,4.5238,4.5251,4.5278,4.5251,4.5194,4.5045,4.4767,4.435,4.3658,4.299,4.2455,4.2158,4.1748,4.1257,4.116,4.1404,4.1907,4.2502,4.3053,3.52,3.4889,3.4817,3.462,3.433,3.4143,3.3926,3.3656,3.3663,3.3766,3.3999,3.4086,3.4588,3.5249,3.5437,3.657,3.8361,4.008,4.131,4.1904,4.2501,4.2977,4.3827,4.3919,4.4236,4.4616,4.4708,4.4762,4.487,4.5072,4.5153,4.5208,4.5116,4.4993,4.4721,4.4202,4.3852,4.3692,4.3199,4.2938,4.3006,4.2938,4.2925,4.2878,4.2673,4.2536,4.2449,4.2328,4.2208,4.2102,4.1976,4.1337,4.0646,3.9954,3.9547,3.9282,3.8852,3.8631,3.8815,3.8995,3.9131,3.9326,3.9525,3.9597,3.9969,4.0486,4.1137,4.1777,4.3076,4.4692,4.6069,4.6832,4.7489,4.8161,4.8418,4.8257,4.8781,4.9032,4.9107,4.9168,4.9229,4.9307,4.9352,4.9398,4.9383,4.9095,4.8226,4.7425,4.6965,4.636,4.5634,4.5282,4.5036,4.5036,4.5049,4.5046,4.5059,4.5059,4.5073,4.509,4.5076,4.5046,4.4788,4.4285,4.3993,4.3523,4.3088,4.2704,4.2324,4.1834,4.1807,4.1843,4.2311,4.2861,4.3407,3.463,3.4413,3.4174,3.4091,3.405,3.3832,3.3615,3.3399,3.3368,3.3341,3.3301,3.3288,3.3479,3.3841,3.4086,3.5063,3.6636,3.8469,3.9507,4.0041,4.0827,4.1848,4.2924,4.3018,4.3782,4.4389,4.4708,4.4682,4.4708,4.4843,4.4951,4.4966,4.493,4.4758,4.4329,4.4026,4.3692,4.3595,4.318,4.305,4.3264,4.3101,4.2925,4.2828,4.2495,4.2228,4.2121,4.1921,4.1974,4.2041,4.178,4.1636,4.1192,4.037,3.9421,3.8945,3.8585,3.8456,3.8627,3.8756,3.883,3.8958,3.9137,3.9232,3.9432,3.9968,4.0509,4.139,4.2994,4.468,4.544,4.6383,4.7638,4.8274,4.821,4.8242,4.8578,4.8704,4.8798,4.8892,4.9,4.9092,4.917,4.9201,4.9231,4.8838,4.8209,4.7631,4.7039,4.6136,4.5283,4.5232,4.4973,4.5001,4.5015,4.5056,4.4906,4.4869,4.491,4.4927,4.4889,4.4855,4.4564,4.415,4.3906,4.3387,4.3378,4.2889,4.2665,4.2508,4.2546,4.2635,4.2832,4.3207,4.3738,3.404,3.3926,3.3563,3.3544,3.3739,3.341,3.3254,3.3273,3.3234,3.3058,3.2739,3.2708,3.2729,3.2836,3.3192,3.3904,3.4901,3.6717,3.7439,3.8103,3.909,4.0385,4.1551,4.216,4.2852,4.4275,4.4238,4.4486,4.4695,4.4735,4.4708,4.4711,4.4926,4.4586,4.3899,4.3878,4.3747,4.3596,4.3206,4.3275,4.3375,4.3183,4.2925,4.2857,4.2215,4.187,4.1836,4.1513,4.1546,4.1632,4.1555,4.1513,4.2046,4.1094,3.9799,3.8826,3.8594,3.8689,3.8827,3.8984,3.9126,3.908,3.9162,3.9161,3.9179,3.9642,4.0345,4.1362,4.2444,4.3946,4.4567,4.5921,4.7025,4.777,4.7836,4.8032,4.8193,4.8354,4.8547,4.8657,4.8783,4.8845,4.8909,4.8909,4.8892,4.847,4.7845,4.7185,4.6511,4.5363,4.4702,4.4902,4.4897,4.4939,4.5015,4.5137,4.4902,4.4651,4.4734,4.4803,4.4701,4.4613,4.4238,4.3788,4.285,4.2419,4.271,4.3198,4.3143,4.3134,4.3258,4.3339,4.3387,4.3563,4.398,3.3853,3.348,3.3418,3.3192,3.2915,3.2832,3.2791,3.2801,3.2812,3.276,3.2698,3.2698,3.2698,3.2799,3.3128,3.3588,3.421,3.4856,3.5794,3.6549,3.7349,3.869,4.0413,4.1139,4.2087,4.3381,4.3361,4.3846,4.4303,4.4525,4.4643,4.4578,4.4319,4.4071,4.4059,4.3846,4.3708,4.3931,4.3598,4.3235,4.3066,4.2965,4.2925,4.2735,4.2287,4.1834,4.1649,4.1227,4.1016,4.1006,4.1255,4.1115,4.0869,4.0995,4.0572,4.0118,3.9886,3.9891,3.9848,3.9843,3.975,3.9528,3.9606,3.939,3.9365,3.9358,3.9895,4.0442,4.1148,4.2147,4.3443,4.3593,4.4413,4.5623,4.6688,4.7007,4.7341,4.8178,4.834,4.8405,4.8516,4.8548,4.8579,4.8563,4.848,4.801,4.7489,4.6851,4.6143,4.5131,4.4778,4.5141,4.529,4.5334,4.5226,4.5301,4.5028,4.4628,4.4544,4.4626,4.451,4.4327,4.3836,4.324,4.2326,4.2202,4.2983,4.3451,4.3594,4.3759,4.3862,4.3866,4.3831,4.4067,4.4312,3.2954,3.3006,3.2977,3.2874,3.2708,3.2698,3.2698,3.2698,3.2698,3.2698,3.2698,3.2698,3.2698,3.276,3.2965,3.3238,3.364,3.4035,3.4403,3.5045,3.57,3.6764,3.7982,3.8812,4.0003,4.1939,4.2298,4.2693,4.3398,4.378,4.3846,4.4186,4.4043,4.3965,4.4045,4.398,4.4071,4.4132,4.3935,4.3498,4.3072,4.2925,4.2925,4.287,4.2005,4.1566,4.1287,4.074,4.0614,4.0735,4.1019,4.1284,4.144,4.1488,4.1214,4.1451,4.1273,4.0887,4.0239,4.026,4.011,4.0008,4.0027,4.0044,3.989,3.9911,4.0045,4.0524,4.1714,4.2594,4.3363,4.4171,4.4885,4.5624,4.5761,4.6282,4.6847,4.7671,4.8196,4.8228,4.8178,4.8013,4.7979,4.811,4.819,4.8167,4.7598,4.6928,4.6272,4.5481,4.5433,4.5786,4.5853,4.5868,4.568,4.5574,4.5284,4.4867,4.4361,4.4397,4.4281,4.4012,4.3569,4.3266,4.2782,4.2925,4.3457,4.3423,4.3312,4.3856,4.449,4.4391,4.4292,4.4483,4.4694,3.2398,3.2677,3.246,3.2367,3.2367,3.2367,3.2346,3.2346,3.2364,3.2408,3.2553,3.2607,3.2698,3.2698,3.2739,3.2934,3.3221,3.3513,3.36,3.3851,3.4346,3.5283,3.6345,3.6973,3.8487,4.0935,4.0923,4.1655,4.2424,4.2736,4.2918,4.3637,4.3598,4.3637,4.3703,4.3743,4.3795,4.37,4.3818,4.3475,4.2944,4.2863,4.2887,4.2588,4.1964,4.1249,4.102,4.0467,4.0426,4.0344,4.0529,4.0851,4.1367,4.1269,4.1248,4.1482,4.1527,4.1359,4.0842,4.0642,4.049,4.041,4.0265,4.0281,4.0499,4.0641,4.068,4.0669,4.1393,4.223,4.2944,4.389,4.4036,4.4443,4.5174,4.5734,4.6225,4.6716,4.6914,4.6716,4.6717,4.7062,4.7144,4.7489,4.7783,4.8125,4.7737,4.6988,4.6355,4.5674,4.5892,4.6212,4.6329,4.6346,4.6242,4.5988,4.5617,4.5159,4.4641,4.4267,4.421,4.3887,4.3429,4.3185,4.2995,4.299,4.312,4.3034,4.3064,4.3885,4.4585,4.4725,4.4787,4.4896,4.4896,3.2667,3.2636,3.1836,3.1553,3.1547,3.1502,3.1533,3.1588,3.1574,3.1785,3.2098,3.2439,3.2574,3.2636,3.2595,3.2657,3.2739,3.2778,3.3012,3.3338,3.3772,3.4488,3.5245,3.6182,3.7465,3.9437,3.9544,4.0394,4.1684,4.1491,4.2085,4.2892,4.2945,4.3036,4.3154,4.3271,4.3165,4.3146,4.3287,4.3201,4.2822,4.2741,4.2887,4.2775,4.2263,4.1693,4.1123,4.0427,3.9937,3.9687,3.9903,4.0067,4.0445,4.0662,4.0821,4.095,4.1305,4.1231,4.1079,4.1359,4.1506,4.1082,4.0681,4.0532,4.0758,4.0544,4.0549,4.0847,4.1398,4.1238,4.1254,4.1245,4.2585,4.3271,4.4194,4.4476,4.4902,4.5244,4.5375,4.513,4.5358,4.5897,4.6093,4.6389,4.7194,4.7572,4.7274,4.6548,4.6382,4.5919,4.6215,4.6496,4.6711,4.6809,4.6824,4.6524,4.6089,4.5581,4.5025,4.4599,4.4257,4.3836,4.3394,4.3175,4.3015,4.2883,4.287,4.313,4.3521,4.4218,4.4657,4.4682,4.4692,4.472,4.4706,3.1968,3.1857,3.1516,3.1547,3.1757,3.1757,3.1629,3.1481,3.1661,3.1692,3.1661,3.1816,3.1899,3.1992,3.2181,3.2274,3.2297,3.2605,3.2753,3.2968,3.3319,3.3668,3.4196,3.4734,3.5641,3.7157,3.7426,3.8029,3.9303,3.998,4.0415,4.1042,4.1931,4.2684,4.2879,4.2879,4.2772,4.2726,4.2881,4.2891,4.2695,4.2755,4.2925,4.2857,4.1869,4.1412,4.0978,4.0119,3.9644,3.9417,3.9518,3.9571,3.9667,4.0061,4.0235,4.0322,4.0723,4.0937,4.1142,4.162,4.1926,4.1816,4.1468,4.1305,4.1313,4.1401,4.1465,4.1567,4.1553,4.1557,4.2213,4.241,4.2804,4.2967,4.3144,4.3411,4.3677,4.4085,4.43,4.4251,4.4625,4.5114,4.5195,4.5243,4.6172,4.6958,4.6551,4.6225,4.6061,4.611,4.6356,4.6569,4.6766,4.6996,4.7029,4.6798,4.6499,4.5949,4.5377,4.4891,4.4391,4.3874,4.3464,4.3259,4.3169,4.3246,4.3356,4.353,4.386,4.4248,4.4429,4.4499,4.4528,4.4556,4.4556,3.1444,3.1747,3.1629,3.1671,3.1809,3.1809,3.1578,3.1278,3.1436,3.1578,3.1408,3.1522,3.1578,3.1681,3.185,3.2026,3.2129,3.2326,3.2553,3.2753,3.2929,3.3051,3.3164,3.359,3.4434,3.5267,3.587,3.6681,3.8056,3.8729,3.9349,4.0042,4.0747,4.1595,4.2317,4.2487,4.2407,4.2321,4.2428,4.2596,4.2402,4.262,4.2838,4.2808,4.2154,4.152,4.1127,4.0431,3.9821,3.9495,3.9327,3.9327,3.9416,3.9571,3.9755,3.993,4.017,4.0473,4.0723,4.1276,4.1912,4.1949,4.2005,4.199,4.2092,4.2092,4.1945,4.1994,4.2271,4.2545,4.2785,4.2279,4.212,4.214,4.2521,4.2784,4.2846,4.3117,4.3322,4.3456,4.3715,4.3715,4.4181,4.4244,4.4978,4.589,4.6171,4.5879,4.57,4.5896,4.6333,4.6512,4.6674,4.6938,4.7153,4.6845,4.6503,4.6061,4.5503,4.5004,4.4509,4.4044,4.3669,4.3474,4.3486,4.3654,4.3665,4.3608,4.3789,4.4066,4.4198,4.4315,4.4329,4.4358,4.4412,3.1177,3.2569,3.2114,3.175,3.1557,3.1412,3.1184,3.0901,3.0859,3.104,3.1381,3.1685,3.186,3.1881,3.1933,3.2016,3.2036,3.2119,3.2346,3.2675,3.2755,3.2765,3.2841,3.32,3.3717,3.477,3.5239,3.5925,3.7225,3.789,3.856,3.9326,4.0031,4.0708,4.1327,4.1351,4.1363,4.1413,4.1714,4.1923,4.2143,4.24,4.2655,4.256,4.2412,4.1751,4.0991,4.0571,3.997,3.9441,3.9319,3.9305,3.9349,3.9349,3.9416,3.9438,3.9799,3.9996,4.0118,4.0937,4.1438,4.1829,4.1829,4.1968,4.2045,4.2071,4.2092,4.2084,4.1843,4.1534,4.135,4.1292,4.1466,4.1782,4.2233,4.2414,4.2523,4.2795,4.3133,4.3095,4.2372,4.2018,4.2699,4.329,4.3884,4.4617,4.5384,4.5499,4.5205,4.5316,4.5666,4.5873,4.5984,4.6414,4.6581,4.6747,4.6522,4.6085,4.5682,4.5261,4.4835,4.4409,4.4057,4.3743,4.3614,4.3624,4.3597,4.355,4.3715,4.3864,4.4041,4.4143,4.4143,4.4172,4.4255,2.9816,3.1411,3.1251,3.1618,3.2156,3.1912,3.1567,3.117,3.0911,3.0973,3.1274,3.1267,3.134,3.1578,3.1891,3.2016,3.2057,3.2398,3.2646,3.2667,3.2698,3.2698,3.2755,3.2869,3.3229,3.366,3.4138,3.4574,3.5174,3.6549,3.7704,3.8533,3.9815,4.0883,4.1224,4.1286,4.1299,4.1374,4.1574,4.1771,4.1881,4.2226,4.2347,4.2104,4.1924,4.1425,4.0612,4.0291,3.9834,3.9386,3.9319,3.9305,3.9305,3.9305,3.9305,3.9305,3.9549,3.9703,3.99,4.0386,4.0645,4.1078,4.1473,4.162,4.1641,4.1968,4.2051,4.2036,4.1722,4.1718,4.2301,4.1863,4.1916,4.2391,4.2705,4.2646,4.2758,4.3113,4.3361,4.297,4.2379,4.2016,4.2316,4.2616,4.3106,4.3236,4.3851,4.433,4.4213,4.4257,4.4506,4.4744,4.5002,4.5561,4.5925,4.5994,4.6294,4.6138,4.5902,4.5681,4.5244,4.4708,4.4236,4.3774,4.3645,4.3548,4.3344,4.3235,4.3462,4.3626,4.3805,4.3983,4.4041,4.4085,4.414,2.7991,2.9593,2.9891,3.0422,3.1258,3.1955,3.1995,3.1578,3.1143,3.1184,3.1485,3.1298,3.134,3.1671,3.186,3.2016,3.2019,3.2284,3.2636,3.2657,3.2698,3.2698,3.2698,3.2698,3.2898,3.3022,3.3182,3.3523,3.3991,3.5482,3.6846,3.8166,3.9763,4.0643,4.1072,4.1286,4.1286,4.1336,4.1473,4.161,4.1771,4.1938,4.1959,4.1609,4.1305,4.0957,4.0249,3.9767,3.9495,3.9386,3.9305,3.9305,3.9305,3.9305,3.9305,3.9305,3.9327,3.9482,3.9681,3.9747,3.9988,4.0184,4.078,4.1121,4.117,4.1375,4.148,4.1543,4.1647,4.1806,4.2006,4.1598,4.1886,4.2315,4.2601,4.2542,4.3043,4.339,4.3506,4.3071,4.2865,4.2487,4.2125,4.2094,4.2366,4.2331,4.2311,4.2799,4.3321,4.3447,4.3622,4.391,4.4085,4.4548,4.4956,4.518,4.5529,4.6025,4.5935,4.5713,4.5313,4.4733,4.4267,4.3767,4.341,4.3084,4.2904,4.2897,4.3174,4.3417,4.3613,4.3761,4.3894,4.3952,4.3981,2.5877,2.7338,2.8074,2.8384,2.8903,3.1179,3.213,3.1957,3.1588,3.165,3.2016,3.1964,3.1943,3.2005,3.2067,3.2098,3.2119,3.216,3.2388,3.2605,3.2698,3.2698,3.2698,3.2698,3.2755,3.2812,3.2983,3.3182,3.3324,3.4714,3.6165,3.7663,3.9223,4.016,4.0782,4.1186,4.1236,4.1311,4.1336,4.1461,4.1622,4.1627,4.1415,4.112,4.0984,4.0488,3.9989,3.9685,3.9568,3.9437,3.9269,3.9305,3.9305,3.9305,3.9305,3.9305,3.9305,3.9349,3.9372,3.9416,3.9416,3.9659,4.0148,4.0516,4.0744,4.083,4.1001,4.0979,4.1015,4.0908,4.0831,4.1021,4.1231,4.1693,4.2169,4.2584,4.324,4.3528,4.3625,4.3497,4.3415,4.3124,4.2716,4.2528,4.2336,4.2018,4.2061,4.2236,4.2695,4.2871,4.3046,4.3334,4.3494,4.3578,4.3916,4.4302,4.48,4.5279,4.5573,4.5432,4.5072,4.4842,4.4462,4.3907,4.3057,4.2652,4.2539,4.2664,4.2928,4.3143,4.3298,4.3553,4.3673,4.3717,4.3761,2.4586,2.6048,2.6507,2.7215,2.8149,2.9182,3.066,3.2305,3.2036,3.2078,3.2481,3.215,3.2202,3.2491,3.2512,3.2491,3.2491,3.2512,3.2574,3.2667,3.2698,3.2698,3.2698,3.2698,3.2698,3.2727,3.2841,3.3097,3.3738,3.4669,3.6057,3.7849,3.8729,3.9583,4.0249,4.0883,4.1097,4.1286,4.1286,4.1322,4.1277,4.1204,4.0826,4.0481,4.0267,3.976,3.9295,3.9235,3.9159,3.9087,3.9203,3.9283,3.9305,3.9305,3.9305,3.9305,3.9305,3.9305,3.9305,3.9305,3.9305,3.9305,3.9637,3.9856,4.0162,4.0422,4.0594,4.053,4.0508,4.0465,4.0443,4.058,4.0823,4.1219,4.1651,4.214,4.278,4.3281,4.3361,4.3294,4.3246,4.3366,4.2995,4.3043,4.2787,4.2203,4.1938,4.2064,4.2069,4.2244,4.2532,4.2819,4.2664,4.2649,4.3116,4.3533,4.4039,4.4515,4.4857,4.5252,4.5332,4.5089,4.4676,4.3999,4.3132,4.2574,4.2222,4.2525,4.3054,4.2809,4.2916,4.3191,4.3417,4.3528,4.3699,2.3336,2.4355,2.4841,2.5832,2.7043,2.7391,2.9087,3.1378,3.1576,3.1938,3.2618,3.2419,3.2439,3.2636,3.2677,3.2677,3.2667,3.2657,3.2677,3.2677,3.2698,3.2698,3.2698,3.2698,3.2698,3.2698,3.2755,3.2983,3.371,3.4641,3.5893,3.7088,3.8058,3.8793,3.9532,4.0275,4.0807,4.1097,4.126,4.1155,4.0981,4.0728,4.02,3.9649,3.9359,3.9014,3.8546,3.8666,3.8765,3.8787,3.8993,3.9016,3.9038,3.9083,3.9238,3.9261,3.9305,3.9305,3.9305,3.9305,3.9305,3.9305,3.9283,3.946,3.9659,3.99,3.9988,4.0017,4.0061,4.0105,4.0126,4.0191,4.0466,4.0774,4.1155,4.1525,4.2161,4.2847,4.2921,4.2851,4.2967,4.3165,4.3244,4.335,4.3247,4.2665,4.2256,4.2128,4.1904,4.1615,4.1981,4.2349,4.1959,4.1678,4.2205,4.2731,4.3123,4.3689,4.4386,4.4782,4.5232,4.5146,4.4568,4.3902,4.3172,4.2785,4.2538,4.2893,4.3265,4.3025,4.3057,4.3652,4.3788,4.35,4.3703,2.233,2.2709,2.3228,2.4384,2.5656,2.5814,2.735,2.9813,3.0046,3.1264,3.2418,3.2688,3.2667,3.2698,3.2698,3.2698,3.2698,3.2698,3.2698,3.2698,3.2698,3.2698,3.2698,3.2698,3.2698,3.2698,3.2755,3.2955,3.3324,3.4132,3.5058,3.6013,3.6421,3.7287,3.8636,3.9235,3.9866,4.0693,4.0869,4.0816,4.0662,4.037,3.9926,3.911,3.8921,3.8787,3.8407,3.8385,3.858,3.858,3.8625,3.8661,3.8715,3.88,3.9002,3.9105,3.9127,3.9141,3.9127,3.9127,3.9149,3.9172,3.9252,3.9225,3.9336,3.9504,3.9601,3.9623,3.9681,3.9681,3.9703,3.9711,3.9916,4.015,4.0467,4.076,4.1169,4.1821,4.2204,4.2275,4.2684,4.2868,4.2867,4.2917,4.3174,4.2866,4.279,4.2535,4.2107,4.1608,4.1603,4.1987,4.1521,4.1211,4.1436,4.1911,4.2178,4.2775,4.3564,4.4089,4.436,4.4402,4.4382,4.3957,4.3546,4.3263,4.313,4.3376,4.3511,4.3402,4.3616,4.4282,4.4269,4.3813,4.3997,2.2513,2.2606,2.2968,2.3387,2.374,2.3999,2.5065,2.6558,2.6969,2.9278,3.2185,3.262,3.2698,3.2698,3.2698,3.2698,3.2698,3.2698,3.2698,3.2698,3.2698,3.2698,3.2698,3.2698,3.2698,3.2698,3.2784,3.3012,3.3466,3.3918,3.4339,3.5002,3.5532,3.6654,3.734,3.7887,3.8833,3.9917,4.0198,4.0503,4.0774,4.0479,4.0043,3.9403,3.9118,3.8581,3.8257,3.8194,3.8272,3.8304,3.8512,3.8593,3.8615,3.8634,3.8701,3.8746,3.8814,3.885,3.885,3.885,3.885,3.8827,3.8827,3.8904,3.9002,3.918,3.9283,3.9283,3.9305,3.9305,3.9305,3.9349,3.9402,3.9596,3.9779,4.0006,4.023,4.076,4.1372,4.1782,4.2243,4.2385,4.2384,4.2594,4.2855,4.3069,4.3291,4.318,4.2749,4.2265,4.1707,4.1794,4.1255,4.101,4.1093,4.1222,4.1534,4.1897,4.2591,4.3081,4.3541,4.39,4.4199,4.4269,4.4068,4.3864,4.369,4.3612,4.3684,4.3739,4.3997,4.4601,4.4624,4.4247,4.4561,2.2683,2.2796,2.2937,2.3014,2.3054,2.3228,2.4085,2.5267,2.5643,2.7535,3.0444,3.13,3.1997,3.2532,3.2698,3.2669,3.2669,3.2698,3.2698,3.2698,3.2698,3.2698,3.2698,3.2698,3.2698,3.2698,3.2898,3.3182,3.3568,3.3918,3.4283,3.4541,3.5268,3.5724,3.6095,3.6938,3.7701,3.8769,3.9209,3.9892,4.0617,4.0401,4.0112,3.9599,3.9026,3.8543,3.8341,3.8208,3.8047,3.808,3.8207,3.833,3.8362,3.8395,3.8498,3.858,3.8638,3.8615,3.8593,3.857,3.857,3.857,3.858,3.8724,3.8746,3.8904,3.9105,3.9149,3.9283,3.9305,3.9305,3.9327,3.9327,3.9447,3.9513,3.9609,3.9706,3.9932,4.0244,4.0395,4.0894,4.1399,4.1548,4.2091,4.244,4.3117,4.34,4.3523,4.3146,4.3002,4.2412,4.1913,4.1548,4.0943,4.0775,4.0857,4.1002,4.1381,4.1745,4.247,4.3151,4.3686,4.4045,4.4274,4.4471,4.4589,4.4431,4.4303,4.4225,4.4315,4.4552,4.4886,4.4786,4.4782,4.5125,2.2796,2.2986,2.3014,2.3014,2.3014,2.3022,2.3759,2.4876,2.5068,2.5994,2.7692,2.9041,3.0654,3.1909,3.2459,3.2584,3.2669,3.2669,3.2698,3.2698,3.2698,3.2698,3.2698,3.2698,3.2698,3.2755,3.2937,3.3182,3.3484,3.3833,3.4086,3.4373,3.468,3.5013,3.5697,3.6095,3.6534,3.7557,3.8297,3.9131,3.9689,4.0166,4.0133,3.9732,3.9222,3.8893,3.8632,3.8344,3.8044,3.7923,3.7969,3.807,3.8112,3.8181,3.8285,3.8366,3.8412,3.8398,3.8444,3.8398,3.8434,3.848,3.8512,3.8512,3.8512,3.8634,3.8836,3.8993,3.9141,3.9194,3.9194,3.9238,3.9238,3.9261,3.9261,3.9283,3.9305,3.9314,3.938,3.9424,3.9845,4.0432,4.0809,4.1352,4.2003,4.2735,4.3248,4.3401,4.3487,4.3533,4.3319,4.2828,4.2399,4.1732,4.0942,4.0732,4.088,4.0866,4.1308,4.2064,4.2745,4.3225,4.3785,4.4443,4.4658,4.4908,4.5137,4.5106,4.5029,4.4857,4.5065,4.5288,4.5353,4.5415,4.5693,2.2958,2.3014,2.3014,2.3014,2.3014,2.3014,2.3195,2.344,2.3541,2.4363,2.567,2.6291,2.7823,3.0751,3.105,3.1467,3.2289,3.2416,3.262,3.2698,3.2698,3.2698,3.2698,3.2698,3.2698,3.2727,3.2812,3.2983,3.3353,3.3597,3.3861,3.4171,3.444,3.4635,3.4708,3.5058,3.5504,3.6426,3.7061,3.7767,3.9468,4.007,4.0628,4.0411,4.0148,3.9494,3.8972,3.8621,3.8305,3.8044,3.7874,3.7893,3.7956,3.8001,3.807,3.8116,3.8139,3.8139,3.8139,3.8139,3.8175,3.8139,3.8161,3.8194,3.8217,3.8294,3.8476,3.8625,3.8737,3.8782,3.8791,3.8935,3.9002,3.9047,3.9069,3.9194,3.9247,3.9269,3.9292,3.9327,3.9491,3.9728,3.9815,4.0345,4.088,4.1684,4.2574,4.2793,4.3187,4.3582,4.3951,4.3465,4.2919,4.2466,4.1665,4.1016,4.0946,4.0807,4.084,4.1595,4.2224,4.2696,4.3287,4.3948,4.4734,4.5204,4.5418,4.5507,4.5548,4.541,4.5552,4.5728,4.5807,4.5825,4.59]},{"header":{"parameterUnit":"m.s-1","parameterCategory":1,"la1":31.0,"la2":29.5877,"lo1":-88.7671,"lo2":-86.6584,"dy":0.0162,"dx":0.0185,"nx":115,"ny":88,"refTime":"2023-04-21T00:00:00:Z","depth":0,"parameterNumber":3,"parameterNumberName":"V-component_of_WINDS"},"data":[0.0,0.0,0.0,0.0,0.0,0.0,0.0,0.0,0.0,0.0,0.0,0.0,0.0,0.0,0.0,0.0,0.0,0.0,0.0,0.0,0.0,0.0,0.0,0.0,0.0,0.0,0.0,0.0,0.0,0.0,0.0,0.0,0.0,0.0,0.0,0.0,0.0,0.0,0.0,0.0,0.0,0.0,0.0,0.0,0.0,0.0,0.0,0.0,0.0,0.0,0.0,0.0,0.0,0.0,0.0,0.0,0.0,0.0,0.0,0.0,0.0,0.0,0.0,0.0,0.0,0.0,0.0,0.0,0.0,0.0,0.0,0.0,0.0,0.0,0.0,0.0,0.0,0.0,0.0,0.0,0.0,0.0,0.0,0.0,0.0,0.0,0.0,0.0,0.0,0.0,0.0,0.0,0.0,0.0,0.0,0.0,0.0,0.0,0.0,0.0,0.0,0.0,0.0,0.0,0.0,0.0,0.0,0.0,0.0,0.0,0.0,0.0,0.0,0.0,0.0,0.0,0.0,0.0,0.0,0.0,0.0,0.0,0.0,0.0,0.0,0.0,0.0,0.0,0.0,0.0,0.0,0.0,0.0,0.0,0.0,0.0,0.0,0.0,0.0,0.0,0.0,0.0,0.0,0.0,0.0,0.0,0.0,0.0,0.0,0.0,0.0,0.0,0.0,0.0,0.0,0.0,0.0,0.0,0.0,0.0,0.0,0.0,0.0,0.0,0.0,0.0,0.0,0.0,0.0,0.0,0.0,0.0,0.0,0.0,0.0,0.0,0.0,0.0,0.0,0.0,0.0,0.0,0.0,0.0,0.0,0.0,0.0,0.0,0.0,0.0,0.0,0.0,0.0,0.0,0.0,0.0,0.0,0.0,0.0,0.0,0.0,0.0,0.0,0.0,0.0,0.0,0.0,0.0,0.0,0.0,0.0,0.0,0.0,0.0,0.0,0.0,0.0,0.0,0.0,0.0,0.0,0.0,0.0,0.0,0.0,0.0,0.0,0.0,0.0,0.0,0.0,0.0,0.0,0.0,0.0,0.0,0.0,0.0,0.0,0.0,0.0,0.0,0.0,0.0,0.0,0.0,0.0,0.0,0.0,0.0,0.0,0.0,0.0,0.0,0.0,0.0,0.0,0.0,0.0,0.0,0.0,0.0,0.0,0.0,0.0,0.0,0.0,0.0,0.0,0.0,0.0,0.0,0.0,0.0,0.0,0.0,0.0,0.0,0.0,0.0,0.0,0.0,0.0,0.0,0.0,0.0,0.0,0.0,0.0,0.0,0.0,0.0,0.0,0.0,0.0,0.0,0.0,0.0,0.0,0.0,0.0,0.0,0.0,0.0,0.0,0.0,0.0,0.0,0.0,0.0,0.0,0.0,0.0,0.0,0.0,0.0,0.0,0.0,0.0,0.0,0.0,0.0,0.0,0.0,0.0,0.0,0.0,0.0,0.0,0.0,0.0,0.0,0.0,0.0,0.0,0.0,0.0,0.0,0.0,0.0,0.0,0.0,0.0,0.0,0.0,0.0,0.0,0.0,0.0,0.0,0.0,0.0,0.0,0.0,0.0,0.0,0.0,0.0,0.0,0.0,0.0,0.0,0.0,0.0,0.0,0.0,0.0,0.0,0.0,0.0,0.0,0.0,0.0,0.0,0.0,0.0,0.0,0.0,0.0,0.0,0.0,0.0,0.0,0.0,0.0,0.0,0.0,0.0,0.0,0.0,0.0,0.0,0.0,0.0,0.0,0.0,0.0,0.0,0.0,0.0,0.0,0.0,0.0,0.0,0.0,0.0,0.0,0.0,0.0,0.0,0.0,0.0,0.0,0.0,0.0,0.0,0.0,0.0,0.0,0.0,0.0,0.0,0.0,0.0,0.0,0.0,0.0,0.0,0.0,0.0,0.0,0.0,0.0,0.0,0.0,0.0,0.0,0.0,0.0,0.0,0.0,0.0,0.0,0.0,0.0,0.0,0.0,0.0,0.0,0.0,0.0,0.0,0.0,0.0,0.0,0.0,0.0,0.0,0.0,0.0,0.0,0.0,0.0,0.0,0.0,0.0,0.0,0.0,0.0,0.0,0.0,0.0,0.0,0.0,0.0,0.0,0.0,0.0,0.0,0.0,0.0,0.0,0.0,0.0,0.0,0.0,0.0,0.0,0.0,0.0,0.0,0.0,0.0,0.0,0.0,0.0,0.0,0.0,0.0,0.0,0.0,0.0,0.0,0.0,0.0,0.0,0.0,0.0,0.0,0.0,0.0,0.0,0.0,0.0,0.0,0.0,0.0,0.0,0.0,0.0,0.0,0.0,0.0,0.0,0.0,0.0,0.0,0.0,0.0,0.0,0.0,0.0,0.0,0.0,0.0,0.0,0.0,0.0,0.0,0.0,0.0,0.0,0.0,0.0,0.0,0.0,0.0,0.0,0.0,0.0,0.0,0.0,0.0,0.0,0.0,0.0,0.0,0.0,0.0,0.0,0.0,0.0,0.0,0.0,0.0,0.0,0.0,0.0,0.0,0.0,0.0,0.0,0.0,0.0,0.0,0.0,0.0,0.0,0.0,0.0,0.0,0.0,0.0,0.0,0.0,0.0,0.0,0.0,0.0,0.0,0.0,0.0,0.0,0.0,0.0,0.0,0.0,0.0,0.0,0.0,0.0,0.0,0.0,0.0,0.0,0.0,0.0,0.0,0.0,0.0,0.0,0.0,0.0,0.0,0.0,0.0,0.0,0.0,0.0,0.0,0.0,0.0,0.0,0.0,0.0,0.0,0.0,0.0,0.0,0.0,0.0,0.0,0.0,0.0,0.0,0.0,0.0,0.0,0.0,0.0,0.0,0.0,0.0,0.0,0.0,0.0,0.0,0.0,0.0,0.0,0.0,0.0,0.0,0.0,0.0,0.0,0.0,0.0,0.0,0.0,0.0,0.0,0.0,0.0,0.0,0.0,0.0,0.0,0.0,0.0,0.0,0.0,0.0,0.0,0.0,0.0,0.0,0.0,0.0,0.0,0.0,0.0,0.0,0.0,0.0,0.0,0.0,0.0,0.0,0.0,0.0,0.0,0.0,0.0,0.0,0.0,0.0,0.0,0.0,0.0,0.0,0.0,0.0,0.0,0.0,0.0,0.0,0.0,0.0,0.0,0.0,0.0,0.0,0.0,0.0,0.0,0.0,0.0,0.0,0.0,0.0,0.0,0.0,0.0,0.0,0.0,0.0,0.0,0.0,0.0,0.0,0.0,0.0,0.0,0.0,0.0,0.0,0.0,0.0,0.0,0.0,0.0,0.0,0.0,0.0,0.0,0.0,0.0,0.0,0.0,0.0,0.0,0.0,0.0,0.0,0.0,0.0,0.0,0.0,0.0,0.0,0.0,0.0,0.0,0.0,0.0,0.0,0.0,0.0,0.0,0.0,0.0,0.0,0.0,0.0,0.0,0.0,0.0,0.0,0.0,0.0,0.0,0.0,0.0,0.0,0.0,0.0,0.0,0.0,0.0,0.0,0.0,0.0,0.0,0.0,0.0,0.0,0.0,0.0,0.0,0.0,0.0,0.0,0.0,0.0,0.0,0.0,0.0,0.0,0.0,0.0,0.0,0.0,0.0,0.0,0.0,0.0,0.0,0.0,0.0,0.0,0.0,0.0,0.0,0.0,0.0,0.0,0.0,0.0,0.0,0.0,0.0,0.0,0.0,0.0,0.0,0.0,0.0,0.0,0.0,0.0,0.0,0.0,0.0,0.0,0.0,0.0,0.0,0.0,0.0,0.0,0.0,0.0,0.0,0.0,0.0,0.0,0.0,0.0,0.0,0.0,0.0,0.0,0.0,0.0,0.0,0.0,0.0,0.0,0.0,0.0,0.0,0.0,0.0,0.0,0.0,0.0,0.0,0.0,0.0,0.0,0.0,0.0,0.0,0.0,0.0,0.0,0.0,0.0,0.0,0.0,0.0,0.0,0.0,0.0,0.0,0.0,0.0,0.0,0.0,0.0,0.0,0.0,0.0,0.0,0.0,0.0,0.0,0.0,0.0,0.0,0.0,0.0,0.0,0.0,0.0,0.0,0.0,0.0,0.0,0.0,0.0,0.0,0.0,0.0,0.0,0.0,0.0,0.0,0.0,0.0,0.0,0.0,0.0,0.0,0.0,0.0,0.0,0.0,0.0,0.0,0.0,0.0,0.0,0.0,0.0,0.0,0.0,0.0,0.0,0.0,0.0,0.0,0.0,0.0,0.0,0.0,0.0,0.0,0.0,0.0,0.0,0.0,0.0,0.0,0.0,1.1117,0.0,0.0,0.0,0.0,0.0,0.0,0.0,0.0,0.0,0.0,0.0,0.0,0.0,0.0,0.0,0.0,0.0,0.0,0.0,0.0,0.0,0.0,0.0,0.0,0.0,0.0,0.0,0.0,0.0,0.0,0.0,0.0,0.0,0.0,0.0,0.0,0.0,0.0,0.0,0.0,0.0,0.0,0.0,0.0,0.0,0.0,0.0,0.0,0.0,0.0,0.0,0.0,0.0,0.0,0.0,0.0,0.0,0.0,0.0,0.0,0.0,0.0,0.0,0.0,0.0,0.0,0.0,0.0,0.0,0.0,0.0,0.0,0.0,0.0,0.0,0.0,0.0,0.0,0.0,0.0,0.0,0.0,0.0,0.0,0.0,0.0,0.0,0.0,0.0,0.0,0.0,0.0,0.0,0.0,0.0,0.0,0.0,0.0,0.0,0.0,0.0,0.0,0.0,0.0,0.0,0.0,0.0,0.0,0.0,0.0,1.1117,1.1117,1.1117,1.1117,1.1117,0.0,0.0,0.0,0.0,0.0,0.0,0.0,0.0,0.0,0.0,0.0,0.0,0.0,0.0,0.0,0.0,0.0,0.0,0.0,0.0,0.0,0.0,0.0,0.0,0.0,0.0,0.0,0.0,0.0,0.0,0.0,0.0,0.0,0.0,0.0,0.0,0.0,0.0,0.0,0.0,0.0,0.0,0.0,0.0,0.0,0.0,0.0,0.0,0.0,0.0,0.0,0.0,0.0,0.0,0.0,0.0,0.0,0.0,0.0,0.0,0.0,0.0,0.0,0.0,0.0,0.0,0.0,0.0,0.0,0.0,0.0,0.0,0.0,0.0,0.0,0.0,0.0,0.0,0.0,0.0,0.0,0.0,0.0,0.0,0.0,0.0,0.0,0.0,0.0,0.0,0.0,0.0,0.0,0.0,0.0,0.0,0.0,0.0,0.0,0.0,0.0,0.0,0.0,0.0,0.0,0.0,0.0,0.0,0.0,0.0,0.0,0.0,1.1242,1.1223,1.1242,0.0,0.0,0.0,0.0,0.0,0.0,0.0,0.0,0.0,0.0,0.0,0.0,0.0,0.0,0.0,0.0,0.0,0.0,0.0,0.0,0.0,0.0,0.0,0.0,0.0,0.0,0.0,0.0,0.0,0.0,0.0,0.0,0.0,0.0,0.0,0.0,0.0,0.0,0.0,0.0,0.0,0.0,0.0,0.0,0.0,0.0,0.0,0.0,0.0,0.0,0.0,0.0,0.0,0.0,0.0,0.0,0.0,0.0,0.0,0.0,0.0,0.0,0.0,0.0,0.0,0.0,0.0,0.0,0.0,0.0,0.0,0.0,0.0,0.0,0.0,0.0,0.0,0.0,0.0,0.0,0.0,0.0,0.0,0.0,0.0,0.0,0.0,0.0,0.0,0.0,0.0,0.0,0.0,0.0,0.0,0.0,0.0,0.0,0.0,0.0,0.0,0.0,0.0,0.0,0.0,0.0,0.0,0.0,0.0,0.0,1.1632,1.1651,1.1651,0.0,1.1651,0.0,0.0,0.0,0.0,0.0,0.0,0.0,0.0,0.0,0.0,0.0,0.0,0.0,0.0,0.0,0.0,0.0,0.0,0.0,0.0,0.0,0.0,0.0,0.0,0.0,0.0,0.0,0.0,0.0,0.0,0.0,0.0,0.0,0.0,0.0,0.0,0.0,0.0,0.0,0.0,0.0,0.0,0.0,0.0,0.0,0.0,0.0,0.0,0.0,0.0,0.0,0.0,0.0,0.0,0.0,0.0,0.0,0.0,0.0,0.0,0.0,0.0,0.0,0.0,0.0,0.0,0.0,0.0,0.0,0.0,0.0,0.0,0.0,0.0,0.0,0.0,0.0,0.0,0.0,0.0,0.0,0.0,0.0,0.0,0.0,0.0,0.0,0.0,0.0,0.0,0.0,0.0,0.0,0.0,0.0,0.0,0.0,0.0,0.0,0.0,0.0,0.0,0.0,0.0,0.0,0.0,0.0,0.0,0.0,0.0,1.1688,1.1688,1.1818,1.1777,0.0,0.0,0.0,0.0,0.0,0.0,0.0,0.0,0.0,0.0,0.0,0.0,0.0,0.0,0.0,0.0,0.0,0.0,0.0,0.0,0.0,0.0,0.0,0.0,0.0,0.0,0.0,0.0,0.0,0.0,0.0,0.0,0.0,0.0,0.0,0.0,0.0,0.0,0.0,0.0,0.0,0.0,0.0,0.0,0.0,0.0,0.0,0.0,0.0,0.0,0.0,0.0,0.0,0.0,0.0,0.0,0.0,0.0,0.0,0.0,0.0,0.0,0.0,0.0,0.0,0.0,0.0,0.0,0.0,0.0,0.0,0.0,0.0,0.0,0.0,0.0,0.0,0.0,0.0,0.0,0.0,0.0,0.0,0.0,0.0,0.0,0.0,0.0,0.0,0.0,0.0,0.0,0.0,0.0,0.0,0.0,0.0,0.0,0.0,0.0,0.0,0.0,0.0,0.0,0.0,0.0,0.0,0.0,0.0,0.0,1.2169,1.2046,1.2033,1.2071,1.2023,1.1828,0.0,0.0,0.0,0.0,0.0,0.0,0.0,0.0,0.0,0.0,0.0,0.0,0.0,0.0,0.0,0.0,0.0,0.0,0.0,0.0,0.0,0.0,0.0,0.0,0.0,0.0,0.0,0.0,0.0,0.0,0.0,0.0,0.0,0.0,0.0,0.0,0.0,0.0,0.0,0.0,0.0,0.0,0.0,0.0,0.0,0.0,0.0,0.0,0.0,0.0,0.0,0.0,0.0,0.0,0.0,0.0,0.0,0.0,0.0,0.0,0.0,0.0,0.0,0.0,0.0,0.0,0.0,0.0,0.0,0.0,0.0,0.0,0.0,0.0,0.0,0.0,0.0,0.0,0.0,0.0,0.0,0.0,0.0,0.0,0.0,0.0,0.0,0.0,0.0,0.0,0.0,0.0,0.0,0.0,0.0,0.0,0.0,0.0,0.0,0.0,0.0,0.0,0.0,0.0,0.0,0.0,0.0,0.0,1.2881,1.2845,1.2845,1.2813,1.2559,1.2463,0.0,0.0,0.0,0.0,0.0,0.0,0.0,0.0,0.0,0.0,0.0,0.0,0.0,0.0,0.0,0.0,0.0,0.0,0.0,0.0,0.0,0.0,0.0,0.0,0.0,0.0,0.0,0.0,0.0,0.0,0.0,0.0,0.0,0.0,0.0,0.0,0.0,0.0,0.0,0.0,0.0,0.0,0.0,0.0,0.0,0.0,0.0,0.0,0.0,0.0,0.0,0.0,0.0,0.0,0.0,0.0,0.0,0.0,0.0,0.0,0.0,0.0,0.0,0.0,0.0,0.0,0.0,0.0,0.0,0.0,0.0,0.0,0.0,0.0,0.0,0.0,0.0,0.0,0.0,0.0,0.0,0.0,0.0,0.0,0.0,0.0,0.0,0.0,0.0,0.0,0.0,0.0,0.0,0.0,0.0,0.0,0.0,0.0,0.0,0.0,0.0,0.0,0.0,0.0,0.0,0.0,0.0,0.0,0.0,1.3481,1.3229,1.3035,1.2911,1.2813,1.2714,0.0,0.0,0.0,0.0,0.0,0.0,0.0,0.0,0.0,0.0,0.0,0.0,0.0,0.0,0.0,0.0,0.0,0.0,0.0,0.0,0.0,0.0,0.0,0.0,0.0,0.0,0.0,0.0,0.0,0.0,0.0,0.0,0.0,0.0,0.0,0.0,0.0,0.0,0.0,0.0,0.0,0.0,0.0,0.0,0.0,0.0,0.0,0.0,0.0,0.0,0.0,0.0,0.0,0.0,0.0,0.0,0.0,0.0,0.0,0.0,0.0,0.0,0.0,0.0,0.0,0.0,0.0,0.0,0.0,0.0,0.0,0.0,0.0,0.0,0.0,0.0,0.0,0.0,0.0,0.0,0.0,0.0,0.0,0.0,0.0,0.0,0.0,0.0,0.0,0.0,0.0,0.0,0.0,0.0,0.0,0.0,0.0,0.0,0.0,0.0,0.0,0.0,0.0,0.0,0.0,0.0,0.0,0.0,0.0,1.399,0.0,1.343,0.0,1.312,1.2976,0.0,0.0,0.0,0.0,0.0,0.0,0.0,0.0,0.0,0.0,0.0,0.0,0.0,0.0,0.0,0.0,0.0,0.0,0.0,0.0,0.0,0.0,0.0,0.0,0.0,0.0,0.0,0.0,0.0,0.0,0.0,0.0,0.0,0.0,0.0,0.0,0.0,0.0,0.0,0.0,0.0,0.0,0.0,0.0,0.0,0.0,0.0,0.0,0.0,0.0,0.0,0.0,0.0,0.0,0.0,0.0,0.0,0.0,0.0,0.0,0.0,0.0,0.0,0.0,0.0,0.0,0.0,0.0,0.0,0.0,0.0,0.0,0.0,0.0,0.0,0.0,0.0,0.0,0.0,0.0,0.0,0.0,0.0,0.0,0.0,0.0,0.0,0.0,0.0,0.0,0.0,0.0,0.0,0.0,0.0,0.0,0.0,0.0,0.0,0.0,0.0,0.0,0.0,0.0,0.0,0.0,0.0,0.0,1.4567,1.4405,1.4232,1.4139,1.4104,1.3496,1.3271,0.0,0.0,0.0,0.0,0.0,0.0,0.0,0.0,0.0,0.0,0.0,0.0,0.0,0.0,0.0,0.0,0.0,0.0,0.0,0.0,0.0,0.0,0.0,0.0,0.0,0.0,0.0,0.0,0.0,0.0,0.0,0.0,0.0,0.0,0.0,0.0,0.0,0.0,0.0,0.0,0.0,0.0,0.0,0.0,0.0,0.0,0.0,0.0,0.0,0.0,0.0,0.0,0.0,0.0,0.0,0.0,0.0,0.0,0.0,0.0,0.0,0.0,0.0,0.0,0.0,0.0,0.0,0.0,0.0,0.0,0.0,0.0,0.0,0.0,0.0,0.0,0.0,0.0,0.0,0.0,0.0,0.0,0.0,0.0,0.0,0.0,0.0,0.0,0.0,0.0,0.0,0.0,0.0,0.0,0.0,0.0,0.0,0.0,0.0,0.0,0.0,0.0,0.0,0.0,0.0,0.0,0.0,0.0,0.0,1.518,1.5375,1.5282,1.4854,1.4571,1.4205,0.0,0.0,0.0,0.0,0.0,0.0,0.0,0.0,0.0,0.0,0.0,0.0,0.0,0.0,0.0,0.0,0.0,0.0,0.0,0.0,0.0,0.0,0.0,0.0,0.0,0.0,0.0,0.0,0.0,0.0,0.0,0.0,0.0,0.0,0.0,0.0,0.0,0.0,0.0,0.0,0.0,0.0,0.0,0.0,0.0,0.0,0.0,0.0,0.0,0.0,0.0,0.0,0.0,0.0,0.0,0.0,0.0,0.0,0.0,0.0,0.0,0.0,0.0,0.0,0.0,0.0,0.0,0.0,0.0,0.0,0.0,0.0,0.0,0.0,0.0,0.0,0.0,0.0,0.0,0.0,0.0,0.0,0.0,0.0,0.0,0.0,0.0,0.0,0.0,0.0,0.0,0.0,0.0,0.0,0.0,0.0,0.0,0.0,0.0,0.0,0.0,0.0,0.0,0.0,0.0,0.0,0.0,0.0,0.0,1.7367,1.7241,1.6958,1.645,1.6079,1.5407,1.4379,0.0,0.0,0.0,0.0,0.0,0.0,0.0,0.0,0.0,0.0,0.0,0.0,0.0,0.0,0.0,0.0,0.0,0.0,0.0,0.0,0.0,0.0,0.0,0.0,0.0,0.0,0.0,0.0,0.0,0.0,0.0,0.0,0.0,0.0,0.0,0.0,0.0,0.0,0.0,0.0,0.0,0.0,0.0,0.0,0.0,0.0,0.0,0.0,0.0,0.0,0.0,0.0,0.0,0.0,0.0,0.0,0.0,0.0,0.0,0.0,0.0,0.0,0.0,0.0,0.0,0.0,0.0,0.0,0.0,0.0,0.0,0.0,0.0,0.0,0.0,0.0,0.0,0.0,0.0,0.0,0.0,0.0,0.0,0.0,0.0,0.0,0.0,0.0,0.0,0.0,0.0,0.0,0.0,0.0,0.0,0.0,0.0,0.0,0.0,0.0,0.0,0.0,0.0,0.0,0.0,0.0,0.0,0.0,2.0713,1.9856,1.9204,1.8734,1.7983,1.6882,0.0,0.0,0.0,0.0,0.0,0.0,0.0,0.0,0.0,0.0,0.0,0.0,0.0,0.0,0.0,0.0,0.0,0.0,0.0,0.0,0.0,0.0,0.0,0.0,0.0,0.0,0.0,0.0,0.0,0.0,0.0,0.0,0.0,0.0,0.0,0.0,0.0,0.0,0.0,0.0,0.0,0.0,0.0,0.0,0.0,0.0,0.0,0.0,0.0,0.0,0.0,0.0,0.0,0.0,0.0,0.0,0.0,0.0,0.0,0.0,0.0,0.0,0.0,0.0,0.0,0.0,0.0,0.0,0.0,0.0,0.0,0.0,0.0,0.0,0.0,0.0,0.0,0.0,0.0,0.0,0.0,0.0,0.0,0.0,0.0,0.0,0.0,0.0,0.0,0.0,0.0,0.0,0.0,0.0,0.0,0.0,0.0,0.0,0.0,0.0,0.0,0.0,0.0,0.0,0.0,0.0,0.0,0.0,0.0,2.3553,2.411,2.3375,2.1393,2.0267,1.898,0.0,0.0,0.0,0.0,0.0,0.0,0.0,0.0,0.0,0.0,0.0,0.0,0.0,0.0,0.0,0.0,0.0,0.0,0.0,0.0,0.0,0.0,0.0,0.0,0.0,0.0,0.0,0.0,0.0,0.0,0.0,0.0,0.0,0.0,0.0,0.0,0.0,0.0,0.0,0.0,0.0,0.0,0.0,0.0,0.0,0.0,0.0,0.0,0.0,0.0,0.0,0.0,0.0,0.0,0.0,0.0,0.0,0.0,0.0,0.0,0.0,0.0,0.0,0.0,0.0,0.0,0.0,0.0,0.0,0.0,0.0,0.0,0.0,0.0,0.0,0.0,0.0,0.0,0.0,0.0,0.0,0.0,0.0,0.0,0.0,0.0,0.0,0.0,0.0,0.0,0.0,0.0,0.0,0.0,0.0,0.0,0.0,0.0,0.0,0.0,0.0,0.0,0.0,0.0,0.0,0.0,0.0,0.0,2.2401,2.4773,2.6336,2.6318,2.4654,2.2559,2.0436,0.0,0.0,0.0,0.0,0.0,0.0,0.0,0.0,0.0,0.0,0.0,0.0,0.0,0.0,0.0,0.0,0.0,0.0,0.0,0.0,0.0,0.0,0.0,0.0,0.0,0.0,0.0,0.0,0.0,0.0,0.0,0.0,0.0,0.0,0.0,0.0,0.0,0.0,0.0,0.0,0.0,0.0,0.0,0.0,0.0,0.0,0.0,0.0,0.0,0.0,0.0,0.0,0.0,0.0,0.0,0.0,0.0,0.0,0.0,0.0,0.0,0.0,0.0,0.0,0.0,0.0,0.0,0.0,0.0,0.0,0.0,0.0,0.0,0.0,0.0,0.0,0.0,0.0,0.0,0.0,0.0,0.0,0.0,0.0,0.0,0.0,0.0,0.0,0.0,0.0,0.0,0.0,0.0,0.0,0.0,0.0,0.0,0.0,0.0,0.0,0.0,0.0,0.0,0.0,0.0,0.0,0.0,0.0,2.3272,2.4975,2.7205,2.8215,2.7729,2.4639,2.1604,0.0,0.0,0.0,0.0,0.0,0.0,0.0,0.0,0.0,0.0,0.0,0.0,0.0,0.0,0.0,0.0,0.0,0.0,0.0,0.0,0.0,0.0,0.0,0.0,0.0,0.0,0.0,0.0,0.0,0.0,0.0,0.0,0.0,0.0,0.0,0.0,0.0,0.0,0.0,0.0,0.0,0.0,0.0,0.0,0.0,0.0,0.0,0.0,0.0,0.0,0.0,0.0,0.0,0.0,0.0,0.0,0.0,0.0,0.0,0.0,0.0,0.0,0.0,0.0,0.0,0.0,0.0,0.0,0.0,0.0,0.0,0.0,0.0,0.0,0.0,0.0,0.0,0.0,0.0,0.0,0.0,0.0,0.0,0.0,0.0,0.0,0.0,0.0,0.0,0.0,0.0,0.0,0.0,0.0,0.0,0.0,0.0,0.0,0.0,0.0,0.0,0.0,0.0,0.0,0.0,0.0,0.0,0.0,2.4201,2.6169,2.7636,2.8225,2.7793,2.5573,2.3282,0.0,0.0,0.0,0.0,0.0,0.0,0.0,0.0,0.0,0.0,0.0,0.0,0.0,0.0,0.0,0.0,0.0,0.0,0.0,0.0,0.0,0.0,0.0,0.0,0.0,0.0,0.0,0.0,0.0,0.0,0.0,0.0,0.0,0.0,0.0,0.0,0.0,0.0,0.0,0.0,0.0,0.0,0.0,0.0,0.0,0.0,0.0,0.0,1.1496,0.0,0.0,0.0,0.0,0.0,0.0,0.0,0.0,0.0,0.0,0.0,0.0,0.0,0.0,0.0,0.0,0.0,0.0,0.0,0.0,0.0,0.0,0.0,0.0,0.0,0.0,0.0,0.0,0.0,0.0,0.0,0.0,0.0,0.0,0.0,0.0,0.0,0.0,0.0,0.0,0.0,0.0,0.0,0.0,0.0,0.0,0.0,0.0,0.0,0.0,0.0,0.0,0.0,0.0,0.0,0.0,0.0,0.0,0.0,2.4503,2.6536,2.7765,2.8196,2.7757,2.6031,2.4015,0.0,0.0,0.0,0.0,0.0,0.0,0.0,0.0,0.0,0.0,0.0,0.0,0.0,0.0,0.0,0.0,0.0,0.0,0.0,0.0,0.0,0.0,0.0,0.0,0.0,0.0,0.0,0.0,0.0,0.0,0.0,0.0,0.0,0.0,0.0,0.0,0.0,0.0,0.0,0.0,0.0,0.0,0.0,0.0,0.0,0.0,0.0,0.0,0.0,0.0,0.0,0.0,0.0,0.0,0.0,0.0,0.0,0.0,0.0,0.0,0.0,0.0,0.0,0.0,0.0,0.0,0.0,0.0,0.0,0.0,0.0,0.0,0.0,0.0,0.0,0.0,0.0,0.0,0.0,0.0,0.0,0.0,0.0,0.0,0.0,0.0,0.0,0.0,0.0,0.0,0.0,0.0,0.0,0.0,0.0,0.0,0.0,0.0,0.0,0.0,0.0,0.0,0.0,0.0,0.0,0.0,0.0,2.2607,2.462,2.6462,2.7673,2.8067,2.761,2.6114,2.4186,2.176,0.0,0.0,0.0,0.0,0.0,0.0,0.0,0.0,0.0,0.0,0.0,0.0,0.0,0.0,0.0,0.0,0.0,0.0,0.0,0.0,0.0,0.0,0.0,0.0,0.0,0.0,0.0,0.0,0.0,0.0,0.0,0.0,0.0,0.0,0.0,0.0,0.0,0.0,1.019,1.0993,0.0,0.0,0.0,0.0,0.0,0.0,0.0,0.0,1.1994,0.0,0.0,0.0,0.0,0.0,0.0,0.0,0.0,0.0,0.0,0.0,0.0,0.0,0.0,0.0,0.0,0.0,0.0,0.0,0.0,0.0,0.0,0.0,0.0,0.0,0.0,0.0,0.0,0.0,0.0,0.0,0.0,0.0,0.0,0.0,0.0,0.0,0.0,0.0,0.0,0.0,0.0,0.0,0.0,0.0,0.0,0.0,0.0,0.0,0.0,0.0,0.0,0.0,0.0,0.0,0.0,2.0482,2.3189,2.5095,2.6077,2.727,2.7555,2.6784,2.5546,2.3895,2.176,0.0,0.0,0.0,0.0,0.0,0.0,0.0,0.0,0.0,0.0,0.0,0.0,0.0,0.0,0.0,0.0,0.0,0.0,0.0,0.0,0.0,0.0,0.0,0.0,0.0,0.0,0.0,0.0,0.0,0.0,0.0,0.0,0.0,0.0,0.0,0.0,0.0,0.0,0.0,1.1322,1.178,0.0,0.0,0.0,0.0,0.0,0.0,0.0,0.0,1.2055,0.0,0.0,0.0,0.0,0.0,0.0,0.0,0.0,0.0,0.0,0.0,0.0,0.0,0.0,0.0,0.0,0.0,0.0,0.0,0.0,0.0,0.0,0.0,0.0,0.0,0.0,0.0,0.0,0.0,0.0,0.0,0.0,0.0,0.0,0.0,0.0,0.0,0.0,0.0,0.0,0.0,0.0,0.0,0.0,0.0,0.0,0.0,0.0,0.0,0.0,0.0,0.0,0.0,0.0,0.0,2.1141,2.3749,2.56,2.66,2.7389,2.7417,2.6591,2.5232,2.3516,0.0,0.0,0.0,0.0,0.0,0.0,0.0,0.0,0.0,0.0,0.0,0.0,0.0,0.0,0.0,0.0,0.0,0.0,0.0,0.0,0.0,0.0,0.0,0.0,0.0,0.0,0.0,0.0,0.0,0.0,0.0,0.0,0.0,0.0,0.0,0.0,0.0,0.0,0.0,0.0,1.1687,1.226,1.3062,0.0,0.0,0.0,0.0,0.0,0.0,1.2828,1.2539,0.0,0.0,0.0,0.0,0.0,0.0,0.0,0.0,0.0,0.0,0.0,0.0,0.0,0.0,0.0,0.0,0.0,0.0,0.0,0.0,0.0,0.0,0.0,0.0,0.0,0.0,0.0,0.0,0.0,0.0,0.0,0.0,0.0,0.0,0.0,0.0,0.0,0.0,0.0,0.0,0.0,0.0,0.0,0.0,0.0,0.0,0.0,0.0,0.0,0.0,0.0,0.0,0.0,0.0,0.0,2.1581,2.4097,2.5866,2.6811,2.7316,2.7178,2.6344,2.4783,2.2988,0.0,0.0,0.0,0.0,0.0,0.0,0.0,0.0,0.0,0.0,0.0,0.0,0.0,0.0,0.0,0.0,0.0,0.0,0.0,0.0,0.0,0.0,0.0,0.0,0.0,0.0,0.0,0.0,0.0,0.0,0.0,0.0,0.0,0.0,0.0,0.0,0.0,0.0,0.0,0.0,0.0,1.2712,1.3555,1.3401,0.0,0.0,0.0,0.0,1.3328,1.3403,0.0,0.0,0.0,0.0,0.0,0.0,0.0,0.0,0.0,0.0,0.0,0.0,0.0,0.0,0.0,0.0,0.0,0.0,0.0,0.0,0.0,0.0,0.0,0.0,0.0,0.0,0.0,0.0,0.0,0.0,0.0,0.0,0.0,0.0,0.0,0.0,0.0,0.0,0.0,0.0,0.0,0.0,0.0,0.0,0.0,0.0,0.0,0.0,0.0,0.0,0.0,0.0,0.0,0.0,0.0,0.0,2.1187,2.395,2.5471,2.5636,2.6325,2.6344,2.5544,2.3917,2.2286,0.0,0.0,0.0,0.0,0.0,0.0,0.0,0.0,0.0,0.0,0.0,0.0,0.0,0.0,0.0,0.0,0.0,0.0,0.0,0.0,0.0,0.0,0.0,0.0,0.0,0.0,0.0,0.0,0.0,0.0,0.0,0.0,0.0,0.0,0.0,0.0,0.0,0.0,0.0,0.0,0.0,1.2777,1.3803,1.3664,1.3515,0.0,0.0,0.0,1.4129,1.4225,0.0,0.0,0.0,0.0,0.0,0.0,0.0,0.0,0.0,0.0,0.0,0.0,0.0,0.0,0.0,0.0,0.0,0.0,0.0,0.0,0.0,0.0,0.0,0.0,0.0,0.0,0.0,0.0,0.0,0.0,0.0,0.0,0.0,0.0,0.0,0.0,0.0,0.0,0.0,0.0,0.0,0.0,0.0,0.0,0.0,0.0,0.0,0.0,0.0,0.0,0.0,0.0,0.0,0.0,0.0,1.9852,2.1471,2.4067,2.5398,2.5407,2.5967,2.5875,2.5076,2.3446,2.1897,0.0,0.0,0.0,0.0,0.0,0.0,0.0,0.0,0.0,0.0,0.0,0.0,0.0,0.0,0.0,0.0,0.0,0.0,0.0,0.0,0.0,0.0,0.0,0.0,0.0,0.0,0.0,0.0,0.0,0.0,0.0,0.0,0.0,0.0,0.0,0.0,0.0,0.0,0.0,0.0,0.0,0.0,1.3688,1.3993,0.0,0.0,0.0,1.4346,1.4304,0.0,0.0,0.0,0.0,0.0,0.0,0.0,0.0,0.0,0.0,0.0,0.0,0.0,0.0,0.0,0.0,0.0,0.0,0.0,0.0,0.0,0.0,0.0,0.0,0.0,0.0,0.0,0.0,0.0,0.0,0.0,0.0,0.0,0.0,0.0,0.0,0.0,0.0,0.0,0.0,0.0,0.0,0.0,0.0,0.0,0.0,0.0,0.0,0.0,0.0,0.0,0.0,0.0,0.0,0.0,0.0,0.0,2.1696,2.4033,2.5242,2.526,2.5535,2.5407,2.4801,2.3266,0.0,0.0,0.0,0.0,0.0,0.0,0.0,0.0,0.0,0.0,0.0,0.0,0.0,0.0,0.0,0.0,0.0,0.0,0.0,0.0,0.0,0.0,0.0,0.0,0.0,0.0,0.0,0.8678,0.0,0.0,0.0,0.0,0.0,0.0,0.0,0.0,0.0,0.0,0.0,0.0,0.0,0.0,1.3107,1.3617,1.431,1.4816,0.0,0.0,1.4738,1.4618,1.4866,1.4617,0.0,0.0,0.0,0.0,0.0,0.0,0.0,0.0,0.0,0.0,0.0,0.0,0.0,0.0,0.0,0.0,0.0,0.0,0.0,0.0,0.0,0.0,0.0,0.0,0.0,0.0,0.0,0.0,0.0,0.0,0.0,0.0,0.0,0.0,0.0,0.0,0.0,0.0,0.0,0.0,0.0,0.0,0.0,0.0,0.0,0.0,0.0,0.0,0.0,0.0,0.0,0.0,0.0,0.0,0.0,2.1718,2.3767,2.4847,2.4856,2.4874,2.4865,2.4792,2.3541,2.2117,0.0,0.0,0.0,0.0,0.0,0.0,0.0,0.0,0.0,0.0,0.0,0.0,0.0,0.0,0.0,0.0,0.0,0.0,0.0,0.0,0.0,0.0,0.0,0.0,0.0,0.0,0.0,0.0,0.0,0.0,0.0,0.0,0.0,0.0,0.0,0.0,0.0,0.0,0.0,0.0,0.0,1.3176,1.3864,1.4588,1.5167,0.0,0.0,1.5136,1.5378,1.5644,1.5319,1.3801,0.0,0.0,0.0,0.0,0.0,0.0,0.0,0.0,0.0,0.0,0.0,0.0,0.0,0.0,0.0,0.0,0.0,0.0,0.0,0.0,0.0,0.0,0.0,0.0,0.0,0.0,0.0,0.0,0.0,0.0,0.0,0.0,0.0,0.0,0.0,0.0,0.0,0.0,0.0,0.0,0.0,0.0,0.0,0.0,0.0,0.0,0.0,0.0,0.0,0.0,0.0,0.0,0.0,2.0335,2.1932,2.3867,2.479,2.4606,2.4606,2.4565,2.445,2.3431,2.2373,0.0,0.0,0.0,0.0,0.0,0.0,0.0,0.0,0.0,0.0,0.0,0.0,0.0,0.0,0.0,0.0,0.0,0.0,0.0,0.0,0.0,0.0,0.0,0.0,0.0,0.0,0.0,0.0,1.0566,1.0532,1.0389,0.0,0.0,0.0,0.0,0.0,0.0,0.0,0.0,0.0,0.0,1.346,1.4373,1.4975,0.0,0.0,1.5415,1.5273,1.5033,1.5235,1.4871,1.3358,1.2869,0.0,0.0,0.0,0.0,0.0,0.0,0.0,0.0,0.0,0.0,0.0,0.0,0.0,0.0,0.0,0.0,0.0,0.0,0.0,0.0,0.0,0.0,0.0,0.0,0.0,0.0,0.0,0.0,0.0,0.0,0.0,0.0,0.0,0.0,0.0,0.0,0.0,0.0,0.0,0.0,0.0,0.0,0.0,0.0,0.0,0.0,0.0,0.0,0.0,0.0,0.0,0.0,2.063,2.2087,2.3947,2.4809,2.4637,2.4603,2.4523,2.4273,2.3699,2.2906,0.0,0.0,0.0,0.0,0.0,0.0,0.0,0.0,0.0,0.0,0.0,0.0,0.0,0.0,0.0,0.0,0.0,0.0,0.0,0.0,0.0,0.0,0.0,0.0,0.0,0.0,0.0,0.0,1.1133,1.0945,1.0559,0.0,0.0,0.0,0.0,0.0,0.0,0.0,0.0,0.0,0.0,1.3917,1.4663,1.5136,1.5359,1.5275,1.5183,1.4999,1.4562,1.4653,1.4369,1.3218,0.0,0.0,0.0,0.0,0.0,0.0,0.0,0.0,0.0,0.0,0.0,0.0,0.0,0.0,0.0,0.0,0.0,0.0,0.0,0.0,0.0,0.0,0.0,0.0,0.0,0.0,0.0,0.0,0.0,0.0,0.0,0.0,0.0,0.0,0.0,0.0,0.0,0.0,0.0,0.0,0.0,0.0,0.0,0.0,0.0,0.0,0.0,0.0,0.0,0.0,0.0,0.0,0.0,0.0,2.2097,2.397,2.4907,2.4907,2.4883,2.4775,2.4514,2.4461,2.3779,2.2337,0.0,0.0,0.0,0.0,0.0,0.0,0.0,0.0,0.0,0.0,0.0,0.0,0.0,0.0,0.0,0.0,0.0,0.0,0.0,0.0,0.0,0.0,0.0,0.0,0.0,0.0,1.0939,1.1157,1.1031,0.0,0.0,0.0,0.0,0.0,0.0,0.0,0.0,0.0,0.0,1.3868,1.4452,1.4673,1.4929,1.5037,1.4789,1.4501,1.4256,1.4058,1.4014,1.391,0.0,0.0,0.0,0.0,0.0,0.0,0.0,0.0,0.0,0.0,0.0,0.0,0.0,0.0,0.0,0.0,0.0,0.0,0.0,0.0,0.0,0.0,0.0,0.0,0.0,0.0,0.0,0.0,2.1732,0.0,0.0,0.0,0.0,0.0,0.0,0.0,0.0,0.0,0.0,0.0,2.4257,2.4075,0.0,0.0,0.0,0.0,0.0,0.0,0.0,0.0,0.0,0.0,0.0,0.0,2.1224,2.2571,2.4453,2.5357,2.5162,2.5162,2.5039,2.476,2.4612,2.3807,2.2341,0.0,0.0,0.0,0.0,0.0,0.0,0.0,0.0,0.0,0.0,0.0,0.0,0.0,0.0,0.0,0.0,0.0,0.0,0.0,0.0,0.0,0.0,0.0,0.0,0.0,1.2269,0.0,0.0,0.0,0.0,0.0,0.0,0.0,0.0,0.0,0.0,0.0,1.3773,1.4991,1.4829,1.4674,1.4942,1.5028,1.5077,0.0,0.0,0.0,0.0,0.0,0.0,0.0,0.0,0.0,0.0,0.0,0.0,0.0,0.0,0.997,0.9549,0.9724,0.9966,1.0015,0.0,0.0,0.0,0.0,0.0,0.0,0.0,0.0,0.0,0.0,0.0,0.0,0.0,0.0,0.0,0.0,2.4098,0.0,0.0,0.0,0.0,0.0,0.0,0.0,0.0,2.5527,2.6579,2.7455,2.7249,2.6943,0.0,2.6075,2.429,0.0,0.0,0.0,0.0,0.0,0.0,0.0,0.0,2.174,2.2823,2.4712,2.5611,2.544,2.544,2.5318,2.5064,2.4686,2.402,2.3011,2.2424,2.1374,0.0,0.0,0.0,0.0,0.0,0.0,0.0,0.0,0.0,0.0,0.0,0.0,0.0,0.0,0.0,0.0,0.0,0.0,0.0,0.0,0.0,0.0,0.0,1.3485,0.0,0.0,0.0,0.0,0.0,0.0,0.0,0.0,0.0,1.394,1.4387,1.5061,1.6018,1.5848,1.5488,1.5083,0.0,0.0,0.0,0.0,0.0,0.0,0.0,1.3099,1.2931,1.2811,1.2659,1.2259,1.1889,1.1619,1.1515,0.0,0.0,1.0616,1.0651,1.0826,1.0925,1.094,1.0965,1.1024,1.1039,1.1087,0.0,0.0,0.0,0.0,0.0,0.0,0.0,0.0,2.8454,2.7952,0.0,2.7533,0.0,0.0,0.0,0.0,0.0,0.0,0.0,0.0,2.8798,2.9942,3.0573,2.967,2.9703,3.0417,2.7618,2.6633,2.7183,2.4482,0.0,0.0,0.0,0.0,0.0,0.0,2.2433,2.2912,2.4742,2.5708,2.5684,2.5684,2.5572,2.5284,2.4784,2.4406,2.4165,2.3391,2.2678,2.2102,2.0262,0.0,0.0,0.0,0.0,0.0,0.0,0.0,0.0,0.0,0.0,0.0,0.0,0.0,0.0,0.0,0.0,0.0,0.0,0.0,0.0,1.5295,0.0,0.0,0.0,0.0,0.0,0.0,0.0,0.0,0.0,0.0,1.4469,1.5251,1.5957,1.6231,0.0,0.0,0.0,0.0,1.6065,1.4257,1.3963,1.3825,1.3337,1.3229,1.3436,1.4192,0.0,0.0,1.3244,1.2674,1.2228,1.1925,1.229,1.2274,1.1688,1.1349,1.1189,1.1408,1.1487,1.1517,1.1682,1.177,1.1837,3.0996,0.0,0.0,0.0,0.0,2.9078,3.0036,3.1251,3.1434,3.1148,3.0498,3.005,0.0,0.0,0.0,0.0,0.0,0.0,2.8379,2.976,3.0598,3.1492,3.2358,3.2089,3.1755,3.1298,3.1125,3.0374,2.913,2.888,2.6785,2.2921,0.0,0.0,0.0,0.0,2.3442,2.3981,2.5118,2.5708,2.5708,2.5708,2.5562,2.5308,2.499,2.4686,2.443,2.4055,2.3468,2.2711,2.1861,0.0,0.0,0.0,0.0,0.0,0.0,0.0,0.0,0.0,0.0,0.0,0.0,0.0,0.0,0.0,0.0,0.0,0.0,0.0,1.582,1.6053,1.5639,0.0,0.0,0.0,0.0,0.0,0.0,0.0,0.0,0.0,1.6533,1.6624,1.6916,0.0,0.0,1.653,1.5652,1.5701,1.5625,1.5116,0.0,0.0,0.0,1.4341,1.4337,1.3596,1.4137,1.4809,1.536,1.5234,1.5071,1.5193,1.4558,1.3964,1.3993,1.3196,1.2515,1.243,1.2515,1.2618,1.2667,1.2683,1.2777,3.4737,3.3025,3.113,3.0492,3.0771,3.1623,3.2373,3.3046,3.3607,3.331,3.2413,3.2278,3.1434,3.008,2.9464,0.0,0.0,0.0,3.0836,3.1868,3.2521,3.3031,3.3395,3.3429,3.3099,3.2526,3.2393,3.1921,3.1112,3.08,2.9494,2.7133,0.0,0.0,2.4215,2.4421,2.4662,2.5011,2.5474,2.5708,2.5708,2.5708,2.5562,2.5308,2.5128,2.4932,2.4686,2.444,2.4094,2.3566,2.2878,2.1884,0.0,0.0,0.0,0.0,0.0,0.0,0.0,0.0,0.0,0.0,0.0,1.5158,0.0,0.0,0.0,0.0,1.6873,1.7093,1.7352,1.7363,0.0,0.0,0.0,0.0,0.0,0.0,0.0,1.5511,1.6232,1.6913,1.7431,1.7416,1.7559,1.8212,1.7886,1.7284,1.6388,0.0,1.6588,1.606,1.6042,1.5779,1.4908,1.5381,1.5545,1.4679,1.5285,1.5993,1.6391,1.6127,1.5921,1.6128,1.5428,1.4669,1.4773,1.4279,1.378,1.3467,1.3573,1.371,1.3696,1.3799,1.3899,3.8292,3.8403,3.4703,3.3018,3.2881,3.4027,3.4528,3.458,3.5129,3.4666,3.3596,3.4191,3.3643,3.2256,3.2054,0.0,0.0,3.287,3.3303,3.3585,3.4404,3.4472,3.3994,3.3982,3.3982,3.3903,3.2273,3.2086,3.3086,3.121,3.0676,3.1479,2.9409,2.7886,2.7033,2.6507,2.6186,2.6038,2.6046,2.598,2.583,2.5732,2.5577,2.5357,2.5318,2.5186,2.4941,2.4686,2.4529,2.451,2.359,2.2864,2.2369,0.0,0.0,0.0,0.0,0.0,0.0,0.0,0.0,0.0,0.0,0.0,0.0,0.0,0.0,0.0,1.9043,0.0,1.9564,1.8959,0.0,0.0,0.0,1.7141,1.7511,1.709,1.6907,1.719,0.0,0.0,0.0,0.0,1.7989,1.8335,1.8765,1.8559,1.7295,1.8034,1.8329,1.6967,1.6916,1.6673,1.584,1.626,1.6698,1.6655,1.7067,1.7127,1.6982,1.6233,1.5732,1.6266,1.5505,1.4938,1.4643,1.4991,1.5025,1.4673,1.4637,1.47,1.4622,1.4883,1.5021,3.9767,3.974,3.7876,3.6671,3.59,3.5761,3.5704,3.5704,3.5848,3.5735,3.5439,3.5195,3.4538,3.3633,3.3571,3.369,3.3956,3.4147,3.4514,3.4988,3.5213,3.5121,3.4806,3.4819,3.4694,3.449,3.4083,3.402,3.4279,3.3794,3.3643,3.3834,3.3183,3.1465,2.8885,2.9114,2.8571,2.7207,2.831,2.8224,2.6887,2.61,2.5669,2.5586,2.5416,2.526,2.5211,2.4932,2.4809,2.4809,2.4572,2.401,2.3108,2.1742,0.0,0.0,0.0,0.0,0.0,0.0,0.0,0.0,0.0,1.6684,1.6923,0.0,1.8454,0.0,1.9702,2.0014,1.9358,1.9736,0.0,0.0,1.8875,1.8681,1.8625,1.8559,1.8434,1.8274,1.8271,1.8337,1.8465,1.853,1.8704,1.8986,1.8739,1.8363,1.8035,1.8035,1.8039,1.7742,1.8153,1.8177,1.7055,1.6735,1.6963,1.7582,1.7779,1.7989,1.8579,1.8248,1.8035,1.8355,1.7579,1.7004,1.7007,1.6251,1.586,1.642,1.5824,1.5002,1.4982,1.5568,1.6075,4.195,4.206,4.0359,3.9483,3.9116,3.7501,3.6542,3.6123,3.6397,3.6345,3.607,3.5796,3.5405,3.5011,3.4985,3.5081,3.5275,3.541,3.5543,3.5642,3.6032,3.614,3.6016,3.5761,3.5821,3.6128,3.5282,3.5022,3.5246,3.4896,3.4703,3.4703,3.4602,3.3621,3.1812,3.1453,3.0546,2.9087,2.9618,2.909,2.7458,2.672,2.6112,2.5583,2.522,2.4992,2.491,2.4388,2.4191,2.4363,2.416,2.3834,2.3308,2.232,2.0963,0.0,0.0,0.0,0.0,0.0,0.0,0.0,0.0,0.0,0.0,0.0,1.926,0.0,2.0069,0.0,1.9909,2.0294,2.052,2.0345,2.0329,2.0379,2.056,2.0402,2.0093,1.968,1.9482,1.9275,1.9052,1.9027,1.9093,1.9276,1.8964,1.8738,1.872,1.8618,1.8531,1.8538,1.8933,1.9042,1.8206,1.7654,1.7569,1.8363,1.8572,1.8762,1.9212,1.8719,1.8432,1.8873,1.8233,1.7586,1.7705,1.722,1.6792,1.6892,1.6782,1.6372,1.6206,1.6665,1.7069,4.4228,4.4484,4.2334,4.1677,4.1906,3.933,3.7617,3.6639,3.7085,3.6932,3.6302,3.6249,3.6175,3.6109,3.6109,3.6149,3.6231,3.6582,3.6515,3.6135,3.7008,3.7394,3.733,3.6793,3.7075,3.7912,3.6274,3.575,3.6228,3.5534,3.5183,3.5062,3.5062,3.4956,3.4676,3.3566,3.2488,3.1456,3.045,2.9255,2.7953,2.7468,2.6664,2.5545,2.5063,2.4753,2.454,2.3816,2.3543,2.3806,2.3441,2.3299,2.3467,2.2719,2.1674,0.0,1.9376,0.0,0.0,0.0,0.0,0.0,0.0,0.0,0.0,1.9687,1.9937,2.0069,2.0422,2.0704,2.0847,2.0922,2.1153,2.166,2.1726,2.1952,2.2501,2.2055,2.1496,2.0976,2.0429,1.9905,1.9368,1.9298,1.9298,1.9298,1.9276,1.9239,1.9257,1.925,1.9224,1.9298,1.9298,1.9246,1.9116,1.8632,1.8415,1.9089,1.922,1.9298,1.9272,1.8555,1.8075,1.8658,1.8366,1.7877,1.7753,1.7922,1.7739,1.7292,1.7568,1.7756,1.7566,1.7824,1.7897,4.5045,4.5031,4.3631,4.2888,4.2568,4.1475,4.0418,3.9397,3.9024,3.8327,3.7391,3.7006,3.6567,3.6123,3.6109,3.6371,3.6867,3.741,3.7596,3.7531,3.8632,3.8787,3.8204,3.8051,3.7998,3.7978,3.7625,3.7522,3.7625,3.7897,3.769,3.708,3.7067,3.6293,0.0,0.0,0.0,0.0,3.1411,2.9841,2.9647,2.8114,2.6858,2.5999,2.5712,0.0,2.5297,2.5148,2.4902,2.4595,2.4513,0.0,0.0,0.0,0.0,0.0,0.0,0.0,0.0,0.0,0.0,0.0,2.0917,2.0831,2.0449,2.0665,2.0918,2.1081,2.1293,2.149,2.1737,2.2059,2.2289,2.2382,2.2416,2.2475,2.256,2.208,2.1504,2.0976,2.0447,1.9905,1.9428,1.9298,1.9298,1.9298,1.9298,1.9298,1.9298,1.9298,1.9298,1.9298,1.9298,1.9298,1.9298,1.9142,1.9004,1.9272,1.9298,1.9298,1.9264,1.9157,1.8962,1.9169,1.908,1.8936,1.891,1.8466,1.818,1.8691,1.8363,1.7995,1.794,1.8504,1.9011,4.6494,0.0,4.5268,4.455,0.0,4.3338,4.2602,4.1741,4.0659,3.9699,3.8922,3.8675,3.8425,3.8096,3.7572,3.784,3.8645,3.8146,3.8044,3.8331,3.8893,3.9083,3.9001,3.9001,3.9216,3.9589,3.8925,3.8748,3.9018,3.8884,3.8597,3.8195,3.8063,3.7384,3.6219,3.6317,3.6047,3.5356,3.3223,3.1818,3.1119,2.9659,2.8396,2.7442,0.0,0.0,0.0,0.0,0.0,0.0,0.0,0.0,0.0,0.0,0.0,2.2939,2.2288,2.1961,2.202,2.1821,2.1956,2.2572,2.2697,2.2316,2.1334,2.1546,2.1729,2.1696,2.1762,2.1924,2.2252,2.2482,2.2628,2.2628,2.2628,2.2628,2.2577,2.2342,2.1937,2.1377,2.0806,2.03,1.9757,1.9454,1.9298,1.9298,1.9298,1.9298,1.9298,1.9298,1.9298,1.9298,1.9298,1.9298,1.9298,1.9298,1.9298,1.9298,1.9298,1.9298,1.9298,1.9298,1.9298,1.9298,1.9298,1.9298,1.9272,1.8926,1.8788,1.9142,1.8952,1.8632,1.8651,1.8889,1.903,4.7756,4.7225,4.662,4.6033,4.5426,4.4823,4.4228,4.3564,0.0,0.0,0.0,4.0382,4.0359,4.0286,3.9427,3.9589,4.0432,3.9213,3.876,3.9008,3.9218,3.9472,3.9756,3.9743,4.0228,4.1064,3.9967,3.9649,4.0102,3.9518,3.9153,3.9014,3.8807,3.8366,3.7658,3.6985,3.6303,3.5703,3.4936,3.3863,3.2482,3.1332,3.0198,2.9057,2.8318,2.7869,2.7646,2.6097,2.5422,2.566,2.4595,2.4079,2.428,2.4295,2.4054,2.3518,2.3282,2.3261,2.3556,2.3309,2.347,2.4165,2.3994,2.3368,2.2224,2.2374,2.241,2.2189,2.2139,2.2243,2.2568,2.2603,2.2628,2.2628,2.2628,2.2628,2.2603,2.2628,2.2342,2.1768,2.1292,2.0814,2.0156,1.9732,1.9376,1.9298,1.9298,1.9298,1.9298,1.9298,1.9298,1.9298,1.9298,1.9298,1.9298,1.9298,1.9298,1.9298,1.9298,1.9298,1.9298,1.9298,1.9298,1.9298,1.9298,1.9298,1.9298,1.9246,1.9298,1.9298,1.9228,1.9217,1.9188,1.8884,1.8664,4.7846,4.7493,4.6908,4.6452,4.6097,4.544,4.4823,4.4139,4.2463,4.1636,4.1553,4.1154,4.097,4.0956,4.0819,4.085,4.1026,4.1281,4.0979,0.0,4.1167,4.1138,4.0318,4.0305,4.0359,4.0489,4.0321,4.027,4.0375,4.073,4.0629,3.9964,3.9863,3.9213,3.8021,3.7617,3.7143,3.6525,3.5587,3.4693,3.3829,3.2355,3.1221,3.0357,2.9431,2.8805,2.8574,2.737,2.6556,2.6199,2.5217,2.4739,2.4951,2.4957,2.4975,2.4986,2.4943,2.485,2.4703,2.4435,2.4245,2.4217,2.4186,2.3949,2.3552,2.3157,2.2893,2.2851,2.2625,2.2534,2.2594,2.2628,2.2628,2.2628,2.2628,2.2628,2.2628,2.2603,2.2384,2.1827,2.1649,2.119,2.0318,2.006,1.9802,1.9402,1.9298,1.9298,1.9298,1.9298,1.9298,1.9298,1.9298,1.9298,1.9298,1.9305,1.9376,1.9298,1.9357,1.9428,1.9428,1.9428,1.9428,1.9324,1.9402,1.9383,1.9376,1.9298,1.9335,1.9313,1.9111,1.8924,1.8855,1.8416,1.8167,4.9544,4.8845,4.8546,4.7945,4.7141,4.601,4.5091,4.4359,4.3575,4.3013,4.2706,4.2514,4.2408,4.2357,4.175,4.1841,4.2444,4.178,4.1409,4.1315,4.1803,4.1622,4.0914,4.1154,4.1164,4.0893,4.0881,4.0881,4.0932,4.1168,4.1105,4.0719,4.0334,3.9685,3.8939,3.8472,3.7978,3.7393,3.6062,3.5208,3.4867,3.3779,3.2891,3.2208,3.1612,3.1075,3.0549,2.8959,2.7933,2.7604,2.612,2.533,2.541,2.5439,2.5445,2.5518,2.5382,2.5235,2.5103,2.4735,2.4455,2.4365,2.4276,2.4152,2.4019,2.3655,2.3331,2.3021,2.2871,2.2745,2.2628,2.2628,2.2628,2.2628,2.2628,2.2628,2.2628,2.2628,2.2493,2.2207,2.1878,2.1394,2.0627,2.0532,2.0197,1.948,1.9305,1.9298,1.9324,1.955,1.9628,1.9383,1.9524,1.9583,1.9409,1.9843,1.999,1.9809,1.9998,2.0119,2.0153,2.0153,2.0153,2.0179,2.0145,2.0179,2.0119,1.9913,1.9716,1.9436,1.9092,1.8803,1.8525,1.813,1.8059,5.0892,5.0007,4.9824,4.907,4.7934,4.6747,4.5751,4.5021,4.4772,4.4425,4.4002,4.3787,4.3708,4.3592,4.2749,4.2893,4.3525,4.2437,4.2025,4.2341,4.2368,4.2096,4.167,4.2074,4.2067,4.1685,4.156,4.1486,4.1461,4.1361,4.1286,4.1247,4.068,4.0196,3.9857,3.9357,3.8807,3.8231,3.6948,3.6098,3.5764,3.5155,3.4566,3.3986,3.3476,3.298,3.2298,3.0454,2.9326,2.9027,2.721,2.611,2.6028,2.5795,2.5708,2.5684,2.5513,2.5367,2.5284,2.4932,2.4627,2.4504,2.4365,2.4251,2.4168,2.4003,2.3696,2.3256,2.308,2.2904,2.2728,2.2653,2.2628,2.2628,2.2628,2.2628,2.2628,2.2628,2.2628,2.2544,2.219,2.17,2.1224,2.107,2.0712,1.9939,1.9661,1.9661,1.9713,2.0042,2.006,1.9887,2.0009,2.0112,1.9791,2.03,2.0634,2.0318,2.0583,2.0763,2.0822,2.0873,2.0899,2.0822,2.0848,2.0741,2.0719,2.0425,2.0022,1.9702,1.9277,1.8828,1.8523,1.8276,1.8016,5.0626,5.0209,4.9655,4.8831,4.8029,4.7824,4.7357,4.6695,4.5945,4.5558,4.5345,4.4673,4.4298,4.4326,4.4144,4.4177,4.4294,4.4167,4.383,4.3466,4.3446,4.3197,4.2781,4.2825,4.2828,4.2695,4.2318,4.2123,4.2058,4.156,4.1311,4.1286,4.1209,4.0908,4.0389,4.01,3.9679,3.9088,3.8717,3.7889,3.6662,3.635,3.592,3.5334,3.4108,3.3452,3.3311,3.1654,3.061,3.0215,2.8459,2.7305,2.7023,2.6235,2.5708,2.5732,2.5684,2.5562,2.5342,2.5269,2.5005,2.4587,2.448,2.4381,2.4202,2.4177,2.4053,2.3721,2.3272,2.303,2.2946,2.2779,2.2619,2.2628,2.2628,2.2628,2.2628,2.2628,2.2628,2.2628,2.2527,2.2291,2.17,2.1522,2.1318,2.0763,2.0565,2.0565,2.0591,2.0719,2.0814,2.0745,2.0822,2.0789,2.0712,2.0763,2.0968,2.0865,2.0865,2.1019,2.1096,2.1045,2.095,2.1224,2.1045,2.0974,2.0643,2.0291,2.0229,1.984,1.9484,1.913,1.8847,1.8675,1.8427,5.2055,5.1013,5.039,4.9389,4.832,4.8234,4.7578,4.6481,4.6106,4.5731,4.5324,4.4961,4.4676,4.4425,4.4401,4.4401,4.4401,4.4401,4.428,4.4092,4.4092,4.3988,4.3911,4.3914,4.3922,4.3968,4.3758,4.3444,4.2995,4.2202,4.1771,4.1746,4.1461,4.1155,4.0946,4.0846,4.0522,3.9938,3.9991,3.929,3.7858,3.73,3.6598,3.5594,3.4965,3.4452,3.3925,3.2461,3.1484,3.112,2.9448,2.8389,2.8262,2.72,2.66,2.6552,2.6014,2.5635,2.5538,2.5391,2.5137,2.475,2.4578,2.4415,2.4226,2.4211,2.4152,2.4028,2.3696,2.3347,2.3055,2.2896,2.2779,2.2653,2.2628,2.2628,2.2628,2.2628,2.2628,2.2628,2.2603,2.2367,2.1801,2.142,2.1292,2.1249,2.1121,2.0976,2.0925,2.1147,2.1343,2.1428,2.1657,2.1555,2.1173,2.153,2.1657,2.1522,2.1683,2.1886,2.186,2.1886,2.1911,2.1886,2.1785,2.1644,2.1437,2.0974,2.0679,2.0143,1.9399,1.8963,1.8828,1.8804,1.855,5.2709,5.1355,5.0695,4.9798,4.8774,4.8548,4.7976,4.708,4.6651,4.6298,4.5974,4.5576,4.5201,4.4847,4.4612,4.4565,4.4621,4.4495,4.4401,4.4401,4.4401,4.4447,4.4542,4.4546,4.4671,4.4823,4.4704,4.4432,4.3997,4.3271,4.2652,4.2345,4.1959,4.1605,4.1324,4.1286,4.109,4.0711,4.0902,4.0309,3.8981,3.8322,3.7327,3.5984,3.5686,3.533,3.4691,3.336,3.2474,3.218,3.0536,2.9635,2.9701,2.8454,2.7675,2.7534,2.6672,2.6091,2.61,2.5674,2.5284,2.5039,2.4809,2.4587,2.435,2.4301,2.4242,2.4177,2.4003,2.3696,2.3322,2.3097,2.293,2.272,2.2653,2.2628,2.2628,2.2628,2.2628,2.2628,2.2628,2.2468,2.203,2.1683,2.1606,2.1827,2.1632,2.1385,2.1402,2.17,2.1954,2.1954,2.2342,2.2215,2.1581,2.1962,2.2291,2.2215,2.2291,2.2502,2.2628,2.2603,2.2594,2.2266,2.245,2.2227,2.1596,2.1242,2.0928,2.0298,1.966,1.9235,1.9365,1.9298,1.9262,5.1629,5.0736,5.0052,4.9771,4.9591,4.8977,4.8982,4.9132,4.7946,4.7649,4.7841,4.6642,4.6029,4.5982,4.5231,4.4969,4.5113,4.465,4.4439,4.4443,4.4443,4.4415,4.4406,4.4406,4.4775,4.542,4.5111,4.4829,4.4736,4.4554,4.4034,4.3005,4.2875,4.2348,4.1476,4.1361,4.1311,4.1232,4.1222,4.0847,4.0037,3.9395,3.828,3.6807,3.6153,3.5785,3.538,3.4407,3.3701,3.3432,3.1984,3.126,3.1399,2.9872,2.8843,2.8541,2.7675,2.7128,2.6999,2.6322,2.5674,2.5382,2.5348,2.5064,2.4563,2.4489,2.4415,2.4226,2.4202,2.4053,2.3755,2.3356,2.3055,2.2971,2.2754,2.2653,2.2628,2.2619,2.2628,2.2628,2.2628,2.2569,2.2544,2.2569,2.2417,2.2468,2.2493,2.2417,2.2375,2.2468,2.2493,2.2502,2.2552,2.2577,2.2527,2.2502,2.2544,2.2493,2.2443,2.2628,2.2628,2.2628,2.2628,2.2517,2.2286,2.1961,2.1518,2.1126,2.0772,2.0385,2.0252,2.0019,1.986,2.0456,2.034,5.3185,5.185,5.0985,5.0597,5.0511,4.9722,4.9248,4.9006,4.8475,4.8133,4.7843,4.6983,4.6915,4.7439,4.6365,4.555,4.5006,4.4757,4.4762,4.4959,4.4977,4.5398,4.6143,4.6185,4.6508,4.6988,4.6923,4.6637,4.6159,4.5197,4.4456,4.3961,4.3277,4.2525,4.1921,4.1807,4.1672,4.1336,4.1286,4.0974,4.0313,3.9741,3.8897,3.7827,3.7049,3.6546,3.6277,3.5557,3.5052,3.4792,3.3769,3.313,3.2698,3.1014,2.9612,2.8958,2.8425,2.8168,2.8121,2.7827,2.72,2.636,2.6274,2.5815,2.5005,2.476,2.4637,2.444,2.439,2.4291,2.4053,2.3721,2.3447,2.3256,2.3021,2.2846,2.282,2.272,2.2628,2.2628,2.2628,2.2628,2.2628,2.2628,2.2628,2.2628,2.2628,2.2628,2.2628,2.2628,2.2628,2.2628,2.2628,2.2628,2.2603,2.2603,2.2603,2.2603,2.2628,2.2628,2.2628,2.2628,2.2628,2.2294,2.2038,2.1696,2.1268,2.0823,2.0503,2.0434,2.0292,2.0292,2.0292,2.0572,2.0446,5.3641,5.2592,5.1873,5.1574,5.1428,5.0342,4.9699,4.9388,4.8917,4.8595,4.8299,4.77,4.7824,4.8201,4.7388,4.6499,4.5688,4.5594,4.5619,4.5735,4.5739,4.6155,4.6785,4.6912,4.721,4.7743,4.8024,4.787,4.7423,4.6299,4.5576,4.5144,4.4387,4.3549,4.2809,4.2655,4.2225,4.1502,4.1455,4.1184,4.046,3.9886,3.9357,3.8722,3.7847,3.7191,3.6849,3.6327,3.5897,3.5581,3.4981,3.4285,3.3444,3.2216,3.1066,3.0215,2.9578,2.928,2.9212,2.8924,2.8308,2.7521,2.7389,2.6867,2.5718,2.5499,2.524,2.4824,2.4529,2.444,2.4291,2.4078,2.3829,2.3546,2.3272,2.3147,2.3122,2.2896,2.272,2.2628,2.2628,2.2628,2.2628,2.2628,2.2628,2.2628,2.2628,2.2628,2.2628,2.2628,2.2628,2.2628,2.2628,2.2628,2.2628,2.2628,2.2628,2.2628,2.2628,2.2628,2.2628,2.2628,2.2448,2.2123,2.1747,2.1396,2.1009,2.0554,2.0383,2.03,2.0292,2.0292,2.0343,2.0452,2.0366,5.2733,5.2762,5.2606,5.259,5.2379,5.0893,5.0539,5.0643,4.9393,4.9074,4.933,4.8861,4.86,4.859,4.8039,4.7626,4.7405,4.7205,4.6966,4.6726,4.6687,4.6627,4.6595,4.6637,4.688,4.7403,4.7842,4.8094,4.7996,4.7735,4.7186,4.65,4.6173,4.5213,4.3818,4.3766,4.2992,4.1881,4.193,4.1578,4.0509,3.9908,3.9557,3.9405,3.8428,3.7611,3.7132,3.6631,3.6261,3.5943,3.5456,3.4624,3.3834,3.3412,3.3086,3.2171,3.1172,3.0611,3.0396,2.9544,2.9027,2.8646,2.8704,2.8145,2.7081,2.671,2.6215,2.5289,2.4784,2.4529,2.448,2.4316,2.4102,2.3829,2.3555,2.3406,2.3356,2.3172,2.2921,2.2703,2.2644,2.2628,2.2628,2.2628,2.2628,2.2628,2.2628,2.2628,2.2628,2.2628,2.2628,2.2628,2.2628,2.2628,2.2628,2.2628,2.2628,2.2628,2.2628,2.2628,2.2628,2.2585,2.2337,2.197,2.1388,2.102,2.0728,2.0357,2.0326,2.0292,2.0292,2.0292,2.0366,2.0417,2.046,5.4549,5.4449,5.3821,5.3545,5.3318,5.16,5.0945,5.0977,4.9866,4.9519,4.9562,4.9001,4.8933,4.9161,4.8725,4.8619,4.8963,4.888,4.8422,4.7699,4.7608,4.7675,4.7755,4.7776,4.7803,4.7839,4.7996,4.8108,4.8024,4.7726,4.7261,4.694,4.6538,4.5872,4.5029,4.4925,4.428,4.3147,4.2763,4.2279,4.1508,4.0179,3.9512,3.9466,3.8514,3.7808,3.7644,3.7314,3.7003,3.6711,3.6396,3.58,3.4986,3.4392,3.3809,3.3214,3.2684,3.2077,3.1564,3.116,3.0532,2.9966,2.9738,2.9212,2.8215,2.7529,2.6945,2.6211,2.5533,2.4932,2.4587,2.4464,2.4344,2.4102,2.3854,2.3698,2.3693,2.3457,2.3172,2.2946,2.2871,2.2795,2.2662,2.2645,2.2713,2.2679,2.2662,2.2644,2.2628,2.2653,2.2628,2.2628,2.2628,2.2628,2.2628,2.2628,2.2628,2.2653,2.2653,2.2628,2.2628,2.2474,2.2192,2.1704,2.1122,2.0711,2.0412,2.0292,2.0292,2.0309,2.034,2.034,2.0332,2.04,2.0503,5.5608,5.547,5.4904,5.4601,5.4354,5.2827,5.2161,5.2025,5.1194,5.0564,5.0189,4.9795,4.96,4.9596,4.9248,4.9306,4.9693,4.9708,4.9319,4.8695,4.8505,4.8577,4.8656,4.8545,4.842,4.8258,4.8145,4.8108,4.808,4.7729,4.7544,4.7459,4.7164,4.6707,4.6144,4.5869,4.5165,4.3903,4.3365,4.28,4.196,4.0748,3.9996,3.9752,3.8814,3.8148,3.7916,3.7762,3.7528,3.7209,3.673,3.617,3.5632,3.4923,3.424,3.3734,3.3407,3.3049,3.2609,3.2342,3.2137,3.1556,3.1398,3.0928,3.0013,2.9179,2.8752,2.8069,2.7116,2.6212,2.5755,2.5295,2.4986,2.4572,2.434,2.422,2.4175,2.396,2.3751,2.361,2.3498,2.3387,2.3329,2.3174,2.3156,2.3113,2.2991,2.2812,2.282,2.2837,2.2795,2.2745,2.272,2.2695,2.2628,2.2628,2.2644,2.2669,2.2695,2.2653,2.2628,2.2346,2.2064,2.1396,2.0788,2.0566,2.0292,2.0292,2.03,2.0317,2.04,2.0443,2.0486,2.058,2.0649,5.5966,5.5823,5.5802,5.5604,5.5266,5.429,5.3789,5.374,5.2865,5.1934,5.1281,5.0941,5.0553,4.9946,4.9703,4.9649,4.9708,4.9708,4.9693,4.9513,4.9342,4.9139,4.892,4.8695,4.8545,4.8431,4.8258,4.812,4.8094,4.8038,4.8108,4.801,4.794,4.7786,4.7174,4.6648,4.5591,4.4311,4.3824,4.3162,4.2222,4.1486,4.0986,4.0484,3.9467,3.862,3.8211,3.7975,3.7762,3.7417,3.6639,3.618,3.5849,3.5201,3.4575,3.4051,3.3716,3.3558,3.3397,3.3154,3.3057,3.325,3.308,3.2946,3.1913,3.1383,3.0896,3.0174,2.8901,2.7966,2.7415,2.6641,2.5907,2.5309,2.4983,2.4882,2.4941,2.4671,2.4488,2.446,2.4293,2.4143,2.4349,2.4092,2.3924,2.3818,2.357,2.3241,2.3122,2.3097,2.3071,2.3021,2.2971,2.2946,2.2904,2.2896,2.2921,2.2946,2.2946,2.2896,2.2666,2.2366,2.2016,2.1328,2.0706,2.0474,2.0292,2.03,2.0377,2.0494,2.0546,2.0589,2.0623,2.0666,2.076,5.6066,5.6026,5.6006,5.5886,5.5568,5.4648,5.4131,5.3891,5.3042,5.2537,5.2094,5.1412,5.1039,5.0668,4.9994,4.9708,4.9708,4.9708,4.9708,4.9693,4.9644,4.9438,4.9168,4.892,4.8695,4.8545,4.8445,4.8308,4.8094,4.812,4.8108,4.8108,4.8094,4.8024,4.7771,4.7221,4.6539,4.5576,4.4591,4.3867,4.3113,4.217,4.1663,4.1491,4.0505,3.9664,3.9048,3.8316,3.7772,3.7528,3.726,3.689,3.6487,3.5866,3.5196,3.4597,3.4382,3.4085,3.367,3.3756,3.3917,3.3868,3.3725,3.3422,3.3167,3.23,3.1767,3.1086,2.9728,2.8495,2.8068,2.7152,2.6496,2.6324,2.5746,2.535,2.532,2.522,2.508,2.4909,2.4795,2.4752,2.4665,2.4391,2.4116,2.4044,2.3769,2.3466,2.3461,2.3381,2.3381,2.3331,2.3281,2.3256,2.3256,2.3222,2.3247,2.3272,2.3272,2.3263,2.2918,2.2455,2.2077,2.1585,2.0954,2.0588,2.0403,2.0323,2.0452,2.0704,2.0586,2.0566,2.056,2.0583,2.0803,5.6323,5.6225,5.6225,5.6106,5.5834,5.4956,5.4706,5.4672,5.3904,5.3418,5.3162,5.2649,5.1843,5.1086,5.0526,5.0042,4.9756,4.9708,4.9708,4.9708,4.9708,4.9624,4.9428,4.9192,4.8969,4.8859,4.872,4.852,4.8333,4.8258,4.8207,4.812,4.8108,4.8108,4.801,4.7235,4.6673,4.6111,4.5047,4.4233,4.3876,4.3045,4.2503,4.2258,4.1467,4.0653,3.9558,3.8464,3.7808,3.768,3.7551,3.7366,3.701,3.6281,3.5598,3.4911,3.457,3.4109,3.3823,3.3911,3.4171,3.438,3.426,3.4209,3.4145,3.3565,3.3207,3.2918,3.1437,3.0337,2.9253,2.7902,2.7133,2.7124,2.6642,2.6211,2.6069,2.5825,2.5703,2.5616,2.5527,2.5464,2.5396,2.5063,2.4883,2.4774,2.443,2.4119,2.3908,2.3781,2.3655,2.3555,2.353,2.3497,2.3422,2.3397,2.3497,2.3546,2.3646,2.3612,2.318,2.2677,2.2228,2.1789,2.1209,2.0769,2.061,2.0576,2.082,2.09,2.0678,2.0636,2.0689,2.0908,2.1066,5.6583,5.6424,5.6424,5.6307,5.6047,5.5454,5.5401,5.5699,5.4961,5.4495,5.4214,5.3983,5.2865,5.1397,5.1412,5.0748,4.9936,5.0009,4.979,4.9756,4.9708,4.9683,4.9634,4.9438,4.9291,4.9207,4.9033,4.881,4.8595,4.852,4.8369,4.8207,4.8145,4.8108,4.787,4.6968,4.6364,4.6083,4.5043,4.4415,4.427,4.3816,4.3406,4.297,4.2023,4.1015,3.9741,3.8579,3.79,3.79,3.768,3.7551,3.7345,3.6476,3.5674,3.5066,3.4442,3.3979,3.3878,3.3813,3.4075,3.4773,3.4775,3.4837,3.4819,3.4689,3.4619,3.4354,3.3798,3.2173,3.0478,2.8601,2.771,2.7735,2.7553,2.7322,2.7068,2.6529,2.6277,2.6554,2.6296,2.6315,2.6361,2.6279,2.5948,2.5417,2.5042,2.4654,2.4403,2.4256,2.3983,2.368,2.3696,2.3746,2.3646,2.3546,2.3671,2.3795,2.3954,2.3908,2.3462,2.2965,2.2467,2.1981,2.1528,2.1156,2.0906,2.0987,2.1138,2.1092,2.0882,2.0968,2.1106,2.1447,2.1669,5.668,5.6638,5.6638,5.6505,5.6313,5.6162,5.5771,5.5237,5.5015,5.4763,5.4475,5.375,5.3376,5.3228,5.2429,5.1751,5.0821,5.071,5.0445,4.9732,4.9708,4.9708,4.9708,4.961,4.9502,4.9355,4.9256,4.9069,4.8845,4.8645,4.8495,4.842,4.8246,4.8094,4.7895,4.6926,4.6293,4.6069,4.5043,4.4429,4.4401,4.4294,4.4116,4.3794,4.2267,4.1018,4.0098,3.8714,3.7962,3.7877,3.7805,3.7625,3.7295,3.6432,3.5619,3.507,3.4505,3.4057,3.3957,3.4141,3.451,3.4677,3.456,3.4437,3.4502,3.4786,3.4757,3.4449,3.3844,3.2662,3.0587,2.8977,2.8217,2.8101,2.7943,2.7745,2.7655,2.7337,2.704,2.6906,2.6834,2.6734,2.6627,2.6359,2.6103,2.5966,2.5635,2.5161,2.492,2.4735,2.4384,2.4012,2.4044,2.4118,2.3969,2.3879,2.3929,2.4003,2.4127,2.4217,2.376,2.3407,2.2982,2.2458,2.1897,2.1577,2.136,2.1087,2.1167,2.1122,2.1108,2.1148,2.1302,2.1757,2.2058,5.6716,5.6666,5.6332,5.6324,5.6412,5.5812,5.5424,5.5194,5.4785,5.4574,5.4362,5.3763,5.3458,5.3268,5.269,5.1992,5.1523,5.1199,5.0843,5.0326,4.9994,4.9708,4.9708,4.9708,4.961,4.9488,4.9488,4.934,4.9093,4.8959,4.8834,4.867,4.842,4.8096,4.7764,4.6817,4.6139,4.5679,4.4921,4.4401,4.4401,4.4401,4.4401,4.3985,4.2333,4.0953,4.0612,3.8883,3.806,3.7848,3.7665,3.7427,3.7147,3.6352,3.5596,3.5003,3.4355,3.3911,3.3826,3.3912,3.4133,3.4324,3.4202,3.423,3.4388,3.4711,3.4855,3.4684,3.4366,3.3562,3.1143,2.9286,2.8628,2.8291,2.8211,2.8094,2.8014,2.7691,2.7377,2.7206,2.7169,2.7088,2.6923,2.6638,2.6673,2.6699,2.6119,2.5664,2.5475,2.5248,2.4815,2.4551,2.4523,2.4464,2.435,2.4251,2.4177,2.4202,2.4226,2.4325,2.4159,2.3846,2.3541,2.2994,2.2451,2.2146,2.1889,2.1595,2.1352,2.1401,2.1419,2.1293,2.1423,2.1914,2.2132,5.665,5.6481,5.5866,5.5899,5.6117,5.5055,5.4787,5.5033,5.4437,5.4044,5.3987,5.3852,5.336,5.2857,5.2685,5.2338,5.1989,5.1637,5.1382,5.0675,5.0114,4.9698,4.9558,4.9461,4.9538,4.9679,4.9683,4.9537,4.9389,4.9305,4.9108,4.8905,4.8539,4.812,4.7507,4.6657,4.5934,4.538,4.4752,4.4401,4.4401,4.4401,4.4401,4.4013,4.2652,4.1358,4.0771,3.9368,3.8146,3.791,3.7416,3.709,3.667,3.6164,3.5504,3.49,3.4238,3.379,3.3585,3.3525,3.3595,3.3812,3.3771,3.3871,3.4118,3.446,3.4607,3.4673,3.4447,3.4023,3.2191,3.0665,2.9244,2.8628,2.8478,2.8495,2.8237,2.7835,2.7638,2.7503,2.7476,2.7431,2.735,2.7185,2.7313,2.7308,2.67,2.6198,2.6005,2.5651,2.5179,2.4841,2.4754,2.472,2.4597,2.4548,2.4498,2.4474,2.4424,2.4474,2.4538,2.4362,2.4054,2.355,2.3061,2.2738,2.2455,2.218,2.1994,2.1879,2.177,2.1726,2.1902,2.2155,2.2323,5.6332,5.5767,5.5651,5.5336,5.4872,5.4574,5.4227,5.3796,5.3677,5.3451,5.3303,5.3247,5.3388,5.3446,5.3603,5.3334,5.286,5.253,5.1818,5.0834,5.0259,4.9878,4.9212,4.9208,4.9291,4.9606,4.9708,4.9659,4.9561,4.9404,4.933,4.9067,4.8487,4.7934,4.7385,4.6478,4.5759,4.5344,4.4734,4.4415,4.4486,4.4415,4.4401,4.4256,4.2953,4.1983,4.1038,3.9949,3.8846,3.8034,3.7795,3.722,3.6558,3.5896,3.5297,3.483,3.4373,3.3915,3.3704,3.3526,3.3458,3.3439,3.3386,3.33,3.3464,3.3821,3.4138,3.3943,3.3692,3.3183,3.2445,3.1403,3.051,2.9549,2.9164,2.9355,2.8591,2.8237,2.8067,2.796,2.7853,2.7755,2.7674,2.7593,2.762,2.7494,2.7008,2.6559,2.6302,2.5863,2.536,2.5068,2.4867,2.4867,2.4843,2.4809,2.4784,2.4784,2.476,2.4769,2.4794,2.4809,2.4508,2.392,2.3515,2.3233,2.297,2.2736,2.2534,2.2332,2.2258,2.219,2.235,2.2521,2.2868,5.5353,5.5005,5.4624,5.4492,5.4425,5.4078,5.373,5.345,5.34,5.3164,5.2843,5.2759,5.2869,5.3056,5.2992,5.3101,5.3431,5.3191,5.2547,5.1772,5.1154,5.0373,4.9433,4.9378,4.9487,4.9679,4.9708,4.9679,4.9708,4.9585,4.9488,4.9395,4.8872,4.826,4.7485,4.6699,4.5992,4.5491,4.4861,4.4579,4.4752,4.4584,4.4401,4.406,4.3102,4.2044,4.1347,3.9782,3.9013,3.8566,3.7867,3.7531,3.709,3.631,3.5378,3.4798,3.4438,3.4173,3.3949,3.3802,3.3717,3.3569,3.339,3.3249,3.3345,3.3649,3.3916,3.3892,3.3065,3.2573,3.2151,3.1581,3.0276,2.9402,2.9471,2.9418,2.8936,2.8761,2.8601,2.8441,2.8254,2.8094,2.7996,2.7943,2.7889,2.7631,2.7276,2.6949,2.6647,2.6102,2.5587,2.5558,2.538,2.5331,2.5306,2.5233,2.5181,2.5128,2.5054,2.5064,2.5011,2.4992,2.4671,2.4127,2.3839,2.3527,2.3461,2.3257,2.3015,2.2811,2.2741,2.2699,2.2744,2.2913,2.3286,5.4409,5.4227,5.3647,5.3682,5.3929,5.3467,5.3218,5.3184,5.3185,5.2904,5.2458,5.2408,5.2441,5.2421,5.2542,5.29,5.3744,5.3423,5.3159,5.2444,5.1933,5.1056,4.996,4.9857,4.9677,4.9335,4.9185,4.9461,4.9693,4.9683,4.9708,4.9547,4.9352,4.871,4.7698,4.7105,4.6505,4.5841,4.5134,4.4959,4.4916,4.4668,4.4401,4.4331,4.2911,4.2099,4.1608,4.0264,3.9383,3.895,3.8287,3.7667,3.8067,3.7082,3.5835,3.4959,3.475,3.4645,3.4578,3.449,3.4388,3.4084,3.3781,3.3632,3.3462,3.3671,3.3928,3.4172,3.3611,3.2779,3.2529,3.1598,3.0794,3.0141,3.0037,2.9759,2.9497,2.927,2.9026,2.884,2.8628,2.8521,2.8451,2.8451,2.8441,2.8196,2.7832,2.7414,2.7057,2.6389,2.5972,2.6055,2.5986,2.5913,2.5859,2.5765,2.5664,2.5552,2.5406,2.5284,2.5226,2.5144,2.4775,2.446,2.3936,2.3665,2.3705,2.3791,2.3608,2.342,2.3274,2.3287,2.3404,2.353,2.3786,5.4111,5.3515,5.3415,5.3119,5.2739,5.2607,5.254,5.2557,5.2574,5.2491,5.2391,5.2391,5.2391,5.2489,5.2952,5.317,5.3376,5.361,5.313,5.2137,5.2,5.0937,4.9025,4.9082,4.9278,4.9033,4.8475,4.8749,4.9257,4.9504,4.9635,4.9509,4.9059,4.8572,4.8187,4.764,4.7076,4.6547,4.5893,4.5214,4.4645,4.4443,4.4401,4.4205,4.3551,4.271,4.1877,4.078,4.0131,3.9383,3.8809,3.8215,3.782,3.7278,3.6611,3.6123,3.5913,3.5879,3.5722,3.5522,3.5245,3.4818,3.4581,3.4204,3.3994,3.3763,3.3886,3.3935,3.3694,3.3451,3.341,3.3982,3.362,3.2467,3.1233,3.0893,3.0524,2.9596,2.9369,2.93,2.9115,2.9062,2.9009,2.8999,2.8986,2.8705,2.8359,2.7942,2.7452,2.6784,2.6574,2.669,2.6745,2.6671,2.6507,2.6419,2.6227,2.6059,2.5815,2.5635,2.5601,2.5528,2.5245,2.4871,2.4345,2.409,2.4257,2.4302,2.4165,2.4069,2.4002,2.4035,2.414,2.4238,2.4279,5.2738,5.2821,5.2839,5.2673,5.2408,5.2391,5.2391,5.2391,5.2391,5.2391,5.2391,5.2391,5.2391,5.2491,5.2754,5.2998,5.3252,5.3488,5.3229,5.2386,5.2249,5.1482,5.0346,4.9957,4.9787,4.8942,4.8658,4.8468,4.8783,4.8677,4.8749,4.9074,4.8861,4.8668,4.849,4.8153,4.7884,4.7429,4.6704,4.5638,4.4748,4.4401,4.4401,4.4345,4.3497,4.2808,4.2152,4.0963,4.0482,3.9943,3.9482,3.9262,3.9154,3.8646,3.7849,3.8024,3.7408,3.6815,3.6192,3.6052,3.5839,3.563,3.5374,3.5118,3.479,3.4617,3.4581,3.4803,3.4082,3.3579,3.2936,3.2573,3.1685,3.1064,3.1451,3.0961,3.0459,3.0188,2.9679,2.9627,2.9596,2.9567,2.951,2.9409,2.9315,2.9013,2.8671,2.8232,2.7769,2.7227,2.7231,2.7477,2.7517,2.7492,2.7312,2.7147,2.6908,2.6693,2.6359,2.6184,2.6149,2.599,2.5664,2.5486,2.5232,2.5064,2.4964,2.463,2.4349,2.4498,2.4725,2.4701,2.4678,2.4657,2.4679,5.1911,5.2358,5.201,5.1861,5.1861,5.1861,5.1828,5.1828,5.1794,5.1927,5.2159,5.231,5.2391,5.2391,5.2458,5.2705,5.3101,5.2987,5.2932,5.2817,5.2637,5.1942,5.1013,5.0657,5.0158,4.8947,4.8447,4.813,4.7689,4.7515,4.7718,4.8411,4.842,4.8411,4.8431,4.821,4.7951,4.7482,4.6733,4.5713,4.4762,4.4434,4.4411,4.4102,4.3455,4.2761,4.2385,4.1315,4.078,4.0476,3.9958,3.9796,4.0078,3.9334,3.8845,3.8853,3.8345,3.7691,3.7098,3.6795,3.6497,3.6266,3.6017,3.5677,3.5517,3.5563,3.5519,3.5353,3.4502,3.3629,3.2841,3.1998,3.1665,3.1192,3.0614,3.0127,2.984,2.9869,2.9923,2.9869,2.9905,3.009,2.9998,2.9818,2.9605,2.9347,2.8932,2.8548,2.8198,2.7852,2.8019,2.8319,2.839,2.8401,2.8233,2.7975,2.7681,2.7269,2.6956,2.6631,2.6498,2.624,2.5902,2.5852,2.5866,2.5608,2.5273,2.4877,2.4551,2.4924,2.5193,2.5144,2.5114,2.5079,2.5079,5.2342,5.2292,5.0949,5.0435,5.0485,5.0352,5.0402,5.0551,5.0468,5.0866,5.143,5.1977,5.2192,5.2292,5.2226,5.2325,5.2458,5.2456,5.2448,5.2519,5.2567,5.1982,5.1282,5.0842,5.0343,4.8864,4.8399,4.7769,4.6909,4.6794,4.7101,4.7689,4.7852,4.7849,4.7927,4.7952,4.7521,4.6983,4.6267,4.5624,4.4879,4.4551,4.4411,4.4247,4.3764,4.3174,4.2584,4.1681,4.1041,4.074,4.0253,3.998,4.0181,3.9654,3.9378,3.9244,3.8899,3.8406,3.814,3.7691,3.7413,3.695,3.6549,3.6216,3.6139,3.591,3.5757,3.5743,3.5163,3.4718,3.4425,3.4038,3.2603,3.1655,3.073,3.0425,3.018,3.0053,3.0104,3.0084,3.0129,3.0235,3.0328,3.0089,3.0283,3.0089,2.9792,2.937,2.9194,2.8903,2.9019,2.9195,2.9294,2.9285,2.9223,2.893,2.8556,2.7966,2.749,2.7063,2.6724,2.6437,2.63,2.6135,2.6134,2.5862,2.5695,2.5564,2.5476,2.5561,2.562,2.5538,2.5479,2.543,2.5455,5.1534,5.0982,5.0436,5.0485,5.0884,5.0884,5.0618,5.0319,5.0667,5.0717,5.0667,5.0916,5.1048,5.1197,5.1563,5.1712,5.1812,5.2242,5.2288,5.2314,5.23,5.203,5.1543,5.1253,5.0841,4.9647,4.9051,4.8511,4.789,4.707,4.6955,4.7317,4.7343,4.7509,4.7622,4.7622,4.7192,4.6627,4.6085,4.5594,4.4893,4.4565,4.4401,4.4331,4.3357,4.293,4.248,4.1545,4.1053,4.0729,4.0522,4.0443,4.0322,3.993,3.9755,3.9667,3.9283,3.906,3.8872,3.8389,3.7792,3.7652,3.7338,3.711,3.6955,3.7033,3.7049,3.6816,3.6241,3.5729,3.449,3.3433,3.2218,3.1541,3.1131,3.0893,3.0618,3.0476,3.0198,3.0165,3.0136,3.0144,3.0234,3.0302,3.0633,3.0861,3.0556,3.0234,2.9948,2.9909,2.9996,3.0098,3.0189,3.0229,3.0142,2.9778,2.9374,2.8782,2.8148,2.7746,2.7403,2.7051,2.6896,2.6672,2.6519,2.6469,2.6439,2.6415,2.6321,2.6129,2.5975,2.5854,2.5805,2.5757,2.5757,5.1627,5.0867,5.0618,5.0684,5.0966,5.0966,5.0535,5.0055,5.037,5.0535,5.0203,5.0385,5.0535,5.0701,5.1033,5.1314,5.148,5.1795,5.2159,5.2288,5.2316,5.2193,5.212,5.1847,5.1291,5.0483,5.0057,4.9514,4.849,4.7879,4.7523,4.7248,4.703,4.717,4.6998,4.7187,4.6891,4.6388,4.5999,4.5629,4.4927,4.4667,4.4457,4.4378,4.3652,4.3042,4.2635,4.1868,4.1235,4.0898,4.068,4.068,4.0594,4.0443,4.0235,4.0061,3.9821,3.9513,3.9283,3.8701,3.807,3.7854,3.7821,3.7808,3.79,3.79,3.7684,3.7687,3.7111,3.6257,3.484,3.4161,3.3391,3.2923,3.2333,3.1985,3.1309,3.0968,3.0546,3.0252,3.0221,3.0221,3.0578,3.0693,3.0624,3.088,3.0741,3.0475,3.0356,3.045,3.0849,3.0969,3.1113,3.1104,3.1062,3.0713,3.0344,2.9984,2.9374,2.874,2.8355,2.7958,2.7453,2.7067,2.7009,2.7146,2.7054,2.6887,2.6703,2.651,2.6328,2.6169,2.6145,2.6096,2.5965,5.3061,5.2311,5.1581,5.0934,5.0502,5.027,4.9906,4.9392,4.9326,4.9674,5.022,5.0768,5.1049,5.1082,5.1165,5.1298,5.1331,5.1463,5.1828,5.2291,5.2356,5.2372,5.2302,5.2051,5.1672,5.0827,5.0503,5.0017,4.9009,4.8496,4.7991,4.739,4.7078,4.6675,4.605,4.5976,4.5938,4.5893,4.5673,4.5402,4.5144,4.4876,4.4607,4.4265,4.3919,4.3281,4.2494,4.2058,4.139,4.0842,4.0716,4.0702,4.0659,4.0659,4.0594,4.0573,4.0191,3.9996,3.99,3.906,3.8557,3.8161,3.8161,3.8037,3.7982,3.7923,3.79,3.7851,3.7388,3.703,3.6383,3.5737,3.4871,3.4061,3.3406,3.273,3.2007,3.1379,3.098,3.0562,3.0398,3.0388,3.088,3.1129,3.0799,3.0772,3.0756,3.0726,3.0707,3.0927,3.1349,3.1564,3.1678,3.1639,3.1567,3.1531,3.1306,3.0975,3.0488,2.978,2.929,2.8943,2.8372,2.7666,2.7651,2.7926,2.7641,2.7312,2.7085,2.688,2.6626,2.6458,2.6458,2.641,2.6231,5.3927,5.306,5.2791,5.2298,5.1648,5.1132,5.0518,4.9822,4.9408,4.9508,4.9988,5.0038,5.0154,5.0535,5.1099,5.1298,5.1364,5.1911,5.2308,5.2342,5.2391,5.2391,5.2356,5.2284,5.2033,5.1709,5.1394,5.1078,5.0644,4.9563,4.8641,4.8012,4.7031,4.621,4.5985,4.5903,4.5917,4.585,4.5669,4.5435,4.5307,4.4986,4.4576,4.4079,4.3603,4.2944,4.2101,4.1813,4.125,4.0786,4.0716,4.0702,4.0702,4.0702,4.0702,4.0702,4.0465,4.0314,4.0118,3.9601,3.9336,3.8939,3.8548,3.8389,3.8366,3.8037,3.7946,3.7933,3.7814,3.744,3.6691,3.6151,3.5367,3.4519,3.3817,3.3132,3.2441,3.1902,3.1431,3.1005,3.0755,3.0491,3.0709,3.0962,3.0783,3.0769,3.0812,3.1149,3.1247,3.1422,3.1746,3.1916,3.2026,3.2013,3.197,3.187,3.178,3.1488,3.1107,3.0595,3.0195,2.9873,2.9348,2.87,2.8683,2.8653,2.8215,2.7809,2.7489,2.7228,2.6976,2.6723,2.6626,2.6554,2.6424,5.3842,5.3046,5.3237,5.3093,5.2605,5.1955,5.1265,5.0535,4.9839,4.9906,5.0386,5.0088,5.0154,5.0684,5.1049,5.1298,5.1365,5.1729,5.2292,5.2325,5.2391,5.2391,5.2391,5.2391,5.2266,5.2211,5.2086,5.1868,5.1538,5.038,4.9343,4.8304,4.7075,4.6395,4.6068,4.5903,4.5903,4.5858,4.5708,4.5609,4.5435,4.5121,4.4701,4.4038,4.3384,4.269,4.1907,4.1315,4.0898,4.0786,4.0702,4.0702,4.0702,4.0702,4.0702,4.0702,4.068,4.053,4.0335,4.027,4.0031,3.9834,3.9252,3.8895,3.8814,3.8625,3.8512,3.8444,3.833,3.8099,3.7616,3.7046,3.6572,3.5743,3.5157,3.4488,3.329,3.2771,3.2192,3.1762,3.125,3.0939,3.0641,3.0583,3.064,3.0755,3.0882,3.1274,3.1619,3.1711,3.1803,3.1939,3.203,3.1922,3.1956,3.2078,3.1991,3.1929,3.1681,3.1418,3.1034,3.0672,3.0211,2.9661,2.9177,2.8788,2.86,2.8292,2.7904,2.756,2.7286,2.7047,2.6832,2.6736,2.6688,5.2983,5.2376,5.2938,5.3172,5.3025,5.2538,5.1985,5.1265,5.0551,5.0651,5.1298,5.1215,5.1182,5.1281,5.1381,5.143,5.1463,5.153,5.1894,5.2242,5.2391,5.2391,5.2391,5.2391,5.2356,5.232,5.2212,5.2086,5.1995,5.0984,4.9892,4.8697,4.7475,4.6762,4.6299,4.5993,4.5948,4.588,4.5858,4.5745,4.5572,4.5329,4.4754,4.4095,4.3473,4.2759,4.2048,4.1501,4.1153,4.0927,4.0709,4.0702,4.0702,4.0702,4.0702,4.0702,4.0702,4.0659,4.0637,4.0594,4.0594,4.0357,3.9843,3.9469,3.9261,3.9172,3.8993,3.9016,3.9007,3.9118,3.9002,3.8716,3.8406,3.7788,3.7226,3.609,3.4587,3.3779,3.3173,3.2629,3.2052,3.1656,3.1321,3.1148,3.1113,3.0985,3.1124,3.1182,3.1449,3.1506,3.1598,3.1701,3.1746,3.1698,3.1797,3.193,3.214,3.2074,3.2469,3.2331,3.1927,3.1508,3.1097,3.0459,2.9385,2.8905,2.8896,2.8642,2.8245,2.7951,2.7783,2.7381,2.719,2.7119,2.7047,5.3638,5.2965,5.302,5.277,5.2456,5.2782,5.264,5.2015,5.1331,5.1397,5.2043,5.1513,5.1596,5.206,5.2093,5.206,5.206,5.2093,5.2192,5.2342,5.2391,5.2391,5.2391,5.2391,5.2391,5.2373,5.2302,5.214,5.1704,5.1038,4.9971,4.8553,4.7879,4.7226,4.6711,4.621,4.6046,4.5903,4.5903,4.5792,4.5542,4.5213,4.4553,4.3888,4.3181,4.2452,4.1817,4.139,4.1085,4.0965,4.0773,4.0723,4.0702,4.0702,4.0702,4.0702,4.0702,4.0702,4.0702,4.0702,4.0702,4.0702,4.0379,4.0162,3.9856,3.9593,3.9416,3.9482,3.9504,3.9549,3.9571,3.9402,3.9122,3.8648,3.8124,3.72,3.5857,3.5127,3.4529,3.4016,3.3409,3.2641,3.2289,3.1996,3.1915,3.1587,3.1388,3.1447,3.1343,3.1402,3.1472,3.1576,3.1426,3.1379,3.1469,3.1593,3.196,3.2268,3.2628,3.2915,3.2672,3.2273,3.1978,3.1312,3.0307,2.9673,2.9324,2.909,2.9006,2.8672,2.8439,2.7948,2.756,2.7531,2.7406,5.3192,5.2755,5.2895,5.2744,5.2507,5.2899,5.2813,5.2351,5.2164,5.231,5.2326,5.1944,5.1977,5.2292,5.2358,5.2358,5.2342,5.2325,5.2358,5.2358,5.2391,5.2391,5.2391,5.2391,5.2391,5.2391,5.2356,5.2212,5.1723,5.1057,5.0088,4.9161,4.8439,4.7852,4.7269,4.669,4.6277,4.6046,4.5874,4.5758,4.5415,4.4986,4.4305,4.3459,4.2718,4.2159,4.1608,4.1283,4.1163,4.1142,4.1001,4.0979,4.0958,4.0915,4.0766,4.0744,4.0702,4.0702,4.0702,4.0702,4.0702,4.0702,4.0723,4.0551,4.0357,4.0118,4.0031,3.9974,3.993,3.9886,3.9865,3.9799,3.9464,3.9118,3.863,3.8175,3.7383,3.6595,3.6055,3.5559,3.4833,3.399,3.3445,3.3114,3.27,3.237,3.2133,3.2108,3.1757,3.1395,3.1492,3.1588,3.1261,3.1017,3.1159,3.1367,3.1691,3.2108,3.2545,3.2798,3.2976,3.2763,3.2195,3.175,3.1259,3.0694,3.0132,3.0103,2.9979,2.9605,2.9351,2.9133,2.8607,2.8047,2.7875,5.2053,5.1995,5.2557,5.2741,5.2895,5.2927,5.2679,5.2294,5.2903,5.301,5.245,5.2375,5.2342,5.2391,5.2391,5.2391,5.2391,5.2391,5.2391,5.2391,5.2391,5.2391,5.2391,5.2391,5.2391,5.2391,5.2356,5.223,5.1995,5.1445,5.0771,5.0026,4.973,4.9035,4.7979,4.749,4.6988,4.6351,4.6144,4.5982,4.5308,4.4835,4.4342,4.3341,4.2801,4.2421,4.1868,4.157,4.1417,4.1417,4.1375,4.1368,4.129,4.1156,4.0965,4.0894,4.0873,4.0887,4.0873,4.0873,4.0851,4.083,4.078,4.0752,4.0645,4.0508,4.0386,4.0365,4.0335,4.0335,4.0314,4.0278,4.0047,3.9758,3.9378,3.9019,3.8559,3.7821,3.7216,3.6749,3.6214,3.5416,3.5141,3.4831,3.4074,3.3453,3.2945,3.286,3.2456,3.1855,3.1636,3.1712,3.1324,3.1055,3.1047,3.1261,3.1424,3.1833,3.231,3.2587,3.2712,3.2557,3.2319,3.1973,3.1675,3.1433,3.1085,3.0976,3.0786,3.0567,3.0364,3.0363,2.986,2.9102,2.8572,5.1932,5.1913,5.1967,5.1994,5.2092,5.266,5.2551,5.2054,5.2787,5.2819,5.2456,5.2394,5.2391,5.2391,5.2391,5.2391,5.2391,5.2391,5.2391,5.2391,5.2391,5.2391,5.2391,5.2391,5.2391,5.2391,5.2338,5.2194,5.1904,5.161,5.1331,5.081,5.0393,4.9534,4.8994,4.8548,4.7795,4.6944,4.6704,4.6388,4.5784,4.5105,4.4472,4.3761,4.3255,4.2661,4.2164,4.1773,4.1675,4.1619,4.148,4.1431,4.141,4.1339,4.1276,4.1234,4.117,4.1163,4.1163,4.1163,4.1163,4.1185,4.1185,4.1086,4.0965,4.0795,4.0723,4.0723,4.0702,4.0702,4.0702,4.0659,4.058,4.0337,4.0128,3.9875,3.9621,3.9019,3.837,3.7952,3.7497,3.7129,3.6803,3.6259,3.5524,3.4799,3.4051,3.3622,3.3286,3.2762,3.2111,3.1998,3.1513,3.1255,3.1177,3.1169,3.1405,3.1572,3.1949,3.2207,3.244,3.2447,3.2371,3.2274,3.2054,3.1869,3.1743,3.165,3.1484,3.1307,3.1383,3.1375,3.1138,3.0517,2.9845,5.1858,5.1808,5.1746,5.169,5.1779,5.2172,5.217,5.202,5.2358,5.2405,5.2268,5.2285,5.2342,5.238,5.2391,5.2409,5.2409,5.2391,5.2391,5.2391,5.2391,5.2391,5.2391,5.2391,5.2391,5.2391,5.2266,5.2086,5.1815,5.161,5.1368,5.1148,5.0602,5.0257,4.9967,4.9298,4.8692,4.7822,4.7512,4.6966,4.6314,4.5515,4.4647,4.3979,4.3391,4.2853,4.2536,4.2156,4.1933,4.1877,4.1787,4.1647,4.1591,4.1535,4.1465,4.1417,4.1389,4.141,4.1431,4.1452,4.1452,4.1452,4.1417,4.1255,4.1234,4.1086,4.0894,4.0851,4.0723,4.0702,4.0702,4.068,4.068,4.0537,4.0473,4.0351,4.0229,3.9976,3.9634,3.948,3.8935,3.8311,3.7947,3.7403,3.6649,3.582,3.5105,3.4388,3.4014,3.3597,3.2987,3.2452,3.2061,3.163,3.1465,3.1422,3.1426,3.1574,3.1708,3.2076,3.2406,3.2474,3.2481,3.25,3.2495,3.2433,3.2318,3.2262,3.2169,3.2012,3.2184,3.2388,3.2093,3.1796,3.1341,5.1808,5.1703,5.169,5.169,5.169,5.1708,5.176,5.1862,5.19,5.1923,5.2013,5.2123,5.2236,5.2327,5.2517,5.2463,5.2409,5.2409,5.2391,5.2391,5.2391,5.2391,5.2391,5.2391,5.2391,5.2356,5.2265,5.2086,5.1869,5.1666,5.1499,5.1261,5.1054,5.0826,5.0276,4.9967,4.9599,4.8779,4.82,4.7576,4.6728,4.58,4.4916,4.4175,4.3608,4.3195,4.2905,4.2586,4.2252,4.2071,4.203,4.1912,4.1821,4.1758,4.1689,4.1641,4.1599,4.1585,4.1543,4.1585,4.1578,4.1536,4.148,4.148,4.148,4.1339,4.1149,4.1001,4.0887,4.0809,4.0809,4.0766,4.0766,4.0744,4.0744,4.0723,4.0702,4.0666,4.0602,4.0559,4.0063,3.9387,3.9024,3.8477,3.7736,3.6905,3.6089,3.5382,3.4747,3.428,3.373,3.3311,3.294,3.2494,3.1951,3.168,3.1617,3.1571,3.1733,3.2095,3.2394,3.2535,3.2733,3.2961,3.2933,3.289,3.2907,3.2884,3.2791,3.2628,3.2741,3.2866,3.2876,3.2657,3.2705,5.1715,5.169,5.169,5.169,5.169,5.169,5.1716,5.1734,5.1731,5.1803,5.191,5.1949,5.2054,5.227,5.2977,5.2958,5.2369,5.2383,5.2394,5.2391,5.2391,5.2391,5.2391,5.2391,5.2391,5.2373,5.232,5.2212,5.1977,5.1796,5.1647,5.1443,5.124,5.1108,5.1035,5.0771,5.0412,4.9678,4.9181,4.8666,4.7297,4.635,4.547,4.493,4.4589,4.3863,4.3282,4.294,4.2542,4.2252,4.2063,4.1993,4.2016,4.1974,4.1912,4.187,4.185,4.185,4.185,4.185,4.1843,4.185,4.1829,4.1773,4.1752,4.1654,4.1486,4.1375,4.1269,4.1227,4.1191,4.1029,4.0965,4.0923,4.0901,4.0809,4.073,4.0709,4.0688,4.068,4.0494,4.0207,4.012,3.956,3.8921,3.803,3.7091,3.6387,3.5918,3.5253,3.457,3.4304,3.3987,3.3141,3.2516,3.2046,3.1882,3.1774,3.1764,3.2097,3.24,3.2651,3.2842,3.3004,3.329,3.3411,3.3416,3.3329,3.3206,3.303,3.3134,3.3224,3.3281,3.3256,3.3119]}]]